<?xml version="1.0" encoding="UTF-8" standalone="no" ?>
<gpx xmlns="http://www.topografix.com/GPX/1/1" xmlns:xsi="http://www.w3.org/2001/XMLSchema-instance" xsi:schemaLocation="http://www.topografix.com/GPX/1/1 http://www.topografix.com/GPX/1/1/gpx.xsd" version="1.1" creator="VisuGPX - https://www.visugpx.com">
  <metadata>
    <name>parc du Grand Marais, Argoeuvres</name>
  </metadata>
  <trk>
    <name><![CDATA[parc du Grand Marais, Argoeuvres_1]]></name>
    <trkseg>
      <trkpt lat="49.91979" lon="2.25875">
        <ele>19</ele>
        <time>2015-12-27T13:04:08Z</time>
      </trkpt>
      <trkpt lat="49.91981" lon="2.25879">
        <ele>19.1</ele>
        <time>2015-12-27T13:04:09Z</time>
      </trkpt>
      <trkpt lat="49.91983" lon="2.25882">
        <ele>19.1</ele>
        <time>2015-12-27T13:04:11Z</time>
      </trkpt>
      <trkpt lat="49.91986" lon="2.25886">
        <ele>19.2</ele>
        <time>2015-12-27T13:04:14Z</time>
      </trkpt>
      <trkpt lat="49.91989" lon="2.2589">
        <ele>19.2</ele>
        <time>2015-12-27T13:04:17Z</time>
      </trkpt>
      <trkpt lat="49.91991" lon="2.25892">
        <ele>19.3</ele>
        <time>2015-12-27T13:04:20Z</time>
      </trkpt>
      <trkpt lat="49.91994" lon="2.25895">
        <ele>19.3</ele>
        <time>2015-12-27T13:04:24Z</time>
      </trkpt>
      <trkpt lat="49.91996" lon="2.25897">
        <ele>19.4</ele>
        <time>2015-12-27T13:04:26Z</time>
      </trkpt>
      <trkpt lat="49.91998" lon="2.25902">
        <ele>19.5</ele>
        <time>2015-12-27T13:04:30Z</time>
      </trkpt>
      <trkpt lat="49.92001" lon="2.25905">
        <ele>19.5</ele>
        <time>2015-12-27T13:04:33Z</time>
      </trkpt>
      <trkpt lat="49.92003" lon="2.25907">
        <ele>19.6</ele>
        <time>2015-12-27T13:04:36Z</time>
      </trkpt>
      <trkpt lat="49.92007" lon="2.25911">
        <ele>19.7</ele>
        <time>2015-12-27T13:04:39Z</time>
      </trkpt>
      <trkpt lat="49.92009" lon="2.25914">
        <ele>19.7</ele>
        <time>2015-12-27T13:04:43Z</time>
      </trkpt>
      <trkpt lat="49.92011" lon="2.25915">
        <ele>19.8</ele>
        <time>2015-12-27T13:04:52Z</time>
      </trkpt>
      <trkpt lat="49.92029" lon="2.25939">
        <ele>20.4</ele>
        <time>2015-12-27T13:05:24Z</time>
      </trkpt>
      <trkpt lat="49.92031" lon="2.25943">
        <ele>20.5</ele>
        <time>2015-12-27T13:05:26Z</time>
      </trkpt>
      <trkpt lat="49.92034" lon="2.25946">
        <ele>20.6</ele>
        <time>2015-12-27T13:05:28Z</time>
      </trkpt>
      <trkpt lat="49.92036" lon="2.25949">
        <ele>20.7</ele>
        <time>2015-12-27T13:05:31Z</time>
      </trkpt>
      <trkpt lat="49.92039" lon="2.2595">
        <ele>20.8</ele>
        <time>2015-12-27T13:05:33Z</time>
      </trkpt>
      <trkpt lat="49.92044" lon="2.25953">
        <ele>21</ele>
        <time>2015-12-27T13:05:36Z</time>
      </trkpt>
      <trkpt lat="49.92046" lon="2.25955">
        <ele>21.1</ele>
        <time>2015-12-27T13:05:38Z</time>
      </trkpt>
      <trkpt lat="49.92049" lon="2.25956">
        <ele>21.3</ele>
        <time>2015-12-27T13:05:41Z</time>
      </trkpt>
      <trkpt lat="49.92053" lon="2.25961">
        <ele>21.5</ele>
        <time>2015-12-27T13:05:44Z</time>
      </trkpt>
      <trkpt lat="49.92055" lon="2.25964">
        <ele>21.6</ele>
        <time>2015-12-27T13:05:45Z</time>
      </trkpt>
      <trkpt lat="49.92058" lon="2.25966">
        <ele>21.8</ele>
        <time>2015-12-27T13:05:47Z</time>
      </trkpt>
      <trkpt lat="49.92061" lon="2.25968">
        <ele>21.9</ele>
        <time>2015-12-27T13:05:49Z</time>
      </trkpt>
      <trkpt lat="49.92064" lon="2.25971">
        <ele>22</ele>
        <time>2015-12-27T13:05:54Z</time>
      </trkpt>
      <trkpt lat="49.92066" lon="2.25973">
        <ele>22.1</ele>
        <time>2015-12-27T13:05:57Z</time>
      </trkpt>
      <trkpt lat="49.9207" lon="2.25974">
        <ele>22.2</ele>
        <time>2015-12-27T13:06:00Z</time>
      </trkpt>
      <trkpt lat="49.92074" lon="2.25979">
        <ele>22.4</ele>
        <time>2015-12-27T13:06:05Z</time>
      </trkpt>
      <trkpt lat="49.92077" lon="2.25982">
        <ele>22.5</ele>
        <time>2015-12-27T13:06:08Z</time>
      </trkpt>
      <trkpt lat="49.9208" lon="2.25985">
        <ele>22.5</ele>
        <time>2015-12-27T13:06:10Z</time>
      </trkpt>
      <trkpt lat="49.92083" lon="2.25987">
        <ele>22.6</ele>
        <time>2015-12-27T13:06:12Z</time>
      </trkpt>
      <trkpt lat="49.92086" lon="2.25991">
        <ele>22.7</ele>
        <time>2015-12-27T13:06:15Z</time>
      </trkpt>
      <trkpt lat="49.92089" lon="2.25994">
        <ele>22.8</ele>
        <time>2015-12-27T13:06:18Z</time>
      </trkpt>
      <trkpt lat="49.92093" lon="2.25999">
        <ele>22.9</ele>
        <time>2015-12-27T13:06:22Z</time>
      </trkpt>
      <trkpt lat="49.92095" lon="2.26001">
        <ele>22.9</ele>
        <time>2015-12-27T13:06:28Z</time>
      </trkpt>
      <trkpt lat="49.92097" lon="2.26004">
        <ele>22.9</ele>
        <time>2015-12-27T13:06:30Z</time>
      </trkpt>
      <trkpt lat="49.921" lon="2.26007">
        <ele>23</ele>
        <time>2015-12-27T13:06:32Z</time>
      </trkpt>
      <trkpt lat="49.92102" lon="2.2601">
        <ele>23</ele>
        <time>2015-12-27T13:06:35Z</time>
      </trkpt>
      <trkpt lat="49.92105" lon="2.26013">
        <ele>23.1</ele>
        <time>2015-12-27T13:06:38Z</time>
      </trkpt>
      <trkpt lat="49.92109" lon="2.26015">
        <ele>23.1</ele>
        <time>2015-12-27T13:06:41Z</time>
      </trkpt>
      <trkpt lat="49.92111" lon="2.2602">
        <ele>23.1</ele>
        <time>2015-12-27T13:06:44Z</time>
      </trkpt>
      <trkpt lat="49.92113" lon="2.26025">
        <ele>23.1</ele>
        <time>2015-12-27T13:06:48Z</time>
      </trkpt>
      <trkpt lat="49.92116" lon="2.26028">
        <ele>23.1</ele>
        <time>2015-12-27T13:06:52Z</time>
      </trkpt>
      <trkpt lat="49.92119" lon="2.26029">
        <ele>23.1</ele>
        <time>2015-12-27T13:06:55Z</time>
      </trkpt>
      <trkpt lat="49.92122" lon="2.26032">
        <ele>23.2</ele>
        <time>2015-12-27T13:06:57Z</time>
      </trkpt>
      <trkpt lat="49.92125" lon="2.26033">
        <ele>23.2</ele>
        <time>2015-12-27T13:07:00Z</time>
      </trkpt>
      <trkpt lat="49.92127" lon="2.26036">
        <ele>23.1</ele>
        <time>2015-12-27T13:07:03Z</time>
      </trkpt>
      <trkpt lat="49.9213" lon="2.26039">
        <ele>22.9</ele>
        <time>2015-12-27T13:07:06Z</time>
      </trkpt>
      <trkpt lat="49.92132" lon="2.26042">
        <ele>22.8</ele>
        <time>2015-12-27T13:07:09Z</time>
      </trkpt>
      <trkpt lat="49.92135" lon="2.26045">
        <ele>22.6</ele>
        <time>2015-12-27T13:07:11Z</time>
      </trkpt>
      <trkpt lat="49.92137" lon="2.26048">
        <ele>22.5</ele>
        <time>2015-12-27T13:07:13Z</time>
      </trkpt>
      <trkpt lat="49.9214" lon="2.2605">
        <ele>22.3</ele>
        <time>2015-12-27T13:07:16Z</time>
      </trkpt>
      <trkpt lat="49.92143" lon="2.26054">
        <ele>22.1</ele>
        <time>2015-12-27T13:07:19Z</time>
      </trkpt>
      <trkpt lat="49.92146" lon="2.26054">
        <ele>22</ele>
        <time>2015-12-27T13:07:21Z</time>
      </trkpt>
      <trkpt lat="49.92149" lon="2.26056">
        <ele>21.9</ele>
        <time>2015-12-27T13:07:24Z</time>
      </trkpt>
      <trkpt lat="49.92152" lon="2.26056">
        <ele>21.8</ele>
        <time>2015-12-27T13:07:26Z</time>
      </trkpt>
      <trkpt lat="49.92155" lon="2.26057">
        <ele>21.8</ele>
        <time>2015-12-27T13:07:28Z</time>
      </trkpt>
      <trkpt lat="49.92158" lon="2.26057">
        <ele>21.7</ele>
        <time>2015-12-27T13:07:31Z</time>
      </trkpt>
      <trkpt lat="49.92161" lon="2.26056">
        <ele>21.7</ele>
        <time>2015-12-27T13:07:34Z</time>
      </trkpt>
      <trkpt lat="49.92163" lon="2.26052">
        <ele>21.8</ele>
        <time>2015-12-27T13:07:37Z</time>
      </trkpt>
      <trkpt lat="49.92165" lon="2.26046">
        <ele>21.9</ele>
        <time>2015-12-27T13:07:40Z</time>
      </trkpt>
      <trkpt lat="49.92168" lon="2.26044">
        <ele>21.9</ele>
        <time>2015-12-27T13:07:42Z</time>
      </trkpt>
      <trkpt lat="49.92171" lon="2.26041">
        <ele>21.9</ele>
        <time>2015-12-27T13:07:44Z</time>
      </trkpt>
      <trkpt lat="49.92173" lon="2.26039">
        <ele>21.9</ele>
        <time>2015-12-27T13:07:48Z</time>
      </trkpt>
      <trkpt lat="49.92176" lon="2.26035">
        <ele>21.9</ele>
        <time>2015-12-27T13:07:50Z</time>
      </trkpt>
      <trkpt lat="49.92179" lon="2.26031">
        <ele>21.9</ele>
        <time>2015-12-27T13:07:56Z</time>
      </trkpt>
      <trkpt lat="49.92181" lon="2.26027">
        <ele>21.9</ele>
        <time>2015-12-27T13:07:58Z</time>
      </trkpt>
      <trkpt lat="49.92183" lon="2.26024">
        <ele>21.9</ele>
        <time>2015-12-27T13:08:00Z</time>
      </trkpt>
      <trkpt lat="49.92186" lon="2.26021">
        <ele>21.9</ele>
        <time>2015-12-27T13:08:02Z</time>
      </trkpt>
      <trkpt lat="49.92188" lon="2.26018">
        <ele>21.8</ele>
        <time>2015-12-27T13:08:05Z</time>
      </trkpt>
      <trkpt lat="49.92189" lon="2.26015">
        <ele>21.9</ele>
        <time>2015-12-27T13:08:07Z</time>
      </trkpt>
      <trkpt lat="49.92192" lon="2.26011">
        <ele>21.8</ele>
        <time>2015-12-27T13:08:10Z</time>
      </trkpt>
      <trkpt lat="49.92194" lon="2.26008">
        <ele>21.8</ele>
        <time>2015-12-27T13:08:12Z</time>
      </trkpt>
      <trkpt lat="49.92197" lon="2.26004">
        <ele>21.8</ele>
        <time>2015-12-27T13:08:15Z</time>
      </trkpt>
      <trkpt lat="49.92201" lon="2.25999">
        <ele>21.7</ele>
        <time>2015-12-27T13:08:21Z</time>
      </trkpt>
      <trkpt lat="49.92203" lon="2.25995">
        <ele>21.7</ele>
        <time>2015-12-27T13:08:23Z</time>
      </trkpt>
      <trkpt lat="49.92205" lon="2.25992">
        <ele>21.7</ele>
        <time>2015-12-27T13:08:27Z</time>
      </trkpt>
      <trkpt lat="49.92207" lon="2.25989">
        <ele>21.7</ele>
        <time>2015-12-27T13:08:29Z</time>
      </trkpt>
      <trkpt lat="49.92209" lon="2.25985">
        <ele>21.7</ele>
        <time>2015-12-27T13:08:32Z</time>
      </trkpt>
      <trkpt lat="49.92212" lon="2.25979">
        <ele>21.8</ele>
        <time>2015-12-27T13:08:35Z</time>
      </trkpt>
      <trkpt lat="49.92214" lon="2.25975">
        <ele>21.9</ele>
        <time>2015-12-27T13:08:38Z</time>
      </trkpt>
      <trkpt lat="49.92216" lon="2.25971">
        <ele>22</ele>
        <time>2015-12-27T13:08:40Z</time>
      </trkpt>
      <trkpt lat="49.92217" lon="2.25966">
        <ele>22</ele>
        <time>2015-12-27T13:08:43Z</time>
      </trkpt>
      <trkpt lat="49.92218" lon="2.2596">
        <ele>22.1</ele>
        <time>2015-12-27T13:08:46Z</time>
      </trkpt>
      <trkpt lat="49.92221" lon="2.25956">
        <ele>22.1</ele>
        <time>2015-12-27T13:08:49Z</time>
      </trkpt>
      <trkpt lat="49.92222" lon="2.25952">
        <ele>22.1</ele>
        <time>2015-12-27T13:08:51Z</time>
      </trkpt>
      <trkpt lat="49.92224" lon="2.25946">
        <ele>22</ele>
        <time>2015-12-27T13:08:54Z</time>
      </trkpt>
      <trkpt lat="49.92227" lon="2.2594">
        <ele>22</ele>
        <time>2015-12-27T13:08:57Z</time>
      </trkpt>
      <trkpt lat="49.92228" lon="2.25936">
        <ele>21.9</ele>
        <time>2015-12-27T13:08:59Z</time>
      </trkpt>
      <trkpt lat="49.92229" lon="2.25932">
        <ele>21.9</ele>
        <time>2015-12-27T13:09:02Z</time>
      </trkpt>
      <trkpt lat="49.9223" lon="2.25927">
        <ele>21.8</ele>
        <time>2015-12-27T13:09:04Z</time>
      </trkpt>
      <trkpt lat="49.92232" lon="2.25923">
        <ele>21.7</ele>
        <time>2015-12-27T13:09:06Z</time>
      </trkpt>
      <trkpt lat="49.92232" lon="2.25917">
        <ele>21.7</ele>
        <time>2015-12-27T13:09:10Z</time>
      </trkpt>
      <trkpt lat="49.92232" lon="2.2591">
        <ele>21.5</ele>
        <time>2015-12-27T13:09:15Z</time>
      </trkpt>
      <trkpt lat="49.92232" lon="2.25906">
        <ele>21.5</ele>
        <time>2015-12-27T13:09:18Z</time>
      </trkpt>
      <trkpt lat="49.92232" lon="2.25901">
        <ele>21.4</ele>
        <time>2015-12-27T13:09:21Z</time>
      </trkpt>
      <trkpt lat="49.92233" lon="2.25895">
        <ele>21.3</ele>
        <time>2015-12-27T13:09:24Z</time>
      </trkpt>
      <trkpt lat="49.92234" lon="2.25891">
        <ele>21.2</ele>
        <time>2015-12-27T13:09:26Z</time>
      </trkpt>
      <trkpt lat="49.92233" lon="2.25887">
        <ele>21.2</ele>
        <time>2015-12-27T13:09:29Z</time>
      </trkpt>
      <trkpt lat="49.92234" lon="2.25882">
        <ele>21.1</ele>
        <time>2015-12-27T13:09:32Z</time>
      </trkpt>
      <trkpt lat="49.92233" lon="2.25878">
        <ele>21</ele>
        <time>2015-12-27T13:09:35Z</time>
      </trkpt>
      <trkpt lat="49.92232" lon="2.25873">
        <ele>21</ele>
        <time>2015-12-27T13:09:40Z</time>
      </trkpt>
      <trkpt lat="49.92233" lon="2.25867">
        <ele>20.9</ele>
        <time>2015-12-27T13:09:44Z</time>
      </trkpt>
      <trkpt lat="49.92233" lon="2.25862">
        <ele>20.8</ele>
        <time>2015-12-27T13:09:46Z</time>
      </trkpt>
      <trkpt lat="49.92234" lon="2.25856">
        <ele>20.7</ele>
        <time>2015-12-27T13:09:49Z</time>
      </trkpt>
      <trkpt lat="49.92233" lon="2.25852">
        <ele>20.6</ele>
        <time>2015-12-27T13:09:52Z</time>
      </trkpt>
      <trkpt lat="49.92234" lon="2.25846">
        <ele>20.5</ele>
        <time>2015-12-27T13:09:56Z</time>
      </trkpt>
      <trkpt lat="49.92235" lon="2.25841">
        <ele>20.5</ele>
        <time>2015-12-27T13:09:59Z</time>
      </trkpt>
      <trkpt lat="49.92237" lon="2.25836">
        <ele>20.4</ele>
        <time>2015-12-27T13:10:01Z</time>
      </trkpt>
      <trkpt lat="49.92238" lon="2.25832">
        <ele>20.3</ele>
        <time>2015-12-27T13:10:03Z</time>
      </trkpt>
      <trkpt lat="49.92238" lon="2.25827">
        <ele>20.2</ele>
        <time>2015-12-27T13:10:05Z</time>
      </trkpt>
      <trkpt lat="49.92238" lon="2.25822">
        <ele>20.1</ele>
        <time>2015-12-27T13:10:08Z</time>
      </trkpt>
      <trkpt lat="49.92238" lon="2.25815">
        <ele>20</ele>
        <time>2015-12-27T13:10:13Z</time>
      </trkpt>
      <trkpt lat="49.92239" lon="2.2581">
        <ele>19.9</ele>
        <time>2015-12-27T13:10:14Z</time>
      </trkpt>
      <trkpt lat="49.92239" lon="2.25806">
        <ele>19.9</ele>
        <time>2015-12-27T13:10:16Z</time>
      </trkpt>
      <trkpt lat="49.9224" lon="2.25799">
        <ele>19.7</ele>
        <time>2015-12-27T13:10:19Z</time>
      </trkpt>
      <trkpt lat="49.92239" lon="2.25794">
        <ele>19.7</ele>
        <time>2015-12-27T13:10:23Z</time>
      </trkpt>
      <trkpt lat="49.92241" lon="2.2579">
        <ele>19.6</ele>
        <time>2015-12-27T13:10:25Z</time>
      </trkpt>
      <trkpt lat="49.92243" lon="2.25786">
        <ele>19.6</ele>
        <time>2015-12-27T13:10:29Z</time>
      </trkpt>
      <trkpt lat="49.92243" lon="2.25781">
        <ele>19.6</ele>
        <time>2015-12-27T13:10:32Z</time>
      </trkpt>
      <trkpt lat="49.92243" lon="2.25774">
        <ele>19.6</ele>
        <time>2015-12-27T13:10:35Z</time>
      </trkpt>
      <trkpt lat="49.92245" lon="2.2577">
        <ele>19.6</ele>
        <time>2015-12-27T13:10:37Z</time>
      </trkpt>
      <trkpt lat="49.92244" lon="2.25764">
        <ele>19.6</ele>
        <time>2015-12-27T13:10:41Z</time>
      </trkpt>
      <trkpt lat="49.92244" lon="2.25758">
        <ele>19.6</ele>
        <time>2015-12-27T13:10:43Z</time>
      </trkpt>
      <trkpt lat="49.92244" lon="2.25754">
        <ele>19.6</ele>
        <time>2015-12-27T13:10:46Z</time>
      </trkpt>
      <trkpt lat="49.92245" lon="2.2575">
        <ele>19.6</ele>
        <time>2015-12-27T13:10:48Z</time>
      </trkpt>
      <trkpt lat="49.92247" lon="2.25746">
        <ele>19.5</ele>
        <time>2015-12-27T13:10:50Z</time>
      </trkpt>
      <trkpt lat="49.92246" lon="2.25741">
        <ele>19.6</ele>
        <time>2015-12-27T13:10:53Z</time>
      </trkpt>
      <trkpt lat="49.92246" lon="2.25736">
        <ele>19.6</ele>
        <time>2015-12-27T13:10:56Z</time>
      </trkpt>
      <trkpt lat="49.92246" lon="2.2573">
        <ele>19.5</ele>
        <time>2015-12-27T13:10:58Z</time>
      </trkpt>
      <trkpt lat="49.92248" lon="2.25725">
        <ele>19.5</ele>
        <time>2015-12-27T13:11:01Z</time>
      </trkpt>
      <trkpt lat="49.92248" lon="2.2572">
        <ele>19.5</ele>
        <time>2015-12-27T13:11:05Z</time>
      </trkpt>
      <trkpt lat="49.92248" lon="2.25716">
        <ele>19.5</ele>
        <time>2015-12-27T13:11:07Z</time>
      </trkpt>
      <trkpt lat="49.92248" lon="2.2571">
        <ele>19.5</ele>
        <time>2015-12-27T13:11:10Z</time>
      </trkpt>
      <trkpt lat="49.92248" lon="2.25705">
        <ele>19.4</ele>
        <time>2015-12-27T13:11:12Z</time>
      </trkpt>
      <trkpt lat="49.92248" lon="2.257">
        <ele>19.3</ele>
        <time>2015-12-27T13:11:14Z</time>
      </trkpt>
      <trkpt lat="49.92248" lon="2.25695">
        <ele>19.2</ele>
        <time>2015-12-27T13:11:17Z</time>
      </trkpt>
      <trkpt lat="49.9225" lon="2.25687">
        <ele>19</ele>
        <time>2015-12-27T13:11:20Z</time>
      </trkpt>
      <trkpt lat="49.92251" lon="2.25681">
        <ele>18.8</ele>
        <time>2015-12-27T13:11:22Z</time>
      </trkpt>
      <trkpt lat="49.92252" lon="2.25677">
        <ele>18.7</ele>
        <time>2015-12-27T13:11:25Z</time>
      </trkpt>
      <trkpt lat="49.92254" lon="2.2567">
        <ele>18.6</ele>
        <time>2015-12-27T13:11:28Z</time>
      </trkpt>
      <trkpt lat="49.92254" lon="2.25666">
        <ele>18.5</ele>
        <time>2015-12-27T13:11:30Z</time>
      </trkpt>
      <trkpt lat="49.92255" lon="2.25662">
        <ele>18.4</ele>
        <time>2015-12-27T13:11:32Z</time>
      </trkpt>
      <trkpt lat="49.92255" lon="2.25656">
        <ele>18.3</ele>
        <time>2015-12-27T13:11:35Z</time>
      </trkpt>
      <trkpt lat="49.92256" lon="2.25652">
        <ele>18.2</ele>
        <time>2015-12-27T13:11:39Z</time>
      </trkpt>
      <trkpt lat="49.92255" lon="2.25648">
        <ele>18.1</ele>
        <time>2015-12-27T13:11:42Z</time>
      </trkpt>
      <trkpt lat="49.92257" lon="2.25645">
        <ele>18</ele>
        <time>2015-12-27T13:11:44Z</time>
      </trkpt>
      <trkpt lat="49.92258" lon="2.2564">
        <ele>17.9</ele>
        <time>2015-12-27T13:11:47Z</time>
      </trkpt>
      <trkpt lat="49.92259" lon="2.25636">
        <ele>17.8</ele>
        <time>2015-12-27T13:11:49Z</time>
      </trkpt>
      <trkpt lat="49.9226" lon="2.25631">
        <ele>17.8</ele>
        <time>2015-12-27T13:11:51Z</time>
      </trkpt>
      <trkpt lat="49.92263" lon="2.25626">
        <ele>17.7</ele>
        <time>2015-12-27T13:11:53Z</time>
      </trkpt>
      <trkpt lat="49.92264" lon="2.25619">
        <ele>17.7</ele>
        <time>2015-12-27T13:11:56Z</time>
      </trkpt>
      <trkpt lat="49.92266" lon="2.25614">
        <ele>17.7</ele>
        <time>2015-12-27T13:11:58Z</time>
      </trkpt>
      <trkpt lat="49.92268" lon="2.25609">
        <ele>17.8</ele>
        <time>2015-12-27T13:12:01Z</time>
      </trkpt>
      <trkpt lat="49.92269" lon="2.25604">
        <ele>17.8</ele>
        <time>2015-12-27T13:12:04Z</time>
      </trkpt>
      <trkpt lat="49.9227" lon="2.25599">
        <ele>17.9</ele>
        <time>2015-12-27T13:12:08Z</time>
      </trkpt>
      <trkpt lat="49.92272" lon="2.25595">
        <ele>18</ele>
        <time>2015-12-27T13:12:11Z</time>
      </trkpt>
      <trkpt lat="49.92273" lon="2.25591">
        <ele>18</ele>
        <time>2015-12-27T13:12:13Z</time>
      </trkpt>
      <trkpt lat="49.92275" lon="2.25585">
        <ele>18.1</ele>
        <time>2015-12-27T13:12:16Z</time>
      </trkpt>
      <trkpt lat="49.92275" lon="2.2558">
        <ele>18.1</ele>
        <time>2015-12-27T13:12:19Z</time>
      </trkpt>
      <trkpt lat="49.92277" lon="2.25577">
        <ele>18.2</ele>
        <time>2015-12-27T13:12:21Z</time>
      </trkpt>
      <trkpt lat="49.92279" lon="2.25572">
        <ele>18.3</ele>
        <time>2015-12-27T13:12:25Z</time>
      </trkpt>
      <trkpt lat="49.9228" lon="2.25568">
        <ele>18.4</ele>
        <time>2015-12-27T13:12:27Z</time>
      </trkpt>
      <trkpt lat="49.92282" lon="2.25563">
        <ele>18.5</ele>
        <time>2015-12-27T13:12:30Z</time>
      </trkpt>
      <trkpt lat="49.92283" lon="2.25559">
        <ele>18.5</ele>
        <time>2015-12-27T13:12:32Z</time>
      </trkpt>
      <trkpt lat="49.92286" lon="2.25553">
        <ele>18.7</ele>
        <time>2015-12-27T13:12:36Z</time>
      </trkpt>
      <trkpt lat="49.92288" lon="2.2555">
        <ele>18.8</ele>
        <time>2015-12-27T13:12:38Z</time>
      </trkpt>
      <trkpt lat="49.92289" lon="2.25546">
        <ele>18.9</ele>
        <time>2015-12-27T13:12:40Z</time>
      </trkpt>
      <trkpt lat="49.92287" lon="2.25542">
        <ele>18.8</ele>
        <time>2015-12-27T13:12:44Z</time>
      </trkpt>
      <trkpt lat="49.92288" lon="2.25537">
        <ele>19</ele>
        <time>2015-12-27T13:12:46Z</time>
      </trkpt>
      <trkpt lat="49.92286" lon="2.25533">
        <ele>19</ele>
        <time>2015-12-27T13:12:49Z</time>
      </trkpt>
      <trkpt lat="49.92287" lon="2.25526">
        <ele>19.2</ele>
        <time>2015-12-27T13:12:52Z</time>
      </trkpt>
      <trkpt lat="49.92287" lon="2.25522">
        <ele>19.3</ele>
        <time>2015-12-27T13:12:55Z</time>
      </trkpt>
      <trkpt lat="49.92286" lon="2.25517">
        <ele>19.3</ele>
        <time>2015-12-27T13:13:00Z</time>
      </trkpt>
      <trkpt lat="49.92288" lon="2.25511">
        <ele>19.6</ele>
        <time>2015-12-27T13:13:04Z</time>
      </trkpt>
      <trkpt lat="49.92286" lon="2.25506">
        <ele>19.6</ele>
        <time>2015-12-27T13:13:09Z</time>
      </trkpt>
      <trkpt lat="49.92287" lon="2.25501">
        <ele>19.8</ele>
        <time>2015-12-27T13:13:11Z</time>
      </trkpt>
      <trkpt lat="49.92289" lon="2.25496">
        <ele>20</ele>
        <time>2015-12-27T13:13:14Z</time>
      </trkpt>
      <trkpt lat="49.92286" lon="2.25487">
        <ele>20.1</ele>
        <time>2015-12-27T13:13:21Z</time>
      </trkpt>
      <trkpt lat="49.92287" lon="2.25482">
        <ele>20.2</ele>
        <time>2015-12-27T13:13:23Z</time>
      </trkpt>
      <trkpt lat="49.92287" lon="2.25478">
        <ele>20.3</ele>
        <time>2015-12-27T13:13:25Z</time>
      </trkpt>
      <trkpt lat="49.92287" lon="2.25473">
        <ele>20.4</ele>
        <time>2015-12-27T13:13:27Z</time>
      </trkpt>
      <trkpt lat="49.92286" lon="2.25468">
        <ele>20.5</ele>
        <time>2015-12-27T13:13:30Z</time>
      </trkpt>
      <trkpt lat="49.92284" lon="2.25463">
        <ele>20.5</ele>
        <time>2015-12-27T13:13:33Z</time>
      </trkpt>
      <trkpt lat="49.92284" lon="2.25458">
        <ele>20.6</ele>
        <time>2015-12-27T13:13:35Z</time>
      </trkpt>
      <trkpt lat="49.92285" lon="2.25453">
        <ele>20.7</ele>
        <time>2015-12-27T13:13:37Z</time>
      </trkpt>
      <trkpt lat="49.92286" lon="2.25448">
        <ele>20.8</ele>
        <time>2015-12-27T13:13:39Z</time>
      </trkpt>
      <trkpt lat="49.92286" lon="2.25443">
        <ele>20.9</ele>
        <time>2015-12-27T13:13:42Z</time>
      </trkpt>
      <trkpt lat="49.92287" lon="2.25437">
        <ele>21</ele>
        <time>2015-12-27T13:13:44Z</time>
      </trkpt>
      <trkpt lat="49.92288" lon="2.25433">
        <ele>21.1</ele>
        <time>2015-12-27T13:13:46Z</time>
      </trkpt>
      <trkpt lat="49.92289" lon="2.25429">
        <ele>21.2</ele>
        <time>2015-12-27T13:13:48Z</time>
      </trkpt>
      <trkpt lat="49.92291" lon="2.25423">
        <ele>21.4</ele>
        <time>2015-12-27T13:13:50Z</time>
      </trkpt>
      <trkpt lat="49.92291" lon="2.25419">
        <ele>21.5</ele>
        <time>2015-12-27T13:13:52Z</time>
      </trkpt>
      <trkpt lat="49.92293" lon="2.25414">
        <ele>21.6</ele>
        <time>2015-12-27T13:13:54Z</time>
      </trkpt>
      <trkpt lat="49.92295" lon="2.25409">
        <ele>21.7</ele>
        <time>2015-12-27T13:13:56Z</time>
      </trkpt>
      <trkpt lat="49.92296" lon="2.25405">
        <ele>21.8</ele>
        <time>2015-12-27T13:13:58Z</time>
      </trkpt>
      <trkpt lat="49.92297" lon="2.254">
        <ele>21.9</ele>
        <time>2015-12-27T13:14:01Z</time>
      </trkpt>
      <trkpt lat="49.92299" lon="2.25397">
        <ele>22.1</ele>
        <time>2015-12-27T13:14:04Z</time>
      </trkpt>
      <trkpt lat="49.92301" lon="2.25392">
        <ele>22.2</ele>
        <time>2015-12-27T13:14:05Z</time>
      </trkpt>
      <trkpt lat="49.92301" lon="2.25388">
        <ele>22.2</ele>
        <time>2015-12-27T13:14:07Z</time>
      </trkpt>
      <trkpt lat="49.92302" lon="2.25382">
        <ele>22.3</ele>
        <time>2015-12-27T13:14:09Z</time>
      </trkpt>
      <trkpt lat="49.92301" lon="2.25378">
        <ele>22.3</ele>
        <time>2015-12-27T13:14:14Z</time>
      </trkpt>
      <trkpt lat="49.92303" lon="2.25372">
        <ele>22.3</ele>
        <time>2015-12-27T13:14:17Z</time>
      </trkpt>
      <trkpt lat="49.92304" lon="2.25366">
        <ele>22.1</ele>
        <time>2015-12-27T13:14:20Z</time>
      </trkpt>
      <trkpt lat="49.92305" lon="2.25362">
        <ele>22</ele>
        <time>2015-12-27T13:14:23Z</time>
      </trkpt>
      <trkpt lat="49.92307" lon="2.25357">
        <ele>21.9</ele>
        <time>2015-12-27T13:14:27Z</time>
      </trkpt>
      <trkpt lat="49.92306" lon="2.25351">
        <ele>21.7</ele>
        <time>2015-12-27T13:14:30Z</time>
      </trkpt>
      <trkpt lat="49.92309" lon="2.25345">
        <ele>21.6</ele>
        <time>2015-12-27T13:14:33Z</time>
      </trkpt>
      <trkpt lat="49.92311" lon="2.2534">
        <ele>21.4</ele>
        <time>2015-12-27T13:14:37Z</time>
      </trkpt>
      <trkpt lat="49.92312" lon="2.25335">
        <ele>21.3</ele>
        <time>2015-12-27T13:14:40Z</time>
      </trkpt>
      <trkpt lat="49.92313" lon="2.2533">
        <ele>21.2</ele>
        <time>2015-12-27T13:14:42Z</time>
      </trkpt>
      <trkpt lat="49.92315" lon="2.25325">
        <ele>21</ele>
        <time>2015-12-27T13:14:45Z</time>
      </trkpt>
      <trkpt lat="49.92316" lon="2.2532">
        <ele>20.9</ele>
        <time>2015-12-27T13:14:50Z</time>
      </trkpt>
      <trkpt lat="49.92316" lon="2.25316">
        <ele>20.7</ele>
        <time>2015-12-27T13:14:54Z</time>
      </trkpt>
      <trkpt lat="49.92317" lon="2.25311">
        <ele>20.6</ele>
        <time>2015-12-27T13:14:57Z</time>
      </trkpt>
      <trkpt lat="49.92318" lon="2.25306">
        <ele>20.4</ele>
        <time>2015-12-27T13:15:02Z</time>
      </trkpt>
      <trkpt lat="49.92319" lon="2.25301">
        <ele>20.3</ele>
        <time>2015-12-27T13:15:04Z</time>
      </trkpt>
      <trkpt lat="49.92319" lon="2.25296">
        <ele>20.1</ele>
        <time>2015-12-27T13:15:07Z</time>
      </trkpt>
      <trkpt lat="49.92319" lon="2.25292">
        <ele>20</ele>
        <time>2015-12-27T13:15:09Z</time>
      </trkpt>
      <trkpt lat="49.92321" lon="2.25284">
        <ele>19.8</ele>
        <time>2015-12-27T13:15:12Z</time>
      </trkpt>
      <trkpt lat="49.92322" lon="2.2528">
        <ele>19.8</ele>
        <time>2015-12-27T13:15:14Z</time>
      </trkpt>
      <trkpt lat="49.92324" lon="2.25274">
        <ele>19.7</ele>
        <time>2015-12-27T13:15:16Z</time>
      </trkpt>
      <trkpt lat="49.92325" lon="2.25268">
        <ele>19.6</ele>
        <time>2015-12-27T13:15:19Z</time>
      </trkpt>
      <trkpt lat="49.92325" lon="2.25263">
        <ele>19.5</ele>
        <time>2015-12-27T13:15:22Z</time>
      </trkpt>
      <trkpt lat="49.92326" lon="2.25257">
        <ele>19.3</ele>
        <time>2015-12-27T13:15:25Z</time>
      </trkpt>
      <trkpt lat="49.92326" lon="2.2525">
        <ele>19.2</ele>
        <time>2015-12-27T13:15:30Z</time>
      </trkpt>
      <trkpt lat="49.92327" lon="2.25245">
        <ele>19.1</ele>
        <time>2015-12-27T13:15:34Z</time>
      </trkpt>
      <trkpt lat="49.92329" lon="2.2524">
        <ele>19</ele>
        <time>2015-12-27T13:15:36Z</time>
      </trkpt>
      <trkpt lat="49.92328" lon="2.25236">
        <ele>18.9</ele>
        <time>2015-12-27T13:15:39Z</time>
      </trkpt>
      <trkpt lat="49.92325" lon="2.25232">
        <ele>18.6</ele>
        <time>2015-12-27T13:15:43Z</time>
      </trkpt>
      <trkpt lat="49.92326" lon="2.25227">
        <ele>18.6</ele>
        <time>2015-12-27T13:15:47Z</time>
      </trkpt>
      <trkpt lat="49.92328" lon="2.25223">
        <ele>18.6</ele>
        <time>2015-12-27T13:15:50Z</time>
      </trkpt>
      <trkpt lat="49.9233" lon="2.25217">
        <ele>18.5</ele>
        <time>2015-12-27T13:15:52Z</time>
      </trkpt>
      <trkpt lat="49.9233" lon="2.25213">
        <ele>18.4</ele>
        <time>2015-12-27T13:15:54Z</time>
      </trkpt>
      <trkpt lat="49.92332" lon="2.25208">
        <ele>18.4</ele>
        <time>2015-12-27T13:15:56Z</time>
      </trkpt>
      <trkpt lat="49.92334" lon="2.25203">
        <ele>18.5</ele>
        <time>2015-12-27T13:15:59Z</time>
      </trkpt>
      <trkpt lat="49.92336" lon="2.25198">
        <ele>18.6</ele>
        <time>2015-12-27T13:16:00Z</time>
      </trkpt>
      <trkpt lat="49.92337" lon="2.25192">
        <ele>18.7</ele>
        <time>2015-12-27T13:16:03Z</time>
      </trkpt>
      <trkpt lat="49.92338" lon="2.25186">
        <ele>18.8</ele>
        <time>2015-12-27T13:16:06Z</time>
      </trkpt>
      <trkpt lat="49.92339" lon="2.25182">
        <ele>18.8</ele>
        <time>2015-12-27T13:16:08Z</time>
      </trkpt>
      <trkpt lat="49.9234" lon="2.25177">
        <ele>18.9</ele>
        <time>2015-12-27T13:16:10Z</time>
      </trkpt>
      <trkpt lat="49.92342" lon="2.25172">
        <ele>19</ele>
        <time>2015-12-27T13:16:12Z</time>
      </trkpt>
      <trkpt lat="49.92343" lon="2.25167">
        <ele>19.1</ele>
        <time>2015-12-27T13:16:14Z</time>
      </trkpt>
      <trkpt lat="49.92345" lon="2.25163">
        <ele>19.2</ele>
        <time>2015-12-27T13:16:16Z</time>
      </trkpt>
      <trkpt lat="49.92345" lon="2.25158">
        <ele>19.2</ele>
        <time>2015-12-27T13:16:18Z</time>
      </trkpt>
      <trkpt lat="49.92346" lon="2.25154">
        <ele>19.3</ele>
        <time>2015-12-27T13:16:20Z</time>
      </trkpt>
      <trkpt lat="49.92347" lon="2.25149">
        <ele>19.3</ele>
        <time>2015-12-27T13:16:23Z</time>
      </trkpt>
      <trkpt lat="49.9235" lon="2.25145">
        <ele>19.5</ele>
        <time>2015-12-27T13:16:26Z</time>
      </trkpt>
      <trkpt lat="49.92352" lon="2.25139">
        <ele>19.6</ele>
        <time>2015-12-27T13:16:28Z</time>
      </trkpt>
      <trkpt lat="49.92353" lon="2.25134">
        <ele>19.7</ele>
        <time>2015-12-27T13:16:31Z</time>
      </trkpt>
      <trkpt lat="49.92354" lon="2.25129">
        <ele>19.8</ele>
        <time>2015-12-27T13:16:33Z</time>
      </trkpt>
      <trkpt lat="49.92355" lon="2.25124">
        <ele>19.8</ele>
        <time>2015-12-27T13:16:35Z</time>
      </trkpt>
      <trkpt lat="49.92357" lon="2.25118">
        <ele>19.9</ele>
        <time>2015-12-27T13:16:38Z</time>
      </trkpt>
      <trkpt lat="49.92358" lon="2.25114">
        <ele>20</ele>
        <time>2015-12-27T13:16:40Z</time>
      </trkpt>
      <trkpt lat="49.92359" lon="2.2511">
        <ele>20.1</ele>
        <time>2015-12-27T13:16:42Z</time>
      </trkpt>
      <trkpt lat="49.92361" lon="2.25105">
        <ele>20.2</ele>
        <time>2015-12-27T13:16:44Z</time>
      </trkpt>
      <trkpt lat="49.92361" lon="2.251">
        <ele>20.3</ele>
        <time>2015-12-27T13:16:47Z</time>
      </trkpt>
      <trkpt lat="49.92362" lon="2.25096">
        <ele>20.3</ele>
        <time>2015-12-27T13:16:50Z</time>
      </trkpt>
      <trkpt lat="49.92364" lon="2.25093">
        <ele>20.4</ele>
        <time>2015-12-27T13:16:52Z</time>
      </trkpt>
      <trkpt lat="49.92364" lon="2.25088">
        <ele>20.5</ele>
        <time>2015-12-27T13:16:54Z</time>
      </trkpt>
      <trkpt lat="49.92365" lon="2.25083">
        <ele>20.5</ele>
        <time>2015-12-27T13:16:56Z</time>
      </trkpt>
      <trkpt lat="49.92366" lon="2.25078">
        <ele>20.6</ele>
        <time>2015-12-27T13:16:59Z</time>
      </trkpt>
      <trkpt lat="49.92368" lon="2.25073">
        <ele>20.7</ele>
        <time>2015-12-27T13:17:02Z</time>
      </trkpt>
      <trkpt lat="49.9237" lon="2.25068">
        <ele>20.8</ele>
        <time>2015-12-27T13:17:04Z</time>
      </trkpt>
      <trkpt lat="49.92371" lon="2.25063">
        <ele>20.8</ele>
        <time>2015-12-27T13:17:06Z</time>
      </trkpt>
      <trkpt lat="49.92372" lon="2.25058">
        <ele>20.9</ele>
        <time>2015-12-27T13:17:09Z</time>
      </trkpt>
      <trkpt lat="49.92373" lon="2.25053">
        <ele>20.9</ele>
        <time>2015-12-27T13:17:11Z</time>
      </trkpt>
      <trkpt lat="49.92374" lon="2.25048">
        <ele>21</ele>
        <time>2015-12-27T13:17:14Z</time>
      </trkpt>
      <trkpt lat="49.92375" lon="2.25043">
        <ele>21</ele>
        <time>2015-12-27T13:17:17Z</time>
      </trkpt>
      <trkpt lat="49.92375" lon="2.25039">
        <ele>21</ele>
        <time>2015-12-27T13:17:20Z</time>
      </trkpt>
      <trkpt lat="49.92377" lon="2.25034">
        <ele>20.9</ele>
        <time>2015-12-27T13:17:23Z</time>
      </trkpt>
      <trkpt lat="49.92379" lon="2.2503">
        <ele>21</ele>
        <time>2015-12-27T13:17:25Z</time>
      </trkpt>
      <trkpt lat="49.92381" lon="2.25022">
        <ele>21</ele>
        <time>2015-12-27T13:17:28Z</time>
      </trkpt>
      <trkpt lat="49.92383" lon="2.25017">
        <ele>20.9</ele>
        <time>2015-12-27T13:17:30Z</time>
      </trkpt>
      <trkpt lat="49.92384" lon="2.25011">
        <ele>20.9</ele>
        <time>2015-12-27T13:17:32Z</time>
      </trkpt>
      <trkpt lat="49.92385" lon="2.25007">
        <ele>20.8</ele>
        <time>2015-12-27T13:17:35Z</time>
      </trkpt>
      <trkpt lat="49.92385" lon="2.25002">
        <ele>20.7</ele>
        <time>2015-12-27T13:17:37Z</time>
      </trkpt>
      <trkpt lat="49.92385" lon="2.24997">
        <ele>20.6</ele>
        <time>2015-12-27T13:17:40Z</time>
      </trkpt>
      <trkpt lat="49.92386" lon="2.24993">
        <ele>20.5</ele>
        <time>2015-12-27T13:17:44Z</time>
      </trkpt>
      <trkpt lat="49.92386" lon="2.24987">
        <ele>20.4</ele>
        <time>2015-12-27T13:17:48Z</time>
      </trkpt>
      <trkpt lat="49.92387" lon="2.24983">
        <ele>20.4</ele>
        <time>2015-12-27T13:17:53Z</time>
      </trkpt>
      <trkpt lat="49.92389" lon="2.24977">
        <ele>20.3</ele>
        <time>2015-12-27T13:17:58Z</time>
      </trkpt>
      <trkpt lat="49.92388" lon="2.24972">
        <ele>20.1</ele>
        <time>2015-12-27T13:18:01Z</time>
      </trkpt>
      <trkpt lat="49.92387" lon="2.24968">
        <ele>20</ele>
        <time>2015-12-27T13:18:05Z</time>
      </trkpt>
      <trkpt lat="49.92386" lon="2.24963">
        <ele>19.8</ele>
        <time>2015-12-27T13:18:09Z</time>
      </trkpt>
      <trkpt lat="49.92386" lon="2.24956">
        <ele>19.6</ele>
        <time>2015-12-27T13:18:15Z</time>
      </trkpt>
      <trkpt lat="49.92387" lon="2.24949">
        <ele>19.6</ele>
        <time>2015-12-27T13:18:21Z</time>
      </trkpt>
      <trkpt lat="49.92387" lon="2.24944">
        <ele>19.5</ele>
        <time>2015-12-27T13:18:24Z</time>
      </trkpt>
      <trkpt lat="49.92387" lon="2.24939">
        <ele>19.4</ele>
        <time>2015-12-27T13:18:27Z</time>
      </trkpt>
      <trkpt lat="49.92387" lon="2.24934">
        <ele>19.4</ele>
        <time>2015-12-27T13:18:30Z</time>
      </trkpt>
      <trkpt lat="49.92388" lon="2.24929">
        <ele>19.3</ele>
        <time>2015-12-27T13:18:34Z</time>
      </trkpt>
      <trkpt lat="49.92389" lon="2.24925">
        <ele>19.3</ele>
        <time>2015-12-27T13:18:37Z</time>
      </trkpt>
      <trkpt lat="49.92389" lon="2.24921">
        <ele>19.2</ele>
        <time>2015-12-27T13:18:39Z</time>
      </trkpt>
      <trkpt lat="49.92389" lon="2.24916">
        <ele>19.2</ele>
        <time>2015-12-27T13:18:42Z</time>
      </trkpt>
      <trkpt lat="49.92389" lon="2.2491">
        <ele>19.1</ele>
        <time>2015-12-27T13:18:45Z</time>
      </trkpt>
      <trkpt lat="49.9239" lon="2.24905">
        <ele>19</ele>
        <time>2015-12-27T13:18:47Z</time>
      </trkpt>
      <trkpt lat="49.92391" lon="2.249">
        <ele>19</ele>
        <time>2015-12-27T13:18:50Z</time>
      </trkpt>
      <trkpt lat="49.92393" lon="2.24896">
        <ele>19</ele>
        <time>2015-12-27T13:18:51Z</time>
      </trkpt>
      <trkpt lat="49.92395" lon="2.24892">
        <ele>19</ele>
        <time>2015-12-27T13:18:54Z</time>
      </trkpt>
      <trkpt lat="49.92397" lon="2.24886">
        <ele>19</ele>
        <time>2015-12-27T13:18:57Z</time>
      </trkpt>
      <trkpt lat="49.92399" lon="2.24882">
        <ele>19</ele>
        <time>2015-12-27T13:18:59Z</time>
      </trkpt>
      <trkpt lat="49.92399" lon="2.24877">
        <ele>18.9</ele>
        <time>2015-12-27T13:19:02Z</time>
      </trkpt>
      <trkpt lat="49.92398" lon="2.24871">
        <ele>18.7</ele>
        <time>2015-12-27T13:19:05Z</time>
      </trkpt>
      <trkpt lat="49.924" lon="2.24866">
        <ele>18.7</ele>
        <time>2015-12-27T13:19:07Z</time>
      </trkpt>
      <trkpt lat="49.92401" lon="2.2486">
        <ele>18.6</ele>
        <time>2015-12-27T13:19:09Z</time>
      </trkpt>
      <trkpt lat="49.92402" lon="2.24855">
        <ele>18.5</ele>
        <time>2015-12-27T13:19:11Z</time>
      </trkpt>
      <trkpt lat="49.92404" lon="2.2485">
        <ele>18.4</ele>
        <time>2015-12-27T13:19:13Z</time>
      </trkpt>
      <trkpt lat="49.92405" lon="2.24843">
        <ele>18.3</ele>
        <time>2015-12-27T13:19:16Z</time>
      </trkpt>
      <trkpt lat="49.92406" lon="2.24839">
        <ele>18.3</ele>
        <time>2015-12-27T13:19:18Z</time>
      </trkpt>
      <trkpt lat="49.92409" lon="2.24833">
        <ele>18.2</ele>
        <time>2015-12-27T13:19:21Z</time>
      </trkpt>
      <trkpt lat="49.9241" lon="2.24828">
        <ele>18.1</ele>
        <time>2015-12-27T13:19:24Z</time>
      </trkpt>
      <trkpt lat="49.92412" lon="2.24823">
        <ele>18.1</ele>
        <time>2015-12-27T13:19:26Z</time>
      </trkpt>
      <trkpt lat="49.92414" lon="2.24819">
        <ele>18.1</ele>
        <time>2015-12-27T13:19:29Z</time>
      </trkpt>
      <trkpt lat="49.92416" lon="2.24815">
        <ele>18</ele>
        <time>2015-12-27T13:19:30Z</time>
      </trkpt>
      <trkpt lat="49.92418" lon="2.2481">
        <ele>18</ele>
        <time>2015-12-27T13:19:33Z</time>
      </trkpt>
      <trkpt lat="49.92419" lon="2.24805">
        <ele>17.9</ele>
        <time>2015-12-27T13:19:36Z</time>
      </trkpt>
      <trkpt lat="49.92421" lon="2.248">
        <ele>17.9</ele>
        <time>2015-12-27T13:19:39Z</time>
      </trkpt>
      <trkpt lat="49.92423" lon="2.24795">
        <ele>17.8</ele>
        <time>2015-12-27T13:19:42Z</time>
      </trkpt>
      <trkpt lat="49.92425" lon="2.24789">
        <ele>17.8</ele>
        <time>2015-12-27T13:19:45Z</time>
      </trkpt>
      <trkpt lat="49.92426" lon="2.24785">
        <ele>17.9</ele>
        <time>2015-12-27T13:19:47Z</time>
      </trkpt>
      <trkpt lat="49.92427" lon="2.2478">
        <ele>18</ele>
        <time>2015-12-27T13:19:50Z</time>
      </trkpt>
      <trkpt lat="49.92428" lon="2.24775">
        <ele>18.1</ele>
        <time>2015-12-27T13:19:53Z</time>
      </trkpt>
      <trkpt lat="49.92429" lon="2.2477">
        <ele>18.1</ele>
        <time>2015-12-27T13:19:57Z</time>
      </trkpt>
      <trkpt lat="49.92431" lon="2.24764">
        <ele>18.2</ele>
        <time>2015-12-27T13:20:01Z</time>
      </trkpt>
      <trkpt lat="49.92431" lon="2.24759">
        <ele>18.3</ele>
        <time>2015-12-27T13:20:05Z</time>
      </trkpt>
      <trkpt lat="49.92432" lon="2.2475">
        <ele>18.4</ele>
        <time>2015-12-27T13:20:08Z</time>
      </trkpt>
      <trkpt lat="49.92432" lon="2.24746">
        <ele>18.4</ele>
        <time>2015-12-27T13:20:18Z</time>
      </trkpt>
      <trkpt lat="49.92433" lon="2.2474">
        <ele>18.5</ele>
        <time>2015-12-27T13:20:26Z</time>
      </trkpt>
      <trkpt lat="49.92433" lon="2.24735">
        <ele>18.5</ele>
        <time>2015-12-27T13:20:30Z</time>
      </trkpt>
      <trkpt lat="49.92435" lon="2.24731">
        <ele>18.6</ele>
        <time>2015-12-27T13:20:32Z</time>
      </trkpt>
      <trkpt lat="49.92435" lon="2.24726">
        <ele>18.6</ele>
        <time>2015-12-27T13:20:36Z</time>
      </trkpt>
      <trkpt lat="49.92436" lon="2.24722">
        <ele>18.6</ele>
        <time>2015-12-27T13:20:40Z</time>
      </trkpt>
      <trkpt lat="49.92437" lon="2.24718">
        <ele>18.7</ele>
        <time>2015-12-27T13:20:42Z</time>
      </trkpt>
      <trkpt lat="49.92439" lon="2.24714">
        <ele>18.7</ele>
        <time>2015-12-27T13:20:44Z</time>
      </trkpt>
      <trkpt lat="49.92441" lon="2.24709">
        <ele>18.8</ele>
        <time>2015-12-27T13:20:47Z</time>
      </trkpt>
      <trkpt lat="49.92442" lon="2.24706">
        <ele>18.8</ele>
        <time>2015-12-27T13:20:49Z</time>
      </trkpt>
      <trkpt lat="49.92441" lon="2.24701">
        <ele>18.8</ele>
        <time>2015-12-27T13:20:54Z</time>
      </trkpt>
      <trkpt lat="49.92439" lon="2.24695">
        <ele>18.8</ele>
        <time>2015-12-27T13:20:58Z</time>
      </trkpt>
      <trkpt lat="49.92439" lon="2.24689">
        <ele>18.8</ele>
        <time>2015-12-27T13:21:01Z</time>
      </trkpt>
      <trkpt lat="49.92439" lon="2.24685">
        <ele>18.8</ele>
        <time>2015-12-27T13:21:04Z</time>
      </trkpt>
      <trkpt lat="49.92439" lon="2.2468">
        <ele>18.8</ele>
        <time>2015-12-27T13:21:07Z</time>
      </trkpt>
      <trkpt lat="49.9244" lon="2.24675">
        <ele>18.8</ele>
        <time>2015-12-27T13:21:09Z</time>
      </trkpt>
      <trkpt lat="49.9244" lon="2.24669">
        <ele>18.8</ele>
        <time>2015-12-27T13:21:11Z</time>
      </trkpt>
      <trkpt lat="49.9244" lon="2.24665">
        <ele>18.8</ele>
        <time>2015-12-27T13:21:13Z</time>
      </trkpt>
      <trkpt lat="49.9244" lon="2.2466">
        <ele>18.8</ele>
        <time>2015-12-27T13:21:15Z</time>
      </trkpt>
      <trkpt lat="49.92441" lon="2.24654">
        <ele>18.8</ele>
        <time>2015-12-27T13:21:18Z</time>
      </trkpt>
      <trkpt lat="49.92441" lon="2.24649">
        <ele>18.8</ele>
        <time>2015-12-27T13:21:21Z</time>
      </trkpt>
      <trkpt lat="49.92441" lon="2.24643">
        <ele>18.8</ele>
        <time>2015-12-27T13:21:24Z</time>
      </trkpt>
      <trkpt lat="49.92441" lon="2.24639">
        <ele>18.8</ele>
        <time>2015-12-27T13:21:27Z</time>
      </trkpt>
      <trkpt lat="49.92444" lon="2.24624">
        <ele>18.8</ele>
        <time>2015-12-27T13:21:51Z</time>
      </trkpt>
      <trkpt lat="49.92443" lon="2.24619">
        <ele>18.7</ele>
        <time>2015-12-27T13:21:52Z</time>
      </trkpt>
      <trkpt lat="49.92444" lon="2.24613">
        <ele>18.7</ele>
        <time>2015-12-27T13:21:53Z</time>
      </trkpt>
      <trkpt lat="49.92443" lon="2.24607">
        <ele>18.6</ele>
        <time>2015-12-27T13:21:54Z</time>
      </trkpt>
      <trkpt lat="49.92443" lon="2.24601">
        <ele>18.5</ele>
        <time>2015-12-27T13:21:55Z</time>
      </trkpt>
      <trkpt lat="49.92442" lon="2.24595">
        <ele>18.4</ele>
        <time>2015-12-27T13:21:56Z</time>
      </trkpt>
      <trkpt lat="49.92444" lon="2.24591">
        <ele>18.3</ele>
        <time>2015-12-27T13:21:57Z</time>
      </trkpt>
      <trkpt lat="49.92446" lon="2.24583">
        <ele>18.3</ele>
        <time>2015-12-27T13:21:59Z</time>
      </trkpt>
      <trkpt lat="49.92447" lon="2.2458">
        <ele>18.3</ele>
        <time>2015-12-27T13:22:01Z</time>
      </trkpt>
      <trkpt lat="49.92448" lon="2.24575">
        <ele>18.2</ele>
        <time>2015-12-27T13:22:03Z</time>
      </trkpt>
      <trkpt lat="49.9245" lon="2.2457">
        <ele>18.2</ele>
        <time>2015-12-27T13:22:06Z</time>
      </trkpt>
      <trkpt lat="49.92451" lon="2.24565">
        <ele>18.1</ele>
        <time>2015-12-27T13:22:09Z</time>
      </trkpt>
      <trkpt lat="49.92453" lon="2.24561">
        <ele>18.1</ele>
        <time>2015-12-27T13:22:11Z</time>
      </trkpt>
      <trkpt lat="49.92454" lon="2.24555">
        <ele>18.1</ele>
        <time>2015-12-27T13:22:14Z</time>
      </trkpt>
      <trkpt lat="49.92455" lon="2.2455">
        <ele>18</ele>
        <time>2015-12-27T13:22:17Z</time>
      </trkpt>
      <trkpt lat="49.92456" lon="2.24545">
        <ele>18</ele>
        <time>2015-12-27T13:22:21Z</time>
      </trkpt>
      <trkpt lat="49.92458" lon="2.2454">
        <ele>18</ele>
        <time>2015-12-27T13:22:25Z</time>
      </trkpt>
      <trkpt lat="49.92459" lon="2.24536">
        <ele>18</ele>
        <time>2015-12-27T13:22:28Z</time>
      </trkpt>
      <trkpt lat="49.9246" lon="2.24531">
        <ele>18</ele>
        <time>2015-12-27T13:22:31Z</time>
      </trkpt>
      <trkpt lat="49.92462" lon="2.24526">
        <ele>18</ele>
        <time>2015-12-27T13:22:36Z</time>
      </trkpt>
      <trkpt lat="49.92462" lon="2.2452">
        <ele>17.9</ele>
        <time>2015-12-27T13:22:40Z</time>
      </trkpt>
      <trkpt lat="49.92464" lon="2.24514">
        <ele>18</ele>
        <time>2015-12-27T13:22:43Z</time>
      </trkpt>
      <trkpt lat="49.92466" lon="2.24509">
        <ele>18</ele>
        <time>2015-12-27T13:22:46Z</time>
      </trkpt>
      <trkpt lat="49.92467" lon="2.24505">
        <ele>18</ele>
        <time>2015-12-27T13:22:48Z</time>
      </trkpt>
      <trkpt lat="49.92469" lon="2.24501">
        <ele>18.1</ele>
        <time>2015-12-27T13:22:50Z</time>
      </trkpt>
      <trkpt lat="49.9247" lon="2.24498">
        <ele>18.1</ele>
        <time>2015-12-27T13:22:53Z</time>
      </trkpt>
      <trkpt lat="49.92472" lon="2.24493">
        <ele>18.2</ele>
        <time>2015-12-27T13:22:56Z</time>
      </trkpt>
      <trkpt lat="49.92473" lon="2.24487">
        <ele>18.2</ele>
        <time>2015-12-27T13:22:59Z</time>
      </trkpt>
      <trkpt lat="49.92474" lon="2.24481">
        <ele>18.2</ele>
        <time>2015-12-27T13:23:03Z</time>
      </trkpt>
      <trkpt lat="49.92475" lon="2.24476">
        <ele>18.2</ele>
        <time>2015-12-27T13:23:07Z</time>
      </trkpt>
      <trkpt lat="49.92475" lon="2.24472">
        <ele>18.1</ele>
        <time>2015-12-27T13:23:10Z</time>
      </trkpt>
      <trkpt lat="49.92477" lon="2.24468">
        <ele>18.2</ele>
        <time>2015-12-27T13:23:12Z</time>
      </trkpt>
      <trkpt lat="49.92477" lon="2.24464">
        <ele>18.2</ele>
        <time>2015-12-27T13:23:17Z</time>
      </trkpt>
      <trkpt lat="49.92481" lon="2.24455">
        <ele>18.4</ele>
        <time>2015-12-27T13:23:23Z</time>
      </trkpt>
      <trkpt lat="49.92483" lon="2.2445">
        <ele>18.5</ele>
        <time>2015-12-27T13:23:26Z</time>
      </trkpt>
      <trkpt lat="49.92486" lon="2.24445">
        <ele>18.6</ele>
        <time>2015-12-27T13:23:29Z</time>
      </trkpt>
      <trkpt lat="49.92489" lon="2.24441">
        <ele>18.8</ele>
        <time>2015-12-27T13:23:32Z</time>
      </trkpt>
      <trkpt lat="49.9249" lon="2.24436">
        <ele>18.8</ele>
        <time>2015-12-27T13:23:36Z</time>
      </trkpt>
      <trkpt lat="49.92492" lon="2.24432">
        <ele>18.9</ele>
        <time>2015-12-27T13:23:42Z</time>
      </trkpt>
      <trkpt lat="49.92494" lon="2.24427">
        <ele>19</ele>
        <time>2015-12-27T13:23:45Z</time>
      </trkpt>
      <trkpt lat="49.92495" lon="2.24423">
        <ele>19</ele>
        <time>2015-12-27T13:23:48Z</time>
      </trkpt>
      <trkpt lat="49.92498" lon="2.2442">
        <ele>19.1</ele>
        <time>2015-12-27T13:23:51Z</time>
      </trkpt>
      <trkpt lat="49.92498" lon="2.24416">
        <ele>19.1</ele>
        <time>2015-12-27T13:23:54Z</time>
      </trkpt>
      <trkpt lat="49.92499" lon="2.24411">
        <ele>19.2</ele>
        <time>2015-12-27T13:24:00Z</time>
      </trkpt>
      <trkpt lat="49.92501" lon="2.24406">
        <ele>19.2</ele>
        <time>2015-12-27T13:24:05Z</time>
      </trkpt>
      <trkpt lat="49.92502" lon="2.24402">
        <ele>19.3</ele>
        <time>2015-12-27T13:24:08Z</time>
      </trkpt>
      <trkpt lat="49.92504" lon="2.24397">
        <ele>19.3</ele>
        <time>2015-12-27T13:24:11Z</time>
      </trkpt>
      <trkpt lat="49.92504" lon="2.24392">
        <ele>19.3</ele>
        <time>2015-12-27T13:24:16Z</time>
      </trkpt>
      <trkpt lat="49.92504" lon="2.24387">
        <ele>19.3</ele>
        <time>2015-12-27T13:24:19Z</time>
      </trkpt>
      <trkpt lat="49.92507" lon="2.24382">
        <ele>19.4</ele>
        <time>2015-12-27T13:24:22Z</time>
      </trkpt>
      <trkpt lat="49.92509" lon="2.24379">
        <ele>19.4</ele>
        <time>2015-12-27T13:24:25Z</time>
      </trkpt>
      <trkpt lat="49.9251" lon="2.24375">
        <ele>19.5</ele>
        <time>2015-12-27T13:24:30Z</time>
      </trkpt>
      <trkpt lat="49.92511" lon="2.24371">
        <ele>19.5</ele>
        <time>2015-12-27T13:24:33Z</time>
      </trkpt>
      <trkpt lat="49.92513" lon="2.24367">
        <ele>19.5</ele>
        <time>2015-12-27T13:24:37Z</time>
      </trkpt>
      <trkpt lat="49.92514" lon="2.24362">
        <ele>19.5</ele>
        <time>2015-12-27T13:24:40Z</time>
      </trkpt>
      <trkpt lat="49.92516" lon="2.24357">
        <ele>19.5</ele>
        <time>2015-12-27T13:24:44Z</time>
      </trkpt>
      <trkpt lat="49.92517" lon="2.24352">
        <ele>19.4</ele>
        <time>2015-12-27T13:24:47Z</time>
      </trkpt>
      <trkpt lat="49.9252" lon="2.24347">
        <ele>19.4</ele>
        <time>2015-12-27T13:24:50Z</time>
      </trkpt>
      <trkpt lat="49.92522" lon="2.24343">
        <ele>19.4</ele>
        <time>2015-12-27T13:24:53Z</time>
      </trkpt>
      <trkpt lat="49.92522" lon="2.24338">
        <ele>19.4</ele>
        <time>2015-12-27T13:24:57Z</time>
      </trkpt>
      <trkpt lat="49.92522" lon="2.24333">
        <ele>19.3</ele>
        <time>2015-12-27T13:25:03Z</time>
      </trkpt>
      <trkpt lat="49.92524" lon="2.24329">
        <ele>19.3</ele>
        <time>2015-12-27T13:25:06Z</time>
      </trkpt>
      <trkpt lat="49.92524" lon="2.24324">
        <ele>19.2</ele>
        <time>2015-12-27T13:25:09Z</time>
      </trkpt>
      <trkpt lat="49.92525" lon="2.24319">
        <ele>19.1</ele>
        <time>2015-12-27T13:25:13Z</time>
      </trkpt>
      <trkpt lat="49.92527" lon="2.24315">
        <ele>19.1</ele>
        <time>2015-12-27T13:25:17Z</time>
      </trkpt>
      <trkpt lat="49.92528" lon="2.2431">
        <ele>19</ele>
        <time>2015-12-27T13:25:22Z</time>
      </trkpt>
      <trkpt lat="49.92529" lon="2.24304">
        <ele>18.9</ele>
        <time>2015-12-27T13:25:25Z</time>
      </trkpt>
      <trkpt lat="49.9253" lon="2.243">
        <ele>18.9</ele>
        <time>2015-12-27T13:25:28Z</time>
      </trkpt>
      <trkpt lat="49.92532" lon="2.24295">
        <ele>18.8</ele>
        <time>2015-12-27T13:25:30Z</time>
      </trkpt>
      <trkpt lat="49.92533" lon="2.2429">
        <ele>18.8</ele>
        <time>2015-12-27T13:25:33Z</time>
      </trkpt>
      <trkpt lat="49.92534" lon="2.24285">
        <ele>18.7</ele>
        <time>2015-12-27T13:25:38Z</time>
      </trkpt>
      <trkpt lat="49.92535" lon="2.2428">
        <ele>18.7</ele>
        <time>2015-12-27T13:25:41Z</time>
      </trkpt>
      <trkpt lat="49.92537" lon="2.24275">
        <ele>18.7</ele>
        <time>2015-12-27T13:25:43Z</time>
      </trkpt>
      <trkpt lat="49.9254" lon="2.2427">
        <ele>18.7</ele>
        <time>2015-12-27T13:25:46Z</time>
      </trkpt>
      <trkpt lat="49.92541" lon="2.24265">
        <ele>18.7</ele>
        <time>2015-12-27T13:25:48Z</time>
      </trkpt>
      <trkpt lat="49.92542" lon="2.2426">
        <ele>18.6</ele>
        <time>2015-12-27T13:25:52Z</time>
      </trkpt>
      <trkpt lat="49.92542" lon="2.24254">
        <ele>18.6</ele>
        <time>2015-12-27T13:25:55Z</time>
      </trkpt>
      <trkpt lat="49.92541" lon="2.24248">
        <ele>18.5</ele>
        <time>2015-12-27T13:25:58Z</time>
      </trkpt>
      <trkpt lat="49.92542" lon="2.24242">
        <ele>18.4</ele>
        <time>2015-12-27T13:26:02Z</time>
      </trkpt>
      <trkpt lat="49.92542" lon="2.24237">
        <ele>18.4</ele>
        <time>2015-12-27T13:26:06Z</time>
      </trkpt>
      <trkpt lat="49.92543" lon="2.24232">
        <ele>18.4</ele>
        <time>2015-12-27T13:26:09Z</time>
      </trkpt>
      <trkpt lat="49.92545" lon="2.24228">
        <ele>18.4</ele>
        <time>2015-12-27T13:26:10Z</time>
      </trkpt>
      <trkpt lat="49.92546" lon="2.24223">
        <ele>18.4</ele>
        <time>2015-12-27T13:26:12Z</time>
      </trkpt>
      <trkpt lat="49.92548" lon="2.24219">
        <ele>18.4</ele>
        <time>2015-12-27T13:26:14Z</time>
      </trkpt>
      <trkpt lat="49.92548" lon="2.24215">
        <ele>18.4</ele>
        <time>2015-12-27T13:26:17Z</time>
      </trkpt>
      <trkpt lat="49.92549" lon="2.24209">
        <ele>18.4</ele>
        <time>2015-12-27T13:26:21Z</time>
      </trkpt>
      <trkpt lat="49.92549" lon="2.24205">
        <ele>18.3</ele>
        <time>2015-12-27T13:26:24Z</time>
      </trkpt>
      <trkpt lat="49.92549" lon="2.242">
        <ele>18.2</ele>
        <time>2015-12-27T13:26:29Z</time>
      </trkpt>
      <trkpt lat="49.92548" lon="2.24195">
        <ele>18.2</ele>
        <time>2015-12-27T13:26:34Z</time>
      </trkpt>
      <trkpt lat="49.9255" lon="2.2419">
        <ele>18.2</ele>
        <time>2015-12-27T13:26:37Z</time>
      </trkpt>
      <trkpt lat="49.9255" lon="2.24185">
        <ele>18.1</ele>
        <time>2015-12-27T13:26:40Z</time>
      </trkpt>
      <trkpt lat="49.92551" lon="2.24181">
        <ele>18.1</ele>
        <time>2015-12-27T13:26:43Z</time>
      </trkpt>
      <trkpt lat="49.92554" lon="2.24177">
        <ele>18.2</ele>
        <time>2015-12-27T13:26:45Z</time>
      </trkpt>
      <trkpt lat="49.92554" lon="2.24172">
        <ele>18.2</ele>
        <time>2015-12-27T13:26:47Z</time>
      </trkpt>
      <trkpt lat="49.92555" lon="2.24168">
        <ele>18.2</ele>
        <time>2015-12-27T13:26:49Z</time>
      </trkpt>
      <trkpt lat="49.92556" lon="2.24163">
        <ele>18.1</ele>
        <time>2015-12-27T13:26:52Z</time>
      </trkpt>
      <trkpt lat="49.92556" lon="2.24158">
        <ele>18.1</ele>
        <time>2015-12-27T13:26:54Z</time>
      </trkpt>
      <trkpt lat="49.92556" lon="2.24154">
        <ele>18</ele>
        <time>2015-12-27T13:26:57Z</time>
      </trkpt>
      <trkpt lat="49.92557" lon="2.24148">
        <ele>18</ele>
        <time>2015-12-27T13:26:59Z</time>
      </trkpt>
      <trkpt lat="49.92557" lon="2.24143">
        <ele>18</ele>
        <time>2015-12-27T13:27:03Z</time>
      </trkpt>
      <trkpt lat="49.92558" lon="2.24137">
        <ele>17.9</ele>
        <time>2015-12-27T13:27:06Z</time>
      </trkpt>
      <trkpt lat="49.92559" lon="2.24131">
        <ele>17.9</ele>
        <time>2015-12-27T13:27:10Z</time>
      </trkpt>
      <trkpt lat="49.9256" lon="2.24126">
        <ele>17.9</ele>
        <time>2015-12-27T13:27:13Z</time>
      </trkpt>
      <trkpt lat="49.9256" lon="2.2412">
        <ele>18</ele>
        <time>2015-12-27T13:27:16Z</time>
      </trkpt>
      <trkpt lat="49.92562" lon="2.24115">
        <ele>18.1</ele>
        <time>2015-12-27T13:27:19Z</time>
      </trkpt>
      <trkpt lat="49.92562" lon="2.24111">
        <ele>18.2</ele>
        <time>2015-12-27T13:27:22Z</time>
      </trkpt>
      <trkpt lat="49.92564" lon="2.24106">
        <ele>18.3</ele>
        <time>2015-12-27T13:27:24Z</time>
      </trkpt>
      <trkpt lat="49.92566" lon="2.241">
        <ele>18.5</ele>
        <time>2015-12-27T13:27:29Z</time>
      </trkpt>
      <trkpt lat="49.92568" lon="2.24096">
        <ele>18.6</ele>
        <time>2015-12-27T13:27:32Z</time>
      </trkpt>
      <trkpt lat="49.92568" lon="2.24091">
        <ele>18.7</ele>
        <time>2015-12-27T13:27:35Z</time>
      </trkpt>
      <trkpt lat="49.9257" lon="2.24086">
        <ele>18.8</ele>
        <time>2015-12-27T13:27:38Z</time>
      </trkpt>
      <trkpt lat="49.92571" lon="2.24082">
        <ele>18.9</ele>
        <time>2015-12-27T13:27:41Z</time>
      </trkpt>
      <trkpt lat="49.92572" lon="2.24076">
        <ele>19</ele>
        <time>2015-12-27T13:27:45Z</time>
      </trkpt>
      <trkpt lat="49.92574" lon="2.24071">
        <ele>19.1</ele>
        <time>2015-12-27T13:27:50Z</time>
      </trkpt>
      <trkpt lat="49.92574" lon="2.24067">
        <ele>19.1</ele>
        <time>2015-12-27T13:27:53Z</time>
      </trkpt>
      <trkpt lat="49.92576" lon="2.24063">
        <ele>19.2</ele>
        <time>2015-12-27T13:27:56Z</time>
      </trkpt>
      <trkpt lat="49.92577" lon="2.24059">
        <ele>19.3</ele>
        <time>2015-12-27T13:28:00Z</time>
      </trkpt>
      <trkpt lat="49.92578" lon="2.24054">
        <ele>19.3</ele>
        <time>2015-12-27T13:28:05Z</time>
      </trkpt>
      <trkpt lat="49.9258" lon="2.24051">
        <ele>19.4</ele>
        <time>2015-12-27T13:28:08Z</time>
      </trkpt>
      <trkpt lat="49.92582" lon="2.24047">
        <ele>19.5</ele>
        <time>2015-12-27T13:28:11Z</time>
      </trkpt>
      <trkpt lat="49.92583" lon="2.24043">
        <ele>19.5</ele>
        <time>2015-12-27T13:28:14Z</time>
      </trkpt>
      <trkpt lat="49.92584" lon="2.24037">
        <ele>19.4</ele>
        <time>2015-12-27T13:28:17Z</time>
      </trkpt>
      <trkpt lat="49.92585" lon="2.24026">
        <ele>19.1</ele>
        <time>2015-12-27T13:28:24Z</time>
      </trkpt>
      <trkpt lat="49.92585" lon="2.2402">
        <ele>19</ele>
        <time>2015-12-27T13:28:28Z</time>
      </trkpt>
      <trkpt lat="49.92585" lon="2.24014">
        <ele>18.9</ele>
        <time>2015-12-27T13:28:32Z</time>
      </trkpt>
      <trkpt lat="49.92582" lon="2.24011">
        <ele>18.7</ele>
        <time>2015-12-27T13:28:36Z</time>
      </trkpt>
      <trkpt lat="49.92583" lon="2.24005">
        <ele>18.6</ele>
        <time>2015-12-27T13:28:40Z</time>
      </trkpt>
      <trkpt lat="49.92583" lon="2.24">
        <ele>18.5</ele>
        <time>2015-12-27T13:28:42Z</time>
      </trkpt>
      <trkpt lat="49.92582" lon="2.23995">
        <ele>18.4</ele>
        <time>2015-12-27T13:28:45Z</time>
      </trkpt>
      <trkpt lat="49.9258" lon="2.2399">
        <ele>18.2</ele>
        <time>2015-12-27T13:28:47Z</time>
      </trkpt>
      <trkpt lat="49.92579" lon="2.23986">
        <ele>18.1</ele>
        <time>2015-12-27T13:28:50Z</time>
      </trkpt>
      <trkpt lat="49.92577" lon="2.23981">
        <ele>18</ele>
        <time>2015-12-27T13:28:54Z</time>
      </trkpt>
      <trkpt lat="49.92577" lon="2.23976">
        <ele>17.9</ele>
        <time>2015-12-27T13:28:58Z</time>
      </trkpt>
      <trkpt lat="49.92578" lon="2.23971">
        <ele>17.7</ele>
        <time>2015-12-27T13:29:00Z</time>
      </trkpt>
      <trkpt lat="49.92579" lon="2.23965">
        <ele>17.6</ele>
        <time>2015-12-27T13:29:02Z</time>
      </trkpt>
      <trkpt lat="49.9258" lon="2.23959">
        <ele>17.5</ele>
        <time>2015-12-27T13:29:05Z</time>
      </trkpt>
      <trkpt lat="49.92581" lon="2.23954">
        <ele>17.5</ele>
        <time>2015-12-27T13:29:08Z</time>
      </trkpt>
      <trkpt lat="49.92581" lon="2.23949">
        <ele>17.6</ele>
        <time>2015-12-27T13:29:10Z</time>
      </trkpt>
      <trkpt lat="49.92581" lon="2.23944">
        <ele>17.6</ele>
        <time>2015-12-27T13:29:14Z</time>
      </trkpt>
      <trkpt lat="49.92582" lon="2.2394">
        <ele>17.7</ele>
        <time>2015-12-27T13:29:16Z</time>
      </trkpt>
      <trkpt lat="49.9258" lon="2.23936">
        <ele>17.7</ele>
        <time>2015-12-27T13:29:19Z</time>
      </trkpt>
      <trkpt lat="49.92579" lon="2.23932">
        <ele>17.7</ele>
        <time>2015-12-27T13:29:25Z</time>
      </trkpt>
      <trkpt lat="49.92578" lon="2.23926">
        <ele>17.8</ele>
        <time>2015-12-27T13:29:28Z</time>
      </trkpt>
      <trkpt lat="49.92578" lon="2.23922">
        <ele>17.8</ele>
        <time>2015-12-27T13:29:30Z</time>
      </trkpt>
      <trkpt lat="49.92578" lon="2.23917">
        <ele>17.9</ele>
        <time>2015-12-27T13:29:33Z</time>
      </trkpt>
      <trkpt lat="49.92579" lon="2.23911">
        <ele>18</ele>
        <time>2015-12-27T13:29:36Z</time>
      </trkpt>
      <trkpt lat="49.92579" lon="2.23906">
        <ele>18</ele>
        <time>2015-12-27T13:29:39Z</time>
      </trkpt>
      <trkpt lat="49.92579" lon="2.23901">
        <ele>18.1</ele>
        <time>2015-12-27T13:29:44Z</time>
      </trkpt>
      <trkpt lat="49.9258" lon="2.23895">
        <ele>18.2</ele>
        <time>2015-12-27T13:29:47Z</time>
      </trkpt>
      <trkpt lat="49.92581" lon="2.23891">
        <ele>18.2</ele>
        <time>2015-12-27T13:29:50Z</time>
      </trkpt>
      <trkpt lat="49.9258" lon="2.23885">
        <ele>18.3</ele>
        <time>2015-12-27T13:29:53Z</time>
      </trkpt>
      <trkpt lat="49.92582" lon="2.23881">
        <ele>18.4</ele>
        <time>2015-12-27T13:29:55Z</time>
      </trkpt>
      <trkpt lat="49.92583" lon="2.23876">
        <ele>18.5</ele>
        <time>2015-12-27T13:30:01Z</time>
      </trkpt>
      <trkpt lat="49.92584" lon="2.23871">
        <ele>18.5</ele>
        <time>2015-12-27T13:30:04Z</time>
      </trkpt>
      <trkpt lat="49.92585" lon="2.23865">
        <ele>18.6</ele>
        <time>2015-12-27T13:30:07Z</time>
      </trkpt>
      <trkpt lat="49.92585" lon="2.2386">
        <ele>18.5</ele>
        <time>2015-12-27T13:30:11Z</time>
      </trkpt>
      <trkpt lat="49.92586" lon="2.23856">
        <ele>18.6</ele>
        <time>2015-12-27T13:30:13Z</time>
      </trkpt>
      <trkpt lat="49.92584" lon="2.23853">
        <ele>18.5</ele>
        <time>2015-12-27T13:30:17Z</time>
      </trkpt>
      <trkpt lat="49.92584" lon="2.23846">
        <ele>18.5</ele>
        <time>2015-12-27T13:30:20Z</time>
      </trkpt>
      <trkpt lat="49.92585" lon="2.23842">
        <ele>18.5</ele>
        <time>2015-12-27T13:30:23Z</time>
      </trkpt>
      <trkpt lat="49.92586" lon="2.23838">
        <ele>18.6</ele>
        <time>2015-12-27T13:30:29Z</time>
      </trkpt>
      <trkpt lat="49.92588" lon="2.23831">
        <ele>18.6</ele>
        <time>2015-12-27T13:30:32Z</time>
      </trkpt>
      <trkpt lat="49.92588" lon="2.23827">
        <ele>18.6</ele>
        <time>2015-12-27T13:30:34Z</time>
      </trkpt>
      <trkpt lat="49.92587" lon="2.23822">
        <ele>18.6</ele>
        <time>2015-12-27T13:30:37Z</time>
      </trkpt>
      <trkpt lat="49.92588" lon="2.23817">
        <ele>18.6</ele>
        <time>2015-12-27T13:30:40Z</time>
      </trkpt>
      <trkpt lat="49.9259" lon="2.23811">
        <ele>18.6</ele>
        <time>2015-12-27T13:30:45Z</time>
      </trkpt>
      <trkpt lat="49.9259" lon="2.23806">
        <ele>18.6</ele>
        <time>2015-12-27T13:30:48Z</time>
      </trkpt>
      <trkpt lat="49.92591" lon="2.238">
        <ele>18.6</ele>
        <time>2015-12-27T13:30:50Z</time>
      </trkpt>
      <trkpt lat="49.92592" lon="2.23795">
        <ele>18.6</ele>
        <time>2015-12-27T13:30:54Z</time>
      </trkpt>
      <trkpt lat="49.92593" lon="2.23788">
        <ele>18.6</ele>
        <time>2015-12-27T13:30:57Z</time>
      </trkpt>
      <trkpt lat="49.92594" lon="2.23784">
        <ele>18.6</ele>
        <time>2015-12-27T13:30:58Z</time>
      </trkpt>
      <trkpt lat="49.92597" lon="2.23778">
        <ele>18.6</ele>
        <time>2015-12-27T13:31:01Z</time>
      </trkpt>
      <trkpt lat="49.92598" lon="2.23773">
        <ele>18.5</ele>
        <time>2015-12-27T13:31:04Z</time>
      </trkpt>
      <trkpt lat="49.926" lon="2.23766">
        <ele>18.5</ele>
        <time>2015-12-27T13:31:07Z</time>
      </trkpt>
      <trkpt lat="49.92599" lon="2.23761">
        <ele>18.4</ele>
        <time>2015-12-27T13:31:12Z</time>
      </trkpt>
      <trkpt lat="49.92598" lon="2.23757">
        <ele>18.4</ele>
        <time>2015-12-27T13:31:17Z</time>
      </trkpt>
      <trkpt lat="49.926" lon="2.23751">
        <ele>18.4</ele>
        <time>2015-12-27T13:31:21Z</time>
      </trkpt>
      <trkpt lat="49.926" lon="2.23746">
        <ele>18.3</ele>
        <time>2015-12-27T13:31:24Z</time>
      </trkpt>
      <trkpt lat="49.92601" lon="2.2374">
        <ele>18.3</ele>
        <time>2015-12-27T13:31:29Z</time>
      </trkpt>
      <trkpt lat="49.92602" lon="2.23736">
        <ele>18.2</ele>
        <time>2015-12-27T13:31:31Z</time>
      </trkpt>
      <trkpt lat="49.92603" lon="2.23731">
        <ele>18.2</ele>
        <time>2015-12-27T13:31:34Z</time>
      </trkpt>
      <trkpt lat="49.92604" lon="2.23726">
        <ele>18.2</ele>
        <time>2015-12-27T13:31:36Z</time>
      </trkpt>
      <trkpt lat="49.92605" lon="2.2372">
        <ele>18.1</ele>
        <time>2015-12-27T13:31:41Z</time>
      </trkpt>
      <trkpt lat="49.92606" lon="2.23716">
        <ele>18.1</ele>
        <time>2015-12-27T13:31:43Z</time>
      </trkpt>
      <trkpt lat="49.92606" lon="2.23712">
        <ele>18</ele>
        <time>2015-12-27T13:31:45Z</time>
      </trkpt>
      <trkpt lat="49.92606" lon="2.23706">
        <ele>18</ele>
        <time>2015-12-27T13:31:49Z</time>
      </trkpt>
      <trkpt lat="49.92607" lon="2.237">
        <ele>17.9</ele>
        <time>2015-12-27T13:31:52Z</time>
      </trkpt>
      <trkpt lat="49.9261" lon="2.23697">
        <ele>17.9</ele>
        <time>2015-12-27T13:31:54Z</time>
      </trkpt>
      <trkpt lat="49.92609" lon="2.23693">
        <ele>17.9</ele>
        <time>2015-12-27T13:31:57Z</time>
      </trkpt>
      <trkpt lat="49.9261" lon="2.23688">
        <ele>17.9</ele>
        <time>2015-12-27T13:31:59Z</time>
      </trkpt>
      <trkpt lat="49.92612" lon="2.23681">
        <ele>17.8</ele>
        <time>2015-12-27T13:32:02Z</time>
      </trkpt>
      <trkpt lat="49.92614" lon="2.23679">
        <ele>17.9</ele>
        <time>2015-12-27T13:32:05Z</time>
      </trkpt>
      <trkpt lat="49.92615" lon="2.23674">
        <ele>17.9</ele>
        <time>2015-12-27T13:32:08Z</time>
      </trkpt>
      <trkpt lat="49.92613" lon="2.2367">
        <ele>17.8</ele>
        <time>2015-12-27T13:32:11Z</time>
      </trkpt>
      <trkpt lat="49.92614" lon="2.23665">
        <ele>17.8</ele>
        <time>2015-12-27T13:32:13Z</time>
      </trkpt>
      <trkpt lat="49.92615" lon="2.2366">
        <ele>17.8</ele>
        <time>2015-12-27T13:32:16Z</time>
      </trkpt>
      <trkpt lat="49.92616" lon="2.23655">
        <ele>17.8</ele>
        <time>2015-12-27T13:32:18Z</time>
      </trkpt>
      <trkpt lat="49.92617" lon="2.23648">
        <ele>17.8</ele>
        <time>2015-12-27T13:32:23Z</time>
      </trkpt>
      <trkpt lat="49.92618" lon="2.23643">
        <ele>17.8</ele>
        <time>2015-12-27T13:32:26Z</time>
      </trkpt>
      <trkpt lat="49.92618" lon="2.23638">
        <ele>17.8</ele>
        <time>2015-12-27T13:32:30Z</time>
      </trkpt>
      <trkpt lat="49.9262" lon="2.23633">
        <ele>17.8</ele>
        <time>2015-12-27T13:32:35Z</time>
      </trkpt>
      <trkpt lat="49.92621" lon="2.23629">
        <ele>17.9</ele>
        <time>2015-12-27T13:32:37Z</time>
      </trkpt>
      <trkpt lat="49.92622" lon="2.23623">
        <ele>17.9</ele>
        <time>2015-12-27T13:32:41Z</time>
      </trkpt>
      <trkpt lat="49.92624" lon="2.23618">
        <ele>17.9</ele>
        <time>2015-12-27T13:32:47Z</time>
      </trkpt>
      <trkpt lat="49.92626" lon="2.23614">
        <ele>17.9</ele>
        <time>2015-12-27T13:32:49Z</time>
      </trkpt>
      <trkpt lat="49.92625" lon="2.23608">
        <ele>17.8</ele>
        <time>2015-12-27T13:32:52Z</time>
      </trkpt>
      <trkpt lat="49.92625" lon="2.23604">
        <ele>17.7</ele>
        <time>2015-12-27T13:32:55Z</time>
      </trkpt>
      <trkpt lat="49.92625" lon="2.23599">
        <ele>17.7</ele>
        <time>2015-12-27T13:32:58Z</time>
      </trkpt>
      <trkpt lat="49.92627" lon="2.23594">
        <ele>17.8</ele>
        <time>2015-12-27T13:33:02Z</time>
      </trkpt>
      <trkpt lat="49.9263" lon="2.2359">
        <ele>17.9</ele>
        <time>2015-12-27T13:33:09Z</time>
      </trkpt>
      <trkpt lat="49.92631" lon="2.23585">
        <ele>17.9</ele>
        <time>2015-12-27T13:33:11Z</time>
      </trkpt>
      <trkpt lat="49.92631" lon="2.2358">
        <ele>17.9</ele>
        <time>2015-12-27T13:33:16Z</time>
      </trkpt>
      <trkpt lat="49.92633" lon="2.23573">
        <ele>17.9</ele>
        <time>2015-12-27T13:33:19Z</time>
      </trkpt>
      <trkpt lat="49.92634" lon="2.23561">
        <ele>17.8</ele>
        <time>2015-12-27T13:33:27Z</time>
      </trkpt>
      <trkpt lat="49.92636" lon="2.23557">
        <ele>17.9</ele>
        <time>2015-12-27T13:33:28Z</time>
      </trkpt>
      <trkpt lat="49.92638" lon="2.2355">
        <ele>17.9</ele>
        <time>2015-12-27T13:33:31Z</time>
      </trkpt>
      <trkpt lat="49.9264" lon="2.23544">
        <ele>17.9</ele>
        <time>2015-12-27T13:33:34Z</time>
      </trkpt>
      <trkpt lat="49.9264" lon="2.23539">
        <ele>17.9</ele>
        <time>2015-12-27T13:33:37Z</time>
      </trkpt>
      <trkpt lat="49.9264" lon="2.23533">
        <ele>17.9</ele>
        <time>2015-12-27T13:33:41Z</time>
      </trkpt>
      <trkpt lat="49.92641" lon="2.23527">
        <ele>17.9</ele>
        <time>2015-12-27T13:33:45Z</time>
      </trkpt>
      <trkpt lat="49.92642" lon="2.2352">
        <ele>17.9</ele>
        <time>2015-12-27T13:33:49Z</time>
      </trkpt>
      <trkpt lat="49.92644" lon="2.23515">
        <ele>18</ele>
        <time>2015-12-27T13:33:52Z</time>
      </trkpt>
      <trkpt lat="49.92645" lon="2.2351">
        <ele>18</ele>
        <time>2015-12-27T13:33:56Z</time>
      </trkpt>
      <trkpt lat="49.92647" lon="2.23506">
        <ele>18.1</ele>
        <time>2015-12-27T13:34:00Z</time>
      </trkpt>
      <trkpt lat="49.92648" lon="2.23501">
        <ele>18.1</ele>
        <time>2015-12-27T13:34:03Z</time>
      </trkpt>
      <trkpt lat="49.92647" lon="2.23497">
        <ele>18</ele>
        <time>2015-12-27T13:34:07Z</time>
      </trkpt>
      <trkpt lat="49.92647" lon="2.23492">
        <ele>18</ele>
        <time>2015-12-27T13:34:09Z</time>
      </trkpt>
      <trkpt lat="49.92648" lon="2.23487">
        <ele>18</ele>
        <time>2015-12-27T13:34:12Z</time>
      </trkpt>
      <trkpt lat="49.92649" lon="2.23482">
        <ele>18</ele>
        <time>2015-12-27T13:34:15Z</time>
      </trkpt>
      <trkpt lat="49.92651" lon="2.23478">
        <ele>18.1</ele>
        <time>2015-12-27T13:34:19Z</time>
      </trkpt>
      <trkpt lat="49.92652" lon="2.23473">
        <ele>18.1</ele>
        <time>2015-12-27T13:34:21Z</time>
      </trkpt>
      <trkpt lat="49.92655" lon="2.23471">
        <ele>18.2</ele>
        <time>2015-12-27T13:34:25Z</time>
      </trkpt>
      <trkpt lat="49.92656" lon="2.23466">
        <ele>18.2</ele>
        <time>2015-12-27T13:34:34Z</time>
      </trkpt>
      <trkpt lat="49.92654" lon="2.23462">
        <ele>18.1</ele>
        <time>2015-12-27T13:34:37Z</time>
      </trkpt>
      <trkpt lat="49.92655" lon="2.23457">
        <ele>18.1</ele>
        <time>2015-12-27T13:34:41Z</time>
      </trkpt>
      <trkpt lat="49.92655" lon="2.23452">
        <ele>18</ele>
        <time>2015-12-27T13:34:44Z</time>
      </trkpt>
      <trkpt lat="49.92655" lon="2.23447">
        <ele>17.9</ele>
        <time>2015-12-27T13:34:54Z</time>
      </trkpt>
      <trkpt lat="49.92655" lon="2.23441">
        <ele>17.9</ele>
        <time>2015-12-27T13:34:57Z</time>
      </trkpt>
      <trkpt lat="49.92656" lon="2.23436">
        <ele>17.8</ele>
        <time>2015-12-27T13:35:00Z</time>
      </trkpt>
      <trkpt lat="49.92657" lon="2.23432">
        <ele>17.8</ele>
        <time>2015-12-27T13:35:06Z</time>
      </trkpt>
      <trkpt lat="49.92656" lon="2.23426">
        <ele>17.7</ele>
        <time>2015-12-27T13:35:10Z</time>
      </trkpt>
      <trkpt lat="49.92655" lon="2.23421">
        <ele>17.6</ele>
        <time>2015-12-27T13:35:13Z</time>
      </trkpt>
      <trkpt lat="49.92656" lon="2.23416">
        <ele>17.6</ele>
        <time>2015-12-27T13:35:16Z</time>
      </trkpt>
      <trkpt lat="49.92655" lon="2.23411">
        <ele>17.5</ele>
        <time>2015-12-27T13:35:19Z</time>
      </trkpt>
      <trkpt lat="49.92655" lon="2.23406">
        <ele>17.5</ele>
        <time>2015-12-27T13:35:23Z</time>
      </trkpt>
      <trkpt lat="49.92656" lon="2.23402">
        <ele>17.4</ele>
        <time>2015-12-27T13:35:26Z</time>
      </trkpt>
      <trkpt lat="49.92655" lon="2.23397">
        <ele>17.3</ele>
        <time>2015-12-27T13:35:29Z</time>
      </trkpt>
      <trkpt lat="49.92656" lon="2.2339">
        <ele>17.3</ele>
        <time>2015-12-27T13:35:33Z</time>
      </trkpt>
      <trkpt lat="49.92658" lon="2.23387">
        <ele>17.3</ele>
        <time>2015-12-27T13:35:39Z</time>
      </trkpt>
      <trkpt lat="49.92658" lon="2.23382">
        <ele>17.3</ele>
        <time>2015-12-27T13:35:53Z</time>
      </trkpt>
      <trkpt lat="49.92659" lon="2.23378">
        <ele>17.3</ele>
        <time>2015-12-27T13:35:55Z</time>
      </trkpt>
      <trkpt lat="49.92659" lon="2.23374">
        <ele>17.2</ele>
        <time>2015-12-27T13:35:58Z</time>
      </trkpt>
      <trkpt lat="49.92657" lon="2.2337">
        <ele>17</ele>
        <time>2015-12-27T13:36:04Z</time>
      </trkpt>
      <trkpt lat="49.92657" lon="2.23365">
        <ele>16.8</ele>
        <time>2015-12-27T13:36:07Z</time>
      </trkpt>
      <trkpt lat="49.92658" lon="2.23358">
        <ele>16.6</ele>
        <time>2015-12-27T13:36:11Z</time>
      </trkpt>
      <trkpt lat="49.92659" lon="2.23352">
        <ele>16.5</ele>
        <time>2015-12-27T13:36:13Z</time>
      </trkpt>
      <trkpt lat="49.92659" lon="2.23346">
        <ele>16.3</ele>
        <time>2015-12-27T13:36:16Z</time>
      </trkpt>
      <trkpt lat="49.9266" lon="2.2334">
        <ele>16.2</ele>
        <time>2015-12-27T13:36:19Z</time>
      </trkpt>
      <trkpt lat="49.9266" lon="2.23336">
        <ele>16.1</ele>
        <time>2015-12-27T13:36:21Z</time>
      </trkpt>
      <trkpt lat="49.92661" lon="2.23329">
        <ele>15.9</ele>
        <time>2015-12-27T13:36:24Z</time>
      </trkpt>
      <trkpt lat="49.9266" lon="2.23325">
        <ele>15.7</ele>
        <time>2015-12-27T13:36:27Z</time>
      </trkpt>
      <trkpt lat="49.92661" lon="2.2332">
        <ele>15.6</ele>
        <time>2015-12-27T13:36:30Z</time>
      </trkpt>
      <trkpt lat="49.92663" lon="2.23316">
        <ele>15.5</ele>
        <time>2015-12-27T13:36:32Z</time>
      </trkpt>
      <trkpt lat="49.92662" lon="2.23309">
        <ele>15.3</ele>
        <time>2015-12-27T13:36:35Z</time>
      </trkpt>
      <trkpt lat="49.92662" lon="2.23304">
        <ele>15.2</ele>
        <time>2015-12-27T13:36:39Z</time>
      </trkpt>
      <trkpt lat="49.92663" lon="2.23299">
        <ele>15</ele>
        <time>2015-12-27T13:36:43Z</time>
      </trkpt>
      <trkpt lat="49.92663" lon="2.23294">
        <ele>14.9</ele>
        <time>2015-12-27T13:36:46Z</time>
      </trkpt>
      <trkpt lat="49.92663" lon="2.23289">
        <ele>14.8</ele>
        <time>2015-12-27T13:36:50Z</time>
      </trkpt>
      <trkpt lat="49.92662" lon="2.23283">
        <ele>14.7</ele>
        <time>2015-12-27T13:36:54Z</time>
      </trkpt>
      <trkpt lat="49.92663" lon="2.23278">
        <ele>14.6</ele>
        <time>2015-12-27T13:36:56Z</time>
      </trkpt>
      <trkpt lat="49.92664" lon="2.23273">
        <ele>14.6</ele>
        <time>2015-12-27T13:36:58Z</time>
      </trkpt>
      <trkpt lat="49.92666" lon="2.2327">
        <ele>14.7</ele>
        <time>2015-12-27T13:37:01Z</time>
      </trkpt>
      <trkpt lat="49.92667" lon="2.23266">
        <ele>14.7</ele>
        <time>2015-12-27T13:37:03Z</time>
      </trkpt>
      <trkpt lat="49.92668" lon="2.23261">
        <ele>14.7</ele>
        <time>2015-12-27T13:37:05Z</time>
      </trkpt>
      <trkpt lat="49.92669" lon="2.23257">
        <ele>14.7</ele>
        <time>2015-12-27T13:37:09Z</time>
      </trkpt>
      <trkpt lat="49.9267" lon="2.23253">
        <ele>14.7</ele>
        <time>2015-12-27T13:37:11Z</time>
      </trkpt>
      <trkpt lat="49.9267" lon="2.23249">
        <ele>14.7</ele>
        <time>2015-12-27T13:37:13Z</time>
      </trkpt>
      <trkpt lat="49.92671" lon="2.23245">
        <ele>14.7</ele>
        <time>2015-12-27T13:37:15Z</time>
      </trkpt>
      <trkpt lat="49.92672" lon="2.2324">
        <ele>14.7</ele>
        <time>2015-12-27T13:37:18Z</time>
      </trkpt>
      <trkpt lat="49.92673" lon="2.23236">
        <ele>14.7</ele>
        <time>2015-12-27T13:37:23Z</time>
      </trkpt>
      <trkpt lat="49.92675" lon="2.23229">
        <ele>14.8</ele>
        <time>2015-12-27T13:37:28Z</time>
      </trkpt>
      <trkpt lat="49.92677" lon="2.23223">
        <ele>14.9</ele>
        <time>2015-12-27T13:37:31Z</time>
      </trkpt>
      <trkpt lat="49.92679" lon="2.23219">
        <ele>15</ele>
        <time>2015-12-27T13:37:35Z</time>
      </trkpt>
      <trkpt lat="49.92679" lon="2.23214">
        <ele>15</ele>
        <time>2015-12-27T13:37:39Z</time>
      </trkpt>
      <trkpt lat="49.9268" lon="2.2321">
        <ele>15</ele>
        <time>2015-12-27T13:37:42Z</time>
      </trkpt>
      <trkpt lat="49.92682" lon="2.23206">
        <ele>15.1</ele>
        <time>2015-12-27T13:37:44Z</time>
      </trkpt>
      <trkpt lat="49.92683" lon="2.23202">
        <ele>15.2</ele>
        <time>2015-12-27T13:37:47Z</time>
      </trkpt>
      <trkpt lat="49.92684" lon="2.23197">
        <ele>15.2</ele>
        <time>2015-12-27T13:37:49Z</time>
      </trkpt>
      <trkpt lat="49.92685" lon="2.23193">
        <ele>15.3</ele>
        <time>2015-12-27T13:37:51Z</time>
      </trkpt>
      <trkpt lat="49.92686" lon="2.23188">
        <ele>15.3</ele>
        <time>2015-12-27T13:37:55Z</time>
      </trkpt>
      <trkpt lat="49.92689" lon="2.23181">
        <ele>15.5</ele>
        <time>2015-12-27T13:37:59Z</time>
      </trkpt>
      <trkpt lat="49.92688" lon="2.23175">
        <ele>15.4</ele>
        <time>2015-12-27T13:38:02Z</time>
      </trkpt>
      <trkpt lat="49.92686" lon="2.2317">
        <ele>15.3</ele>
        <time>2015-12-27T13:38:05Z</time>
      </trkpt>
      <trkpt lat="49.92684" lon="2.23166">
        <ele>15.1</ele>
        <time>2015-12-27T13:38:12Z</time>
      </trkpt>
      <trkpt lat="49.92681" lon="2.23163">
        <ele>14.9</ele>
        <time>2015-12-27T13:38:14Z</time>
      </trkpt>
      <trkpt lat="49.9268" lon="2.23159">
        <ele>14.8</ele>
        <time>2015-12-27T13:38:17Z</time>
      </trkpt>
      <trkpt lat="49.92674" lon="2.23149">
        <ele>14.2</ele>
        <time>2015-12-27T13:38:26Z</time>
      </trkpt>
      <trkpt lat="49.9267" lon="2.23147">
        <ele>13.9</ele>
        <time>2015-12-27T13:38:27Z</time>
      </trkpt>
      <trkpt lat="49.9267" lon="2.23142">
        <ele>13.9</ele>
        <time>2015-12-27T13:38:29Z</time>
      </trkpt>
      <trkpt lat="49.92668" lon="2.23139">
        <ele>13.7</ele>
        <time>2015-12-27T13:38:32Z</time>
      </trkpt>
      <trkpt lat="49.92665" lon="2.23138">
        <ele>13.4</ele>
        <time>2015-12-27T13:38:35Z</time>
      </trkpt>
      <trkpt lat="49.92663" lon="2.23135">
        <ele>13.2</ele>
        <time>2015-12-27T13:38:39Z</time>
      </trkpt>
      <trkpt lat="49.92659" lon="2.23134">
        <ele>12.9</ele>
        <time>2015-12-27T13:38:45Z</time>
      </trkpt>
      <trkpt lat="49.92656" lon="2.23132">
        <ele>12.7</ele>
        <time>2015-12-27T13:38:48Z</time>
      </trkpt>
      <trkpt lat="49.92653" lon="2.23132">
        <ele>12.4</ele>
        <time>2015-12-27T13:38:51Z</time>
      </trkpt>
      <trkpt lat="49.92653" lon="2.23128">
        <ele>12.4</ele>
        <time>2015-12-27T13:38:53Z</time>
      </trkpt>
      <trkpt lat="49.92652" lon="2.23123">
        <ele>12.3</ele>
        <time>2015-12-27T13:38:56Z</time>
      </trkpt>
      <trkpt lat="49.92652" lon="2.23118">
        <ele>12.4</ele>
        <time>2015-12-27T13:38:59Z</time>
      </trkpt>
      <trkpt lat="49.92654" lon="2.23114">
        <ele>12.5</ele>
        <time>2015-12-27T13:39:01Z</time>
      </trkpt>
      <trkpt lat="49.92652" lon="2.2311">
        <ele>12.4</ele>
        <time>2015-12-27T13:39:05Z</time>
      </trkpt>
      <trkpt lat="49.92652" lon="2.23105">
        <ele>12.5</ele>
        <time>2015-12-27T13:39:07Z</time>
      </trkpt>
      <trkpt lat="49.92654" lon="2.23101">
        <ele>12.7</ele>
        <time>2015-12-27T13:39:09Z</time>
      </trkpt>
      <trkpt lat="49.92655" lon="2.23096">
        <ele>12.8</ele>
        <time>2015-12-27T13:39:12Z</time>
      </trkpt>
      <trkpt lat="49.92654" lon="2.23091">
        <ele>12.8</ele>
        <time>2015-12-27T13:39:15Z</time>
      </trkpt>
      <trkpt lat="49.92655" lon="2.23086">
        <ele>13</ele>
        <time>2015-12-27T13:39:20Z</time>
      </trkpt>
      <trkpt lat="49.92656" lon="2.2308">
        <ele>13.1</ele>
        <time>2015-12-27T13:39:24Z</time>
      </trkpt>
      <trkpt lat="49.92657" lon="2.23073">
        <ele>13.2</ele>
        <time>2015-12-27T13:39:29Z</time>
      </trkpt>
      <trkpt lat="49.92658" lon="2.23069">
        <ele>13.3</ele>
        <time>2015-12-27T13:39:31Z</time>
      </trkpt>
      <trkpt lat="49.92658" lon="2.23064">
        <ele>13.4</ele>
        <time>2015-12-27T13:39:35Z</time>
      </trkpt>
      <trkpt lat="49.9266" lon="2.2306">
        <ele>13.5</ele>
        <time>2015-12-27T13:39:37Z</time>
      </trkpt>
      <trkpt lat="49.9266" lon="2.23054">
        <ele>13.6</ele>
        <time>2015-12-27T13:39:41Z</time>
      </trkpt>
      <trkpt lat="49.92661" lon="2.2305">
        <ele>13.7</ele>
        <time>2015-12-27T13:39:44Z</time>
      </trkpt>
      <trkpt lat="49.92661" lon="2.23045">
        <ele>13.7</ele>
        <time>2015-12-27T13:39:48Z</time>
      </trkpt>
      <trkpt lat="49.92662" lon="2.23039">
        <ele>13.8</ele>
        <time>2015-12-27T13:39:53Z</time>
      </trkpt>
      <trkpt lat="49.92662" lon="2.23034">
        <ele>13.8</ele>
        <time>2015-12-27T13:39:56Z</time>
      </trkpt>
      <trkpt lat="49.92663" lon="2.23029">
        <ele>13.9</ele>
        <time>2015-12-27T13:39:58Z</time>
      </trkpt>
      <trkpt lat="49.92664" lon="2.23025">
        <ele>14</ele>
        <time>2015-12-27T13:40:01Z</time>
      </trkpt>
      <trkpt lat="49.92666" lon="2.23019">
        <ele>14.1</ele>
        <time>2015-12-27T13:40:04Z</time>
      </trkpt>
      <trkpt lat="49.92667" lon="2.23014">
        <ele>14.2</ele>
        <time>2015-12-27T13:40:07Z</time>
      </trkpt>
      <trkpt lat="49.92668" lon="2.2301">
        <ele>14.3</ele>
        <time>2015-12-27T13:40:10Z</time>
      </trkpt>
      <trkpt lat="49.92668" lon="2.23005">
        <ele>14.3</ele>
        <time>2015-12-27T13:40:13Z</time>
      </trkpt>
      <trkpt lat="49.9267" lon="2.23">
        <ele>14.4</ele>
        <time>2015-12-27T13:40:18Z</time>
      </trkpt>
      <trkpt lat="49.92671" lon="2.22996">
        <ele>14.4</ele>
        <time>2015-12-27T13:40:21Z</time>
      </trkpt>
      <trkpt lat="49.92671" lon="2.22991">
        <ele>14.5</ele>
        <time>2015-12-27T13:40:24Z</time>
      </trkpt>
      <trkpt lat="49.92671" lon="2.22986">
        <ele>14.5</ele>
        <time>2015-12-27T13:40:27Z</time>
      </trkpt>
      <trkpt lat="49.92672" lon="2.22981">
        <ele>14.6</ele>
        <time>2015-12-27T13:40:30Z</time>
      </trkpt>
      <trkpt lat="49.92672" lon="2.22975">
        <ele>14.6</ele>
        <time>2015-12-27T13:40:34Z</time>
      </trkpt>
      <trkpt lat="49.92672" lon="2.22971">
        <ele>14.6</ele>
        <time>2015-12-27T13:40:38Z</time>
      </trkpt>
      <trkpt lat="49.92674" lon="2.22967">
        <ele>14.7</ele>
        <time>2015-12-27T13:40:41Z</time>
      </trkpt>
      <trkpt lat="49.92676" lon="2.22963">
        <ele>14.8</ele>
        <time>2015-12-27T13:40:44Z</time>
      </trkpt>
      <trkpt lat="49.92678" lon="2.22959">
        <ele>14.9</ele>
        <time>2015-12-27T13:40:47Z</time>
      </trkpt>
      <trkpt lat="49.92679" lon="2.22955">
        <ele>14.9</ele>
        <time>2015-12-27T13:40:50Z</time>
      </trkpt>
      <trkpt lat="49.9268" lon="2.22951">
        <ele>14.9</ele>
        <time>2015-12-27T13:40:54Z</time>
      </trkpt>
      <trkpt lat="49.92681" lon="2.22947">
        <ele>15</ele>
        <time>2015-12-27T13:41:05Z</time>
      </trkpt>
      <trkpt lat="49.92684" lon="2.22943">
        <ele>15</ele>
        <time>2015-12-27T13:41:09Z</time>
      </trkpt>
      <trkpt lat="49.92685" lon="2.22938">
        <ele>15.1</ele>
        <time>2015-12-27T13:41:12Z</time>
      </trkpt>
      <trkpt lat="49.92687" lon="2.22932">
        <ele>15.1</ele>
        <time>2015-12-27T13:41:15Z</time>
      </trkpt>
      <trkpt lat="49.92688" lon="2.22928">
        <ele>15.1</ele>
        <time>2015-12-27T13:41:18Z</time>
      </trkpt>
      <trkpt lat="49.92689" lon="2.22924">
        <ele>15.1</ele>
        <time>2015-12-27T13:41:21Z</time>
      </trkpt>
      <trkpt lat="49.92689" lon="2.22919">
        <ele>15.1</ele>
        <time>2015-12-27T13:41:24Z</time>
      </trkpt>
      <trkpt lat="49.9269" lon="2.22915">
        <ele>15</ele>
        <time>2015-12-27T13:41:27Z</time>
      </trkpt>
      <trkpt lat="49.9269" lon="2.22909">
        <ele>15</ele>
        <time>2015-12-27T13:41:30Z</time>
      </trkpt>
      <trkpt lat="49.9269" lon="2.22905">
        <ele>15</ele>
        <time>2015-12-27T13:41:33Z</time>
      </trkpt>
      <trkpt lat="49.92693" lon="2.22901">
        <ele>15</ele>
        <time>2015-12-27T13:41:35Z</time>
      </trkpt>
      <trkpt lat="49.92694" lon="2.22897">
        <ele>15</ele>
        <time>2015-12-27T13:41:39Z</time>
      </trkpt>
      <trkpt lat="49.92694" lon="2.22892">
        <ele>15</ele>
        <time>2015-12-27T13:41:43Z</time>
      </trkpt>
      <trkpt lat="49.92696" lon="2.22887">
        <ele>14.9</ele>
        <time>2015-12-27T13:41:47Z</time>
      </trkpt>
      <trkpt lat="49.92695" lon="2.22882">
        <ele>14.9</ele>
        <time>2015-12-27T13:41:50Z</time>
      </trkpt>
      <trkpt lat="49.92696" lon="2.22877">
        <ele>14.9</ele>
        <time>2015-12-27T13:41:54Z</time>
      </trkpt>
      <trkpt lat="49.92698" lon="2.22872">
        <ele>14.9</ele>
        <time>2015-12-27T13:41:57Z</time>
      </trkpt>
      <trkpt lat="49.927" lon="2.22868">
        <ele>14.9</ele>
        <time>2015-12-27T13:42:01Z</time>
      </trkpt>
      <trkpt lat="49.92699" lon="2.22864">
        <ele>14.9</ele>
        <time>2015-12-27T13:42:16Z</time>
      </trkpt>
      <trkpt lat="49.92698" lon="2.2286">
        <ele>14.9</ele>
        <time>2015-12-27T13:42:21Z</time>
      </trkpt>
      <trkpt lat="49.92696" lon="2.22857">
        <ele>14.9</ele>
        <time>2015-12-27T13:42:26Z</time>
      </trkpt>
      <trkpt lat="49.92695" lon="2.22853">
        <ele>14.9</ele>
        <time>2015-12-27T13:42:33Z</time>
      </trkpt>
      <trkpt lat="49.92694" lon="2.22849">
        <ele>14.9</ele>
        <time>2015-12-27T13:42:41Z</time>
      </trkpt>
      <trkpt lat="49.92691" lon="2.22846">
        <ele>14.9</ele>
        <time>2015-12-27T13:42:48Z</time>
      </trkpt>
      <trkpt lat="49.92688" lon="2.22844">
        <ele>14.8</ele>
        <time>2015-12-27T13:42:51Z</time>
      </trkpt>
      <trkpt lat="49.92685" lon="2.22843">
        <ele>14.8</ele>
        <time>2015-12-27T13:42:55Z</time>
      </trkpt>
      <trkpt lat="49.92683" lon="2.22841">
        <ele>14.8</ele>
        <time>2015-12-27T13:42:59Z</time>
      </trkpt>
      <trkpt lat="49.9268" lon="2.22839">
        <ele>14.8</ele>
        <time>2015-12-27T13:43:03Z</time>
      </trkpt>
      <trkpt lat="49.92678" lon="2.22837">
        <ele>14.8</ele>
        <time>2015-12-27T13:43:07Z</time>
      </trkpt>
      <trkpt lat="49.92675" lon="2.22834">
        <ele>14.8</ele>
        <time>2015-12-27T13:43:10Z</time>
      </trkpt>
      <trkpt lat="49.92672" lon="2.22832">
        <ele>14.8</ele>
        <time>2015-12-27T13:43:14Z</time>
      </trkpt>
      <trkpt lat="49.9267" lon="2.2283">
        <ele>14.8</ele>
        <time>2015-12-27T13:43:16Z</time>
      </trkpt>
      <trkpt lat="49.92667" lon="2.22827">
        <ele>14.8</ele>
        <time>2015-12-27T13:43:19Z</time>
      </trkpt>
      <trkpt lat="49.92656" lon="2.22815">
        <ele>14.8</ele>
        <time>2015-12-27T13:43:36Z</time>
      </trkpt>
      <trkpt lat="49.92651" lon="2.22815">
        <ele>14.8</ele>
        <time>2015-12-27T13:43:37Z</time>
      </trkpt>
      <trkpt lat="49.92647" lon="2.22813">
        <ele>14.8</ele>
        <time>2015-12-27T13:43:41Z</time>
      </trkpt>
      <trkpt lat="49.92645" lon="2.22809">
        <ele>14.8</ele>
        <time>2015-12-27T13:43:45Z</time>
      </trkpt>
      <trkpt lat="49.92642" lon="2.22806">
        <ele>14.9</ele>
        <time>2015-12-27T13:43:50Z</time>
      </trkpt>
      <trkpt lat="49.9264" lon="2.22804">
        <ele>14.9</ele>
        <time>2015-12-27T13:43:54Z</time>
      </trkpt>
      <trkpt lat="49.92637" lon="2.22802">
        <ele>14.9</ele>
        <time>2015-12-27T13:43:58Z</time>
      </trkpt>
      <trkpt lat="49.92634" lon="2.228">
        <ele>14.9</ele>
        <time>2015-12-27T13:44:02Z</time>
      </trkpt>
      <trkpt lat="49.92631" lon="2.22797">
        <ele>14.9</ele>
        <time>2015-12-27T13:44:06Z</time>
      </trkpt>
      <trkpt lat="49.92628" lon="2.22797">
        <ele>14.9</ele>
        <time>2015-12-27T13:44:09Z</time>
      </trkpt>
      <trkpt lat="49.92626" lon="2.22794">
        <ele>15</ele>
        <time>2015-12-27T13:44:14Z</time>
      </trkpt>
      <trkpt lat="49.92624" lon="2.22791">
        <ele>14.9</ele>
        <time>2015-12-27T13:44:17Z</time>
      </trkpt>
      <trkpt lat="49.92622" lon="2.22787">
        <ele>14.8</ele>
        <time>2015-12-27T13:44:20Z</time>
      </trkpt>
      <trkpt lat="49.92621" lon="2.22784">
        <ele>14.7</ele>
        <time>2015-12-27T13:44:22Z</time>
      </trkpt>
      <trkpt lat="49.92618" lon="2.22781">
        <ele>14.5</ele>
        <time>2015-12-27T13:44:27Z</time>
      </trkpt>
      <trkpt lat="49.92617" lon="2.22776">
        <ele>14.4</ele>
        <time>2015-12-27T13:44:30Z</time>
      </trkpt>
      <trkpt lat="49.92616" lon="2.22772">
        <ele>14.4</ele>
        <time>2015-12-27T13:44:36Z</time>
      </trkpt>
      <trkpt lat="49.92617" lon="2.22767">
        <ele>14.5</ele>
        <time>2015-12-27T13:44:40Z</time>
      </trkpt>
      <trkpt lat="49.92615" lon="2.22763">
        <ele>14.4</ele>
        <time>2015-12-27T13:44:54Z</time>
      </trkpt>
      <trkpt lat="49.92615" lon="2.22755">
        <ele>14.4</ele>
        <time>2015-12-27T13:46:12Z</time>
      </trkpt>
      <trkpt lat="49.92613" lon="2.22759">
        <ele>14.3</ele>
        <time>2015-12-27T13:46:25Z</time>
      </trkpt>
      <trkpt lat="49.92617" lon="2.22753">
        <ele>14.5</ele>
        <time>2015-12-27T13:47:08Z</time>
      </trkpt>
      <trkpt lat="49.92619" lon="2.22757">
        <ele>14.6</ele>
        <time>2015-12-27T13:47:17Z</time>
      </trkpt>
      <trkpt lat="49.92622" lon="2.22759">
        <ele>14.8</ele>
        <time>2015-12-27T13:47:22Z</time>
      </trkpt>
      <trkpt lat="49.9262" lon="2.22755">
        <ele>14.7</ele>
        <time>2015-12-27T13:47:27Z</time>
      </trkpt>
      <trkpt lat="49.9262" lon="2.2275">
        <ele>14.7</ele>
        <time>2015-12-27T13:47:34Z</time>
      </trkpt>
      <trkpt lat="49.92621" lon="2.22746">
        <ele>14.8</ele>
        <time>2015-12-27T13:47:45Z</time>
      </trkpt>
      <trkpt lat="49.92625" lon="2.22743">
        <ele>15</ele>
        <time>2015-12-27T13:47:50Z</time>
      </trkpt>
      <trkpt lat="49.92625" lon="2.22737">
        <ele>15</ele>
        <time>2015-12-27T13:47:56Z</time>
      </trkpt>
      <trkpt lat="49.92626" lon="2.22732">
        <ele>15</ele>
        <time>2015-12-27T13:48:00Z</time>
      </trkpt>
      <trkpt lat="49.92628" lon="2.22728">
        <ele>15</ele>
        <time>2015-12-27T13:48:04Z</time>
      </trkpt>
      <trkpt lat="49.92629" lon="2.22725">
        <ele>15</ele>
        <time>2015-12-27T13:48:06Z</time>
      </trkpt>
      <trkpt lat="49.92631" lon="2.22719">
        <ele>14.9</ele>
        <time>2015-12-27T13:48:10Z</time>
      </trkpt>
      <trkpt lat="49.92633" lon="2.22714">
        <ele>14.9</ele>
        <time>2015-12-27T13:48:15Z</time>
      </trkpt>
      <trkpt lat="49.92632" lon="2.2271">
        <ele>14.9</ele>
        <time>2015-12-27T13:48:21Z</time>
      </trkpt>
      <trkpt lat="49.92635" lon="2.22705">
        <ele>14.9</ele>
        <time>2015-12-27T13:48:25Z</time>
      </trkpt>
      <trkpt lat="49.92636" lon="2.22701">
        <ele>14.8</ele>
        <time>2015-12-27T13:48:30Z</time>
      </trkpt>
      <trkpt lat="49.92638" lon="2.22695">
        <ele>14.7</ele>
        <time>2015-12-27T13:48:36Z</time>
      </trkpt>
      <trkpt lat="49.92639" lon="2.2269">
        <ele>14.7</ele>
        <time>2015-12-27T13:48:39Z</time>
      </trkpt>
      <trkpt lat="49.92639" lon="2.22684">
        <ele>14.6</ele>
        <time>2015-12-27T13:48:44Z</time>
      </trkpt>
      <trkpt lat="49.9264" lon="2.22679">
        <ele>14.6</ele>
        <time>2015-12-27T13:48:47Z</time>
      </trkpt>
      <trkpt lat="49.92642" lon="2.22674">
        <ele>14.5</ele>
        <time>2015-12-27T13:48:50Z</time>
      </trkpt>
      <trkpt lat="49.92644" lon="2.22669">
        <ele>14.5</ele>
        <time>2015-12-27T13:48:52Z</time>
      </trkpt>
      <trkpt lat="49.92646" lon="2.22663">
        <ele>14.5</ele>
        <time>2015-12-27T13:48:54Z</time>
      </trkpt>
      <trkpt lat="49.92649" lon="2.22658">
        <ele>14.5</ele>
        <time>2015-12-27T13:48:58Z</time>
      </trkpt>
      <trkpt lat="49.92651" lon="2.22651">
        <ele>14.4</ele>
        <time>2015-12-27T13:49:00Z</time>
      </trkpt>
      <trkpt lat="49.92652" lon="2.22645">
        <ele>14.4</ele>
        <time>2015-12-27T13:49:01Z</time>
      </trkpt>
      <trkpt lat="49.92653" lon="2.22641">
        <ele>14.4</ele>
        <time>2015-12-27T13:49:02Z</time>
      </trkpt>
      <trkpt lat="49.92654" lon="2.22636">
        <ele>14.4</ele>
        <time>2015-12-27T13:49:05Z</time>
      </trkpt>
      <trkpt lat="49.92656" lon="2.22633">
        <ele>14.4</ele>
        <time>2015-12-27T13:49:09Z</time>
      </trkpt>
      <trkpt lat="49.92658" lon="2.2263">
        <ele>14.4</ele>
        <time>2015-12-27T13:49:13Z</time>
      </trkpt>
      <trkpt lat="49.92657" lon="2.22626">
        <ele>14.4</ele>
        <time>2015-12-27T13:49:21Z</time>
      </trkpt>
      <trkpt lat="49.92656" lon="2.22621">
        <ele>14.4</ele>
        <time>2015-12-27T13:49:26Z</time>
      </trkpt>
      <trkpt lat="49.92654" lon="2.22619">
        <ele>14.4</ele>
        <time>2015-12-27T13:49:31Z</time>
      </trkpt>
      <trkpt lat="49.92648" lon="2.22613">
        <ele>14.4</ele>
        <time>2015-12-27T13:52:18Z</time>
      </trkpt>
      <trkpt lat="49.92647" lon="2.22609">
        <ele>14.5</ele>
        <time>2015-12-27T13:52:26Z</time>
      </trkpt>
      <trkpt lat="49.92644" lon="2.22609">
        <ele>14.4</ele>
        <time>2015-12-27T13:52:29Z</time>
      </trkpt>
      <trkpt lat="49.92641" lon="2.22608">
        <ele>14.4</ele>
        <time>2015-12-27T13:52:31Z</time>
      </trkpt>
      <trkpt lat="49.92638" lon="2.22606">
        <ele>14.4</ele>
        <time>2015-12-27T13:52:33Z</time>
      </trkpt>
      <trkpt lat="49.92635" lon="2.22603">
        <ele>14.4</ele>
        <time>2015-12-27T13:52:36Z</time>
      </trkpt>
      <trkpt lat="49.92634" lon="2.22599">
        <ele>14.4</ele>
        <time>2015-12-27T13:52:38Z</time>
      </trkpt>
      <trkpt lat="49.92632" lon="2.22595">
        <ele>14.4</ele>
        <time>2015-12-27T13:52:42Z</time>
      </trkpt>
      <trkpt lat="49.92629" lon="2.22592">
        <ele>14.4</ele>
        <time>2015-12-27T13:52:45Z</time>
      </trkpt>
      <trkpt lat="49.92627" lon="2.2259">
        <ele>14.4</ele>
        <time>2015-12-27T13:52:49Z</time>
      </trkpt>
      <trkpt lat="49.92623" lon="2.22587">
        <ele>14.4</ele>
        <time>2015-12-27T13:52:56Z</time>
      </trkpt>
      <trkpt lat="49.9262" lon="2.22586">
        <ele>14.4</ele>
        <time>2015-12-27T13:52:59Z</time>
      </trkpt>
      <trkpt lat="49.92618" lon="2.22583">
        <ele>14.5</ele>
        <time>2015-12-27T13:53:03Z</time>
      </trkpt>
      <trkpt lat="49.92613" lon="2.2258">
        <ele>14.5</ele>
        <time>2015-12-27T13:53:07Z</time>
      </trkpt>
      <trkpt lat="49.92611" lon="2.22579">
        <ele>14.5</ele>
        <time>2015-12-27T13:53:13Z</time>
      </trkpt>
      <trkpt lat="49.92606" lon="2.2258">
        <ele>14.4</ele>
        <time>2015-12-27T13:53:15Z</time>
      </trkpt>
      <trkpt lat="49.92604" lon="2.22578">
        <ele>14.5</ele>
        <time>2015-12-27T13:53:17Z</time>
      </trkpt>
      <trkpt lat="49.92602" lon="2.22574">
        <ele>14.6</ele>
        <time>2015-12-27T13:53:20Z</time>
      </trkpt>
      <trkpt lat="49.92601" lon="2.2258">
        <ele>14.4</ele>
        <time>2015-12-27T13:53:22Z</time>
      </trkpt>
      <trkpt lat="49.926" lon="2.22575">
        <ele>14.5</ele>
        <time>2015-12-27T13:53:24Z</time>
      </trkpt>
      <trkpt lat="49.92601" lon="2.22569">
        <ele>14.7</ele>
        <time>2015-12-27T13:53:29Z</time>
      </trkpt>
      <trkpt lat="49.92601" lon="2.22564">
        <ele>14.8</ele>
        <time>2015-12-27T13:53:33Z</time>
      </trkpt>
      <trkpt lat="49.92601" lon="2.22558">
        <ele>14.9</ele>
        <time>2015-12-27T13:53:35Z</time>
      </trkpt>
      <trkpt lat="49.92601" lon="2.22554">
        <ele>15</ele>
        <time>2015-12-27T13:53:40Z</time>
      </trkpt>
      <trkpt lat="49.92602" lon="2.22549">
        <ele>15.1</ele>
        <time>2015-12-27T13:53:44Z</time>
      </trkpt>
      <trkpt lat="49.92599" lon="2.22547">
        <ele>15.2</ele>
        <time>2015-12-27T13:53:45Z</time>
      </trkpt>
      <trkpt lat="49.92599" lon="2.22543">
        <ele>15.3</ele>
        <time>2015-12-27T13:53:47Z</time>
      </trkpt>
      <trkpt lat="49.92597" lon="2.22539">
        <ele>15.4</ele>
        <time>2015-12-27T13:53:51Z</time>
      </trkpt>
      <trkpt lat="49.92594" lon="2.22536">
        <ele>15.5</ele>
        <time>2015-12-27T13:53:55Z</time>
      </trkpt>
      <trkpt lat="49.92592" lon="2.22533">
        <ele>15.5</ele>
        <time>2015-12-27T13:53:58Z</time>
      </trkpt>
      <trkpt lat="49.92589" lon="2.22531">
        <ele>15.6</ele>
        <time>2015-12-27T13:54:01Z</time>
      </trkpt>
      <trkpt lat="49.92586" lon="2.2253">
        <ele>15.6</ele>
        <time>2015-12-27T13:54:02Z</time>
      </trkpt>
      <trkpt lat="49.92584" lon="2.22527">
        <ele>15.7</ele>
        <time>2015-12-27T13:54:04Z</time>
      </trkpt>
      <trkpt lat="49.92581" lon="2.22528">
        <ele>15.7</ele>
        <time>2015-12-27T13:54:06Z</time>
      </trkpt>
      <trkpt lat="49.92579" lon="2.22525">
        <ele>15.7</ele>
        <time>2015-12-27T13:54:08Z</time>
      </trkpt>
      <trkpt lat="49.92577" lon="2.22521">
        <ele>15.7</ele>
        <time>2015-12-27T13:54:12Z</time>
      </trkpt>
      <trkpt lat="49.92576" lon="2.22517">
        <ele>15.8</ele>
        <time>2015-12-27T13:54:15Z</time>
      </trkpt>
      <trkpt lat="49.92577" lon="2.2251">
        <ele>15.8</ele>
        <time>2015-12-27T13:54:20Z</time>
      </trkpt>
      <trkpt lat="49.92574" lon="2.22507">
        <ele>15.8</ele>
        <time>2015-12-27T13:54:24Z</time>
      </trkpt>
      <trkpt lat="49.92573" lon="2.22502">
        <ele>15.9</ele>
        <time>2015-12-27T13:54:27Z</time>
      </trkpt>
      <trkpt lat="49.92571" lon="2.22499">
        <ele>15.9</ele>
        <time>2015-12-27T13:54:29Z</time>
      </trkpt>
      <trkpt lat="49.92569" lon="2.22494">
        <ele>15.9</ele>
        <time>2015-12-27T13:54:32Z</time>
      </trkpt>
      <trkpt lat="49.92569" lon="2.22489">
        <ele>15.9</ele>
        <time>2015-12-27T13:54:35Z</time>
      </trkpt>
      <trkpt lat="49.92567" lon="2.22486">
        <ele>15.8</ele>
        <time>2015-12-27T13:54:38Z</time>
      </trkpt>
      <trkpt lat="49.92567" lon="2.22481">
        <ele>15.8</ele>
        <time>2015-12-27T13:54:41Z</time>
      </trkpt>
      <trkpt lat="49.92565" lon="2.22476">
        <ele>15.8</ele>
        <time>2015-12-27T13:54:45Z</time>
      </trkpt>
      <trkpt lat="49.92563" lon="2.22473">
        <ele>15.8</ele>
        <time>2015-12-27T13:54:47Z</time>
      </trkpt>
      <trkpt lat="49.92561" lon="2.22469">
        <ele>15.7</ele>
        <time>2015-12-27T13:54:50Z</time>
      </trkpt>
      <trkpt lat="49.92558" lon="2.22468">
        <ele>15.6</ele>
        <time>2015-12-27T13:54:51Z</time>
      </trkpt>
      <trkpt lat="49.92555" lon="2.22465">
        <ele>15.5</ele>
        <time>2015-12-27T13:54:54Z</time>
      </trkpt>
      <trkpt lat="49.92553" lon="2.22465">
        <ele>15.4</ele>
        <time>2015-12-27T13:54:56Z</time>
      </trkpt>
      <trkpt lat="49.9255" lon="2.22462">
        <ele>15.3</ele>
        <time>2015-12-27T13:55:01Z</time>
      </trkpt>
      <trkpt lat="49.92547" lon="2.2246">
        <ele>15.2</ele>
        <time>2015-12-27T13:55:04Z</time>
      </trkpt>
      <trkpt lat="49.92544" lon="2.22461">
        <ele>15.1</ele>
        <time>2015-12-27T13:55:05Z</time>
      </trkpt>
      <trkpt lat="49.92541" lon="2.2246">
        <ele>15</ele>
        <time>2015-12-27T13:55:09Z</time>
      </trkpt>
      <trkpt lat="49.92539" lon="2.22456">
        <ele>15</ele>
        <time>2015-12-27T13:55:12Z</time>
      </trkpt>
      <trkpt lat="49.92537" lon="2.22453">
        <ele>15</ele>
        <time>2015-12-27T13:55:15Z</time>
      </trkpt>
      <trkpt lat="49.92533" lon="2.22451">
        <ele>15</ele>
        <time>2015-12-27T13:55:18Z</time>
      </trkpt>
      <trkpt lat="49.92529" lon="2.2245">
        <ele>15</ele>
        <time>2015-12-27T13:55:20Z</time>
      </trkpt>
      <trkpt lat="49.92527" lon="2.22447">
        <ele>15</ele>
        <time>2015-12-27T13:55:23Z</time>
      </trkpt>
      <trkpt lat="49.92527" lon="2.22443">
        <ele>14.9</ele>
        <time>2015-12-27T13:55:26Z</time>
      </trkpt>
      <trkpt lat="49.92524" lon="2.22441">
        <ele>14.9</ele>
        <time>2015-12-27T13:55:28Z</time>
      </trkpt>
      <trkpt lat="49.92521" lon="2.22438">
        <ele>14.9</ele>
        <time>2015-12-27T13:55:32Z</time>
      </trkpt>
      <trkpt lat="49.92518" lon="2.22435">
        <ele>14.8</ele>
        <time>2015-12-27T13:55:36Z</time>
      </trkpt>
      <trkpt lat="49.92515" lon="2.22433">
        <ele>14.8</ele>
        <time>2015-12-27T13:55:38Z</time>
      </trkpt>
      <trkpt lat="49.92512" lon="2.22433">
        <ele>14.8</ele>
        <time>2015-12-27T13:55:40Z</time>
      </trkpt>
      <trkpt lat="49.92508" lon="2.22429">
        <ele>14.7</ele>
        <time>2015-12-27T13:55:45Z</time>
      </trkpt>
      <trkpt lat="49.92506" lon="2.22427">
        <ele>14.7</ele>
        <time>2015-12-27T13:55:48Z</time>
      </trkpt>
      <trkpt lat="49.92503" lon="2.22425">
        <ele>14.6</ele>
        <time>2015-12-27T13:55:51Z</time>
      </trkpt>
      <trkpt lat="49.92499" lon="2.22426">
        <ele>14.6</ele>
        <time>2015-12-27T13:55:57Z</time>
      </trkpt>
      <trkpt lat="49.92496" lon="2.22428">
        <ele>14.6</ele>
        <time>2015-12-27T13:56:01Z</time>
      </trkpt>
      <trkpt lat="49.92493" lon="2.22429">
        <ele>14.6</ele>
        <time>2015-12-27T13:56:04Z</time>
      </trkpt>
      <trkpt lat="49.9249" lon="2.22432">
        <ele>14.6</ele>
        <time>2015-12-27T13:56:10Z</time>
      </trkpt>
      <trkpt lat="49.92487" lon="2.22434">
        <ele>14.6</ele>
        <time>2015-12-27T13:56:11Z</time>
      </trkpt>
      <trkpt lat="49.92488" lon="2.22442">
        <ele>14.7</ele>
        <time>2015-12-27T13:56:14Z</time>
      </trkpt>
      <trkpt lat="49.92483" lon="2.2244">
        <ele>14.7</ele>
        <time>2015-12-27T13:56:23Z</time>
      </trkpt>
      <trkpt lat="49.92481" lon="2.22439">
        <ele>14.7</ele>
        <time>2015-12-27T13:56:25Z</time>
      </trkpt>
      <trkpt lat="49.92478" lon="2.22438">
        <ele>14.6</ele>
        <time>2015-12-27T13:56:27Z</time>
      </trkpt>
      <trkpt lat="49.92473" lon="2.2244">
        <ele>14.6</ele>
        <time>2015-12-27T13:56:29Z</time>
      </trkpt>
      <trkpt lat="49.92471" lon="2.22443">
        <ele>14.7</ele>
        <time>2015-12-27T13:56:36Z</time>
      </trkpt>
      <trkpt lat="49.92469" lon="2.22438">
        <ele>14.6</ele>
        <time>2015-12-27T13:56:41Z</time>
      </trkpt>
      <trkpt lat="49.92465" lon="2.22438">
        <ele>14.5</ele>
        <time>2015-12-27T13:56:45Z</time>
      </trkpt>
      <trkpt lat="49.92465" lon="2.22434">
        <ele>14.4</ele>
        <time>2015-12-27T13:56:48Z</time>
      </trkpt>
      <trkpt lat="49.92464" lon="2.22429">
        <ele>14.3</ele>
        <time>2015-12-27T13:56:51Z</time>
      </trkpt>
      <trkpt lat="49.92464" lon="2.22423">
        <ele>14.2</ele>
        <time>2015-12-27T13:56:58Z</time>
      </trkpt>
      <trkpt lat="49.92462" lon="2.22421">
        <ele>14.1</ele>
        <time>2015-12-27T13:57:03Z</time>
      </trkpt>
      <trkpt lat="49.92459" lon="2.22419">
        <ele>14.1</ele>
        <time>2015-12-27T13:57:08Z</time>
      </trkpt>
      <trkpt lat="49.92458" lon="2.22414">
        <ele>13.9</ele>
        <time>2015-12-27T13:57:11Z</time>
      </trkpt>
      <trkpt lat="49.92456" lon="2.22411">
        <ele>13.9</ele>
        <time>2015-12-27T13:57:13Z</time>
      </trkpt>
      <trkpt lat="49.92455" lon="2.22407">
        <ele>13.8</ele>
        <time>2015-12-27T13:57:17Z</time>
      </trkpt>
      <trkpt lat="49.92452" lon="2.22405">
        <ele>13.8</ele>
        <time>2015-12-27T13:57:20Z</time>
      </trkpt>
      <trkpt lat="49.92446" lon="2.22402">
        <ele>13.9</ele>
        <time>2015-12-27T13:57:22Z</time>
      </trkpt>
      <trkpt lat="49.92442" lon="2.22399">
        <ele>13.9</ele>
        <time>2015-12-27T13:57:24Z</time>
      </trkpt>
      <trkpt lat="49.9244" lon="2.22395">
        <ele>13.9</ele>
        <time>2015-12-27T13:57:27Z</time>
      </trkpt>
      <trkpt lat="49.92436" lon="2.22395">
        <ele>13.9</ele>
        <time>2015-12-27T13:57:29Z</time>
      </trkpt>
      <trkpt lat="49.92437" lon="2.22391">
        <ele>13.8</ele>
        <time>2015-12-27T13:57:34Z</time>
      </trkpt>
      <trkpt lat="49.92435" lon="2.22387">
        <ele>13.8</ele>
        <time>2015-12-27T13:57:39Z</time>
      </trkpt>
      <trkpt lat="49.92433" lon="2.22383">
        <ele>13.8</ele>
        <time>2015-12-27T13:57:44Z</time>
      </trkpt>
      <trkpt lat="49.9243" lon="2.22382">
        <ele>13.8</ele>
        <time>2015-12-27T13:57:46Z</time>
      </trkpt>
      <trkpt lat="49.92427" lon="2.22381">
        <ele>13.9</ele>
        <time>2015-12-27T13:57:47Z</time>
      </trkpt>
      <trkpt lat="49.92424" lon="2.22378">
        <ele>13.9</ele>
        <time>2015-12-27T13:57:51Z</time>
      </trkpt>
      <trkpt lat="49.9242" lon="2.22377">
        <ele>14</ele>
        <time>2015-12-27T13:57:52Z</time>
      </trkpt>
      <trkpt lat="49.92418" lon="2.22374">
        <ele>14</ele>
        <time>2015-12-27T13:57:57Z</time>
      </trkpt>
      <trkpt lat="49.92415" lon="2.22373">
        <ele>14</ele>
        <time>2015-12-27T13:57:58Z</time>
      </trkpt>
      <trkpt lat="49.92412" lon="2.22372">
        <ele>14.1</ele>
        <time>2015-12-27T13:58:03Z</time>
      </trkpt>
      <trkpt lat="49.92409" lon="2.2237">
        <ele>14.2</ele>
        <time>2015-12-27T13:58:06Z</time>
      </trkpt>
      <trkpt lat="49.92406" lon="2.22367">
        <ele>14.2</ele>
        <time>2015-12-27T13:58:09Z</time>
      </trkpt>
      <trkpt lat="49.92403" lon="2.22363">
        <ele>14.2</ele>
        <time>2015-12-27T13:58:14Z</time>
      </trkpt>
      <trkpt lat="49.924" lon="2.2236">
        <ele>14.3</ele>
        <time>2015-12-27T13:58:19Z</time>
      </trkpt>
      <trkpt lat="49.92397" lon="2.22358">
        <ele>14.3</ele>
        <time>2015-12-27T13:58:22Z</time>
      </trkpt>
      <trkpt lat="49.92393" lon="2.22357">
        <ele>14.4</ele>
        <time>2015-12-27T13:58:24Z</time>
      </trkpt>
      <trkpt lat="49.92394" lon="2.22353">
        <ele>14.3</ele>
        <time>2015-12-27T13:58:27Z</time>
      </trkpt>
      <trkpt lat="49.92391" lon="2.22352">
        <ele>14.4</ele>
        <time>2015-12-27T13:58:32Z</time>
      </trkpt>
      <trkpt lat="49.92388" lon="2.22351">
        <ele>14.4</ele>
        <time>2015-12-27T13:58:36Z</time>
      </trkpt>
      <trkpt lat="49.92386" lon="2.22347">
        <ele>14.4</ele>
        <time>2015-12-27T13:58:39Z</time>
      </trkpt>
      <trkpt lat="49.92383" lon="2.22345">
        <ele>14.5</ele>
        <time>2015-12-27T13:58:42Z</time>
      </trkpt>
      <trkpt lat="49.9238" lon="2.22342">
        <ele>14.5</ele>
        <time>2015-12-27T13:58:45Z</time>
      </trkpt>
      <trkpt lat="49.92376" lon="2.22341">
        <ele>14.6</ele>
        <time>2015-12-27T13:58:47Z</time>
      </trkpt>
      <trkpt lat="49.92373" lon="2.22338">
        <ele>14.6</ele>
        <time>2015-12-27T13:58:50Z</time>
      </trkpt>
      <trkpt lat="49.92369" lon="2.22336">
        <ele>14.6</ele>
        <time>2015-12-27T13:58:52Z</time>
      </trkpt>
      <trkpt lat="49.92365" lon="2.22336">
        <ele>14.6</ele>
        <time>2015-12-27T13:58:53Z</time>
      </trkpt>
      <trkpt lat="49.92364" lon="2.22331">
        <ele>14.6</ele>
        <time>2015-12-27T13:58:57Z</time>
      </trkpt>
      <trkpt lat="49.92358" lon="2.22329">
        <ele>14.7</ele>
        <time>2015-12-27T13:59:02Z</time>
      </trkpt>
      <trkpt lat="49.92354" lon="2.2233">
        <ele>14.7</ele>
        <time>2015-12-27T13:59:04Z</time>
      </trkpt>
      <trkpt lat="49.92351" lon="2.22329">
        <ele>14.8</ele>
        <time>2015-12-27T13:59:06Z</time>
      </trkpt>
      <trkpt lat="49.92351" lon="2.22324">
        <ele>14.7</ele>
        <time>2015-12-27T13:59:11Z</time>
      </trkpt>
      <trkpt lat="49.92347" lon="2.22321">
        <ele>14.8</ele>
        <time>2015-12-27T13:59:15Z</time>
      </trkpt>
      <trkpt lat="49.92346" lon="2.22317">
        <ele>14.8</ele>
        <time>2015-12-27T13:59:18Z</time>
      </trkpt>
      <trkpt lat="49.92344" lon="2.22314">
        <ele>14.8</ele>
        <time>2015-12-27T13:59:22Z</time>
      </trkpt>
      <trkpt lat="49.92343" lon="2.2231">
        <ele>14.8</ele>
        <time>2015-12-27T13:59:28Z</time>
      </trkpt>
      <trkpt lat="49.92341" lon="2.22307">
        <ele>14.9</ele>
        <time>2015-12-27T13:59:32Z</time>
      </trkpt>
      <trkpt lat="49.92336" lon="2.22308">
        <ele>14.9</ele>
        <time>2015-12-27T13:59:36Z</time>
      </trkpt>
      <trkpt lat="49.92333" lon="2.22307">
        <ele>15</ele>
        <time>2015-12-27T13:59:38Z</time>
      </trkpt>
      <trkpt lat="49.92327" lon="2.22305">
        <ele>15.1</ele>
        <time>2015-12-27T13:59:41Z</time>
      </trkpt>
      <trkpt lat="49.92326" lon="2.22301">
        <ele>15.2</ele>
        <time>2015-12-27T13:59:44Z</time>
      </trkpt>
      <trkpt lat="49.92322" lon="2.223">
        <ele>15.3</ele>
        <time>2015-12-27T13:59:45Z</time>
      </trkpt>
      <trkpt lat="49.92318" lon="2.22299">
        <ele>15.3</ele>
        <time>2015-12-27T13:59:50Z</time>
      </trkpt>
      <trkpt lat="49.92315" lon="2.22299">
        <ele>15.4</ele>
        <time>2015-12-27T13:59:53Z</time>
      </trkpt>
      <trkpt lat="49.92312" lon="2.223">
        <ele>15.5</ele>
        <time>2015-12-27T13:59:56Z</time>
      </trkpt>
      <trkpt lat="49.92308" lon="2.22299">
        <ele>15.6</ele>
        <time>2015-12-27T13:59:59Z</time>
      </trkpt>
      <trkpt lat="49.92307" lon="2.22304">
        <ele>15.5</ele>
        <time>2015-12-27T14:00:06Z</time>
      </trkpt>
      <trkpt lat="49.92305" lon="2.22306">
        <ele>15.6</ele>
        <time>2015-12-27T14:00:09Z</time>
      </trkpt>
      <trkpt lat="49.92301" lon="2.22307">
        <ele>15.6</ele>
        <time>2015-12-27T14:00:10Z</time>
      </trkpt>
      <trkpt lat="49.92298" lon="2.22309">
        <ele>15.7</ele>
        <time>2015-12-27T14:00:12Z</time>
      </trkpt>
      <trkpt lat="49.92296" lon="2.22313">
        <ele>15.7</ele>
        <time>2015-12-27T14:00:15Z</time>
      </trkpt>
      <trkpt lat="49.92293" lon="2.22315">
        <ele>15.7</ele>
        <time>2015-12-27T14:00:19Z</time>
      </trkpt>
      <trkpt lat="49.9229" lon="2.22316">
        <ele>15.7</ele>
        <time>2015-12-27T14:00:23Z</time>
      </trkpt>
      <trkpt lat="49.92287" lon="2.22317">
        <ele>15.8</ele>
        <time>2015-12-27T14:00:25Z</time>
      </trkpt>
      <trkpt lat="49.92282" lon="2.22319">
        <ele>15.8</ele>
        <time>2015-12-27T14:00:27Z</time>
      </trkpt>
      <trkpt lat="49.92279" lon="2.22326">
        <ele>15.8</ele>
        <time>2015-12-27T14:00:34Z</time>
      </trkpt>
      <trkpt lat="49.92277" lon="2.22329">
        <ele>15.9</ele>
        <time>2015-12-27T14:00:38Z</time>
      </trkpt>
      <trkpt lat="49.92275" lon="2.22332">
        <ele>15.9</ele>
        <time>2015-12-27T14:00:44Z</time>
      </trkpt>
      <trkpt lat="49.92272" lon="2.22335">
        <ele>16</ele>
        <time>2015-12-27T14:00:45Z</time>
      </trkpt>
      <trkpt lat="49.92271" lon="2.22338">
        <ele>16</ele>
        <time>2015-12-27T14:00:47Z</time>
      </trkpt>
      <trkpt lat="49.92268" lon="2.22343">
        <ele>16.1</ele>
        <time>2015-12-27T14:00:50Z</time>
      </trkpt>
      <trkpt lat="49.92266" lon="2.22346">
        <ele>16.2</ele>
        <time>2015-12-27T14:00:53Z</time>
      </trkpt>
      <trkpt lat="49.92263" lon="2.22349">
        <ele>16.2</ele>
        <time>2015-12-27T14:00:55Z</time>
      </trkpt>
      <trkpt lat="49.92262" lon="2.22353">
        <ele>16.3</ele>
        <time>2015-12-27T14:00:57Z</time>
      </trkpt>
      <trkpt lat="49.9226" lon="2.22356">
        <ele>16.4</ele>
        <time>2015-12-27T14:01:01Z</time>
      </trkpt>
      <trkpt lat="49.9226" lon="2.22361">
        <ele>16.4</ele>
        <time>2015-12-27T14:01:04Z</time>
      </trkpt>
      <trkpt lat="49.92258" lon="2.22368">
        <ele>16.6</ele>
        <time>2015-12-27T14:01:07Z</time>
      </trkpt>
      <trkpt lat="49.92256" lon="2.22371">
        <ele>16.7</ele>
        <time>2015-12-27T14:01:09Z</time>
      </trkpt>
      <trkpt lat="49.92254" lon="2.22375">
        <ele>16.8</ele>
        <time>2015-12-27T14:01:11Z</time>
      </trkpt>
      <trkpt lat="49.92253" lon="2.2238">
        <ele>16.7</ele>
        <time>2015-12-27T14:01:14Z</time>
      </trkpt>
      <trkpt lat="49.9225" lon="2.22384">
        <ele>16.7</ele>
        <time>2015-12-27T14:01:17Z</time>
      </trkpt>
      <trkpt lat="49.92249" lon="2.22388">
        <ele>16.6</ele>
        <time>2015-12-27T14:01:20Z</time>
      </trkpt>
      <trkpt lat="49.92248" lon="2.22393">
        <ele>16.5</ele>
        <time>2015-12-27T14:01:25Z</time>
      </trkpt>
      <trkpt lat="49.92248" lon="2.22398">
        <ele>16.3</ele>
        <time>2015-12-27T14:01:29Z</time>
      </trkpt>
      <trkpt lat="49.92246" lon="2.22403">
        <ele>16.2</ele>
        <time>2015-12-27T14:01:32Z</time>
      </trkpt>
      <trkpt lat="49.92244" lon="2.22408">
        <ele>16.1</ele>
        <time>2015-12-27T14:01:35Z</time>
      </trkpt>
      <trkpt lat="49.92242" lon="2.22412">
        <ele>16.2</ele>
        <time>2015-12-27T14:01:37Z</time>
      </trkpt>
      <trkpt lat="49.92241" lon="2.22416">
        <ele>16</ele>
        <time>2015-12-27T14:01:41Z</time>
      </trkpt>
      <trkpt lat="49.9224" lon="2.22421">
        <ele>16</ele>
        <time>2015-12-27T14:01:43Z</time>
      </trkpt>
      <trkpt lat="49.92239" lon="2.22424">
        <ele>15.9</ele>
        <time>2015-12-27T14:01:47Z</time>
      </trkpt>
      <trkpt lat="49.92238" lon="2.22428">
        <ele>15.9</ele>
        <time>2015-12-27T14:01:50Z</time>
      </trkpt>
      <trkpt lat="49.92237" lon="2.22433">
        <ele>15.7</ele>
        <time>2015-12-27T14:01:53Z</time>
      </trkpt>
      <trkpt lat="49.92238" lon="2.22439">
        <ele>15.5</ele>
        <time>2015-12-27T14:01:57Z</time>
      </trkpt>
      <trkpt lat="49.92237" lon="2.22443">
        <ele>15.4</ele>
        <time>2015-12-27T14:01:59Z</time>
      </trkpt>
      <trkpt lat="49.92235" lon="2.22447">
        <ele>15.5</ele>
        <time>2015-12-27T14:02:01Z</time>
      </trkpt>
      <trkpt lat="49.92235" lon="2.22451">
        <ele>15.3</ele>
        <time>2015-12-27T14:02:04Z</time>
      </trkpt>
      <trkpt lat="49.92234" lon="2.22456">
        <ele>15.2</ele>
        <time>2015-12-27T14:02:10Z</time>
      </trkpt>
      <trkpt lat="49.92233" lon="2.22461">
        <ele>15.3</ele>
        <time>2015-12-27T14:02:15Z</time>
      </trkpt>
      <trkpt lat="49.92232" lon="2.22466">
        <ele>15.4</ele>
        <time>2015-12-27T14:02:18Z</time>
      </trkpt>
      <trkpt lat="49.92231" lon="2.2247">
        <ele>15.5</ele>
        <time>2015-12-27T14:02:21Z</time>
      </trkpt>
      <trkpt lat="49.9223" lon="2.22474">
        <ele>15.6</ele>
        <time>2015-12-27T14:02:25Z</time>
      </trkpt>
      <trkpt lat="49.92229" lon="2.2248">
        <ele>15.7</ele>
        <time>2015-12-27T14:02:29Z</time>
      </trkpt>
      <trkpt lat="49.92228" lon="2.22486">
        <ele>15.8</ele>
        <time>2015-12-27T14:02:32Z</time>
      </trkpt>
      <trkpt lat="49.92225" lon="2.2249">
        <ele>16</ele>
        <time>2015-12-27T14:02:36Z</time>
      </trkpt>
      <trkpt lat="49.92224" lon="2.22494">
        <ele>16.1</ele>
        <time>2015-12-27T14:02:40Z</time>
      </trkpt>
      <trkpt lat="49.92224" lon="2.22499">
        <ele>16.2</ele>
        <time>2015-12-27T14:02:44Z</time>
      </trkpt>
      <trkpt lat="49.92224" lon="2.22504">
        <ele>16.2</ele>
        <time>2015-12-27T14:02:50Z</time>
      </trkpt>
      <trkpt lat="49.92223" lon="2.22508">
        <ele>16.2</ele>
        <time>2015-12-27T14:02:54Z</time>
      </trkpt>
      <trkpt lat="49.9222" lon="2.22513">
        <ele>16.4</ele>
        <time>2015-12-27T14:02:57Z</time>
      </trkpt>
      <trkpt lat="49.92219" lon="2.22518">
        <ele>16.5</ele>
        <time>2015-12-27T14:03:00Z</time>
      </trkpt>
      <trkpt lat="49.92219" lon="2.22523">
        <ele>16.5</ele>
        <time>2015-12-27T14:03:04Z</time>
      </trkpt>
      <trkpt lat="49.92217" lon="2.22527">
        <ele>16.6</ele>
        <time>2015-12-27T14:03:06Z</time>
      </trkpt>
      <trkpt lat="49.92216" lon="2.2253">
        <ele>16.7</ele>
        <time>2015-12-27T14:03:09Z</time>
      </trkpt>
      <trkpt lat="49.92214" lon="2.22534">
        <ele>16.8</ele>
        <time>2015-12-27T14:03:10Z</time>
      </trkpt>
      <trkpt lat="49.92214" lon="2.22538">
        <ele>16.8</ele>
        <time>2015-12-27T14:03:12Z</time>
      </trkpt>
      <trkpt lat="49.92212" lon="2.22542">
        <ele>16.9</ele>
        <time>2015-12-27T14:03:14Z</time>
      </trkpt>
      <trkpt lat="49.92212" lon="2.22547">
        <ele>16.8</ele>
        <time>2015-12-27T14:03:18Z</time>
      </trkpt>
      <trkpt lat="49.9221" lon="2.22551">
        <ele>16.8</ele>
        <time>2015-12-27T14:03:23Z</time>
      </trkpt>
      <trkpt lat="49.9221" lon="2.22555">
        <ele>16.8</ele>
        <time>2015-12-27T14:03:26Z</time>
      </trkpt>
      <trkpt lat="49.92211" lon="2.2256">
        <ele>16.7</ele>
        <time>2015-12-27T14:03:28Z</time>
      </trkpt>
      <trkpt lat="49.9221" lon="2.22564">
        <ele>16.7</ele>
        <time>2015-12-27T14:03:32Z</time>
      </trkpt>
      <trkpt lat="49.92209" lon="2.22569">
        <ele>16.7</ele>
        <time>2015-12-27T14:03:35Z</time>
      </trkpt>
      <trkpt lat="49.92206" lon="2.22572">
        <ele>16.6</ele>
        <time>2015-12-27T14:03:39Z</time>
      </trkpt>
      <trkpt lat="49.92206" lon="2.22576">
        <ele>16.6</ele>
        <time>2015-12-27T14:03:43Z</time>
      </trkpt>
      <trkpt lat="49.92205" lon="2.2258">
        <ele>16.5</ele>
        <time>2015-12-27T14:03:46Z</time>
      </trkpt>
      <trkpt lat="49.92204" lon="2.22585">
        <ele>16.5</ele>
        <time>2015-12-27T14:03:49Z</time>
      </trkpt>
      <trkpt lat="49.92203" lon="2.22589">
        <ele>16.4</ele>
        <time>2015-12-27T14:03:53Z</time>
      </trkpt>
      <trkpt lat="49.92201" lon="2.22594">
        <ele>16.4</ele>
        <time>2015-12-27T14:03:57Z</time>
      </trkpt>
      <trkpt lat="49.922" lon="2.22597">
        <ele>16.3</ele>
        <time>2015-12-27T14:03:59Z</time>
      </trkpt>
      <trkpt lat="49.92198" lon="2.22602">
        <ele>16.3</ele>
        <time>2015-12-27T14:04:02Z</time>
      </trkpt>
      <trkpt lat="49.92198" lon="2.22607">
        <ele>16.2</ele>
        <time>2015-12-27T14:04:06Z</time>
      </trkpt>
      <trkpt lat="49.92198" lon="2.22612">
        <ele>16.2</ele>
        <time>2015-12-27T14:04:12Z</time>
      </trkpt>
      <trkpt lat="49.92197" lon="2.22616">
        <ele>16.1</ele>
        <time>2015-12-27T14:04:15Z</time>
      </trkpt>
      <trkpt lat="49.92195" lon="2.2262">
        <ele>16.1</ele>
        <time>2015-12-27T14:04:19Z</time>
      </trkpt>
      <trkpt lat="49.92193" lon="2.22623">
        <ele>16</ele>
        <time>2015-12-27T14:04:22Z</time>
      </trkpt>
      <trkpt lat="49.92191" lon="2.22627">
        <ele>16</ele>
        <time>2015-12-27T14:04:25Z</time>
      </trkpt>
      <trkpt lat="49.9219" lon="2.22631">
        <ele>16</ele>
        <time>2015-12-27T14:04:30Z</time>
      </trkpt>
      <trkpt lat="49.92188" lon="2.22636">
        <ele>16</ele>
        <time>2015-12-27T14:04:34Z</time>
      </trkpt>
      <trkpt lat="49.92186" lon="2.2264">
        <ele>16</ele>
        <time>2015-12-27T14:04:37Z</time>
      </trkpt>
      <trkpt lat="49.92184" lon="2.22644">
        <ele>15.9</ele>
        <time>2015-12-27T14:04:41Z</time>
      </trkpt>
      <trkpt lat="49.92182" lon="2.22648">
        <ele>15.9</ele>
        <time>2015-12-27T14:04:43Z</time>
      </trkpt>
      <trkpt lat="49.92181" lon="2.22653">
        <ele>15.9</ele>
        <time>2015-12-27T14:04:48Z</time>
      </trkpt>
      <trkpt lat="49.9218" lon="2.22657">
        <ele>15.9</ele>
        <time>2015-12-27T14:04:52Z</time>
      </trkpt>
      <trkpt lat="49.92179" lon="2.22662">
        <ele>15.8</ele>
        <time>2015-12-27T14:04:56Z</time>
      </trkpt>
      <trkpt lat="49.92178" lon="2.22667">
        <ele>15.8</ele>
        <time>2015-12-27T14:05:01Z</time>
      </trkpt>
      <trkpt lat="49.92175" lon="2.22671">
        <ele>15.8</ele>
        <time>2015-12-27T14:05:04Z</time>
      </trkpt>
      <trkpt lat="49.92174" lon="2.22675">
        <ele>15.8</ele>
        <time>2015-12-27T14:05:07Z</time>
      </trkpt>
      <trkpt lat="49.92174" lon="2.2268">
        <ele>15.7</ele>
        <time>2015-12-27T14:05:10Z</time>
      </trkpt>
      <trkpt lat="49.92173" lon="2.22685">
        <ele>15.7</ele>
        <time>2015-12-27T14:05:15Z</time>
      </trkpt>
      <trkpt lat="49.92171" lon="2.22689">
        <ele>15.7</ele>
        <time>2015-12-27T14:05:21Z</time>
      </trkpt>
      <trkpt lat="49.92169" lon="2.22694">
        <ele>15.6</ele>
        <time>2015-12-27T14:05:28Z</time>
      </trkpt>
      <trkpt lat="49.92167" lon="2.22698">
        <ele>15.6</ele>
        <time>2015-12-27T14:05:31Z</time>
      </trkpt>
      <trkpt lat="49.92164" lon="2.227">
        <ele>15.5</ele>
        <time>2015-12-27T14:05:33Z</time>
      </trkpt>
      <trkpt lat="49.92164" lon="2.22705">
        <ele>15.5</ele>
        <time>2015-12-27T14:05:35Z</time>
      </trkpt>
      <trkpt lat="49.92162" lon="2.22708">
        <ele>15.4</ele>
        <time>2015-12-27T14:05:37Z</time>
      </trkpt>
      <trkpt lat="49.9216" lon="2.22713">
        <ele>15.4</ele>
        <time>2015-12-27T14:05:42Z</time>
      </trkpt>
      <trkpt lat="49.92157" lon="2.22719">
        <ele>15.2</ele>
        <time>2015-12-27T14:05:48Z</time>
      </trkpt>
      <trkpt lat="49.92154" lon="2.2272">
        <ele>15.2</ele>
        <time>2015-12-27T14:05:49Z</time>
      </trkpt>
      <trkpt lat="49.92152" lon="2.22724">
        <ele>15.1</ele>
        <time>2015-12-27T14:05:53Z</time>
      </trkpt>
      <trkpt lat="49.92151" lon="2.22728">
        <ele>15</ele>
        <time>2015-12-27T14:05:58Z</time>
      </trkpt>
      <trkpt lat="49.9215" lon="2.22735">
        <ele>14.8</ele>
        <time>2015-12-27T14:06:02Z</time>
      </trkpt>
      <trkpt lat="49.92149" lon="2.2274">
        <ele>14.7</ele>
        <time>2015-12-27T14:06:05Z</time>
      </trkpt>
      <trkpt lat="49.92145" lon="2.22743">
        <ele>14.6</ele>
        <time>2015-12-27T14:06:08Z</time>
      </trkpt>
      <trkpt lat="49.92143" lon="2.22747">
        <ele>14.5</ele>
        <time>2015-12-27T14:06:12Z</time>
      </trkpt>
      <trkpt lat="49.9214" lon="2.2275">
        <ele>14.4</ele>
        <time>2015-12-27T14:06:15Z</time>
      </trkpt>
      <trkpt lat="49.92141" lon="2.22755">
        <ele>14.3</ele>
        <time>2015-12-27T14:06:20Z</time>
      </trkpt>
      <trkpt lat="49.92138" lon="2.2276">
        <ele>14.1</ele>
        <time>2015-12-27T14:06:23Z</time>
      </trkpt>
      <trkpt lat="49.92137" lon="2.22765">
        <ele>14</ele>
        <time>2015-12-27T14:06:26Z</time>
      </trkpt>
      <trkpt lat="49.92136" lon="2.22769">
        <ele>13.9</ele>
        <time>2015-12-27T14:06:29Z</time>
      </trkpt>
      <trkpt lat="49.92135" lon="2.22773">
        <ele>13.7</ele>
        <time>2015-12-27T14:06:32Z</time>
      </trkpt>
      <trkpt lat="49.92134" lon="2.22777">
        <ele>13.6</ele>
        <time>2015-12-27T14:06:34Z</time>
      </trkpt>
      <trkpt lat="49.92134" lon="2.22784">
        <ele>13.5</ele>
        <time>2015-12-27T14:06:40Z</time>
      </trkpt>
      <trkpt lat="49.92132" lon="2.22787">
        <ele>13.3</ele>
        <time>2015-12-27T14:06:42Z</time>
      </trkpt>
      <trkpt lat="49.9213" lon="2.22792">
        <ele>13.2</ele>
        <time>2015-12-27T14:06:47Z</time>
      </trkpt>
      <trkpt lat="49.92127" lon="2.22794">
        <ele>13</ele>
        <time>2015-12-27T14:06:50Z</time>
      </trkpt>
      <trkpt lat="49.92125" lon="2.22797">
        <ele>12.9</ele>
        <time>2015-12-27T14:06:53Z</time>
      </trkpt>
      <trkpt lat="49.92122" lon="2.22799">
        <ele>13</ele>
        <time>2015-12-27T14:06:55Z</time>
      </trkpt>
      <trkpt lat="49.9212" lon="2.22802">
        <ele>13</ele>
        <time>2015-12-27T14:06:58Z</time>
      </trkpt>
      <trkpt lat="49.92118" lon="2.22806">
        <ele>13</ele>
        <time>2015-12-27T14:07:01Z</time>
      </trkpt>
      <trkpt lat="49.92116" lon="2.22811">
        <ele>13</ele>
        <time>2015-12-27T14:07:03Z</time>
      </trkpt>
      <trkpt lat="49.92115" lon="2.22815">
        <ele>13</ele>
        <time>2015-12-27T14:07:07Z</time>
      </trkpt>
      <trkpt lat="49.92113" lon="2.22818">
        <ele>13</ele>
        <time>2015-12-27T14:07:15Z</time>
      </trkpt>
      <trkpt lat="49.92113" lon="2.22823">
        <ele>13</ele>
        <time>2015-12-27T14:07:17Z</time>
      </trkpt>
      <trkpt lat="49.92111" lon="2.22827">
        <ele>13</ele>
        <time>2015-12-27T14:07:21Z</time>
      </trkpt>
      <trkpt lat="49.92107" lon="2.22833">
        <ele>13</ele>
        <time>2015-12-27T14:07:25Z</time>
      </trkpt>
      <trkpt lat="49.92105" lon="2.22836">
        <ele>13.1</ele>
        <time>2015-12-27T14:07:28Z</time>
      </trkpt>
      <trkpt lat="49.92104" lon="2.22841">
        <ele>13.1</ele>
        <time>2015-12-27T14:07:31Z</time>
      </trkpt>
      <trkpt lat="49.92103" lon="2.22846">
        <ele>13.1</ele>
        <time>2015-12-27T14:07:34Z</time>
      </trkpt>
      <trkpt lat="49.92102" lon="2.2285">
        <ele>13.1</ele>
        <time>2015-12-27T14:07:36Z</time>
      </trkpt>
      <trkpt lat="49.92099" lon="2.22855">
        <ele>13.1</ele>
        <time>2015-12-27T14:07:39Z</time>
      </trkpt>
      <trkpt lat="49.92096" lon="2.22859">
        <ele>13.2</ele>
        <time>2015-12-27T14:07:42Z</time>
      </trkpt>
      <trkpt lat="49.92096" lon="2.22865">
        <ele>13.1</ele>
        <time>2015-12-27T14:07:46Z</time>
      </trkpt>
      <trkpt lat="49.92092" lon="2.22866">
        <ele>13.2</ele>
        <time>2015-12-27T14:07:50Z</time>
      </trkpt>
      <trkpt lat="49.92093" lon="2.22871">
        <ele>13.2</ele>
        <time>2015-12-27T14:07:51Z</time>
      </trkpt>
      <trkpt lat="49.92091" lon="2.22874">
        <ele>13.2</ele>
        <time>2015-12-27T14:07:54Z</time>
      </trkpt>
      <trkpt lat="49.9209" lon="2.22879">
        <ele>13.3</ele>
        <time>2015-12-27T14:07:57Z</time>
      </trkpt>
      <trkpt lat="49.92088" lon="2.22885">
        <ele>13.5</ele>
        <time>2015-12-27T14:08:02Z</time>
      </trkpt>
      <trkpt lat="49.92089" lon="2.22891">
        <ele>13.5</ele>
        <time>2015-12-27T14:08:04Z</time>
      </trkpt>
      <trkpt lat="49.9209" lon="2.22896">
        <ele>13.5</ele>
        <time>2015-12-27T14:08:08Z</time>
      </trkpt>
      <trkpt lat="49.92088" lon="2.22899">
        <ele>13.7</ele>
        <time>2015-12-27T14:08:11Z</time>
      </trkpt>
      <trkpt lat="49.92088" lon="2.22903">
        <ele>13.7</ele>
        <time>2015-12-27T14:08:15Z</time>
      </trkpt>
      <trkpt lat="49.92086" lon="2.22907">
        <ele>13.8</ele>
        <time>2015-12-27T14:08:25Z</time>
      </trkpt>
      <trkpt lat="49.92083" lon="2.22907">
        <ele>13.9</ele>
        <time>2015-12-27T14:08:33Z</time>
      </trkpt>
      <trkpt lat="49.9208" lon="2.22908">
        <ele>14</ele>
        <time>2015-12-27T14:08:38Z</time>
      </trkpt>
      <trkpt lat="49.92078" lon="2.22908">
        <ele>14</ele>
        <time>2015-12-27T14:08:41Z</time>
      </trkpt>
      <trkpt lat="49.92075" lon="2.22907">
        <ele>14.1</ele>
        <time>2015-12-27T14:08:47Z</time>
      </trkpt>
      <trkpt lat="49.92072" lon="2.22905">
        <ele>14.2</ele>
        <time>2015-12-27T14:08:52Z</time>
      </trkpt>
      <trkpt lat="49.9207" lon="2.22906">
        <ele>14.2</ele>
        <time>2015-12-27T14:08:55Z</time>
      </trkpt>
      <trkpt lat="49.92066" lon="2.22904">
        <ele>14.3</ele>
        <time>2015-12-27T14:08:58Z</time>
      </trkpt>
      <trkpt lat="49.92062" lon="2.22903">
        <ele>14.4</ele>
        <time>2015-12-27T14:09:02Z</time>
      </trkpt>
      <trkpt lat="49.92059" lon="2.22901">
        <ele>14.5</ele>
        <time>2015-12-27T14:09:05Z</time>
      </trkpt>
      <trkpt lat="49.92056" lon="2.22903">
        <ele>14.6</ele>
        <time>2015-12-27T14:09:09Z</time>
      </trkpt>
      <trkpt lat="49.92049" lon="2.22902">
        <ele>14.8</ele>
        <time>2015-12-27T14:09:12Z</time>
      </trkpt>
      <trkpt lat="49.92044" lon="2.22902">
        <ele>14.9</ele>
        <time>2015-12-27T14:09:17Z</time>
      </trkpt>
      <trkpt lat="49.92041" lon="2.22899">
        <ele>15</ele>
        <time>2015-12-27T14:09:23Z</time>
      </trkpt>
      <trkpt lat="49.92038" lon="2.22898">
        <ele>15</ele>
        <time>2015-12-27T14:09:25Z</time>
      </trkpt>
      <trkpt lat="49.92035" lon="2.22896">
        <ele>15</ele>
        <time>2015-12-27T14:09:27Z</time>
      </trkpt>
      <trkpt lat="49.92033" lon="2.22895">
        <ele>15</ele>
        <time>2015-12-27T14:09:35Z</time>
      </trkpt>
      <trkpt lat="49.92029" lon="2.22894">
        <ele>15</ele>
        <time>2015-12-27T14:09:38Z</time>
      </trkpt>
      <trkpt lat="49.92026" lon="2.22892">
        <ele>15</ele>
        <time>2015-12-27T14:09:42Z</time>
      </trkpt>
      <trkpt lat="49.92023" lon="2.22891">
        <ele>15</ele>
        <time>2015-12-27T14:09:45Z</time>
      </trkpt>
      <trkpt lat="49.9202" lon="2.22889">
        <ele>15</ele>
        <time>2015-12-27T14:09:52Z</time>
      </trkpt>
      <trkpt lat="49.92017" lon="2.22888">
        <ele>15</ele>
        <time>2015-12-27T14:09:54Z</time>
      </trkpt>
      <trkpt lat="49.92014" lon="2.22888">
        <ele>15</ele>
        <time>2015-12-27T14:09:56Z</time>
      </trkpt>
      <trkpt lat="49.92011" lon="2.22888">
        <ele>15</ele>
        <time>2015-12-27T14:10:00Z</time>
      </trkpt>
      <trkpt lat="49.92007" lon="2.22885">
        <ele>15</ele>
        <time>2015-12-27T14:10:05Z</time>
      </trkpt>
      <trkpt lat="49.92003" lon="2.22882">
        <ele>15</ele>
        <time>2015-12-27T14:10:08Z</time>
      </trkpt>
      <trkpt lat="49.91999" lon="2.22883">
        <ele>15</ele>
        <time>2015-12-27T14:10:10Z</time>
      </trkpt>
      <trkpt lat="49.91995" lon="2.22884">
        <ele>15</ele>
        <time>2015-12-27T14:10:12Z</time>
      </trkpt>
      <trkpt lat="49.91991" lon="2.22884">
        <ele>15</ele>
        <time>2015-12-27T14:10:14Z</time>
      </trkpt>
      <trkpt lat="49.91986" lon="2.22883">
        <ele>15</ele>
        <time>2015-12-27T14:10:17Z</time>
      </trkpt>
      <trkpt lat="49.91982" lon="2.22884">
        <ele>15</ele>
        <time>2015-12-27T14:10:24Z</time>
      </trkpt>
      <trkpt lat="49.91979" lon="2.22883">
        <ele>15</ele>
        <time>2015-12-27T14:10:27Z</time>
      </trkpt>
      <trkpt lat="49.91975" lon="2.22883">
        <ele>15</ele>
        <time>2015-12-27T14:10:29Z</time>
      </trkpt>
      <trkpt lat="49.91971" lon="2.22883">
        <ele>15</ele>
        <time>2015-12-27T14:10:31Z</time>
      </trkpt>
      <trkpt lat="49.91968" lon="2.22884">
        <ele>15</ele>
        <time>2015-12-27T14:10:34Z</time>
      </trkpt>
      <trkpt lat="49.91963" lon="2.22882">
        <ele>15</ele>
        <time>2015-12-27T14:10:39Z</time>
      </trkpt>
      <trkpt lat="49.91961" lon="2.22882">
        <ele>15</ele>
        <time>2015-12-27T14:10:40Z</time>
      </trkpt>
      <trkpt lat="49.91957" lon="2.22881">
        <ele>15</ele>
        <time>2015-12-27T14:10:45Z</time>
      </trkpt>
      <trkpt lat="49.91954" lon="2.22882">
        <ele>15.1</ele>
        <time>2015-12-27T14:10:48Z</time>
      </trkpt>
      <trkpt lat="49.91951" lon="2.2288">
        <ele>15.1</ele>
        <time>2015-12-27T14:10:55Z</time>
      </trkpt>
      <trkpt lat="49.91948" lon="2.2288">
        <ele>15.1</ele>
        <time>2015-12-27T14:10:58Z</time>
      </trkpt>
      <trkpt lat="49.91945" lon="2.22882">
        <ele>15.2</ele>
        <time>2015-12-27T14:11:02Z</time>
      </trkpt>
      <trkpt lat="49.91942" lon="2.22883">
        <ele>15.2</ele>
        <time>2015-12-27T14:11:05Z</time>
      </trkpt>
      <trkpt lat="49.91939" lon="2.22884">
        <ele>15.2</ele>
        <time>2015-12-27T14:11:09Z</time>
      </trkpt>
      <trkpt lat="49.91935" lon="2.22882">
        <ele>15.3</ele>
        <time>2015-12-27T14:11:13Z</time>
      </trkpt>
      <trkpt lat="49.91932" lon="2.2288">
        <ele>15.3</ele>
        <time>2015-12-27T14:11:16Z</time>
      </trkpt>
      <trkpt lat="49.91929" lon="2.2288">
        <ele>15.4</ele>
        <time>2015-12-27T14:11:18Z</time>
      </trkpt>
      <trkpt lat="49.91926" lon="2.2288">
        <ele>15.4</ele>
        <time>2015-12-27T14:11:20Z</time>
      </trkpt>
      <trkpt lat="49.91923" lon="2.22877">
        <ele>15.4</ele>
        <time>2015-12-27T14:11:24Z</time>
      </trkpt>
      <trkpt lat="49.9192" lon="2.22876">
        <ele>15.5</ele>
        <time>2015-12-27T14:11:27Z</time>
      </trkpt>
      <trkpt lat="49.91917" lon="2.22877">
        <ele>15.5</ele>
        <time>2015-12-27T14:11:31Z</time>
      </trkpt>
      <trkpt lat="49.91915" lon="2.22876">
        <ele>15.5</ele>
        <time>2015-12-27T14:11:36Z</time>
      </trkpt>
      <trkpt lat="49.91911" lon="2.22875">
        <ele>15.6</ele>
        <time>2015-12-27T14:11:39Z</time>
      </trkpt>
      <trkpt lat="49.91909" lon="2.22872">
        <ele>15.6</ele>
        <time>2015-12-27T14:11:45Z</time>
      </trkpt>
      <trkpt lat="49.91906" lon="2.22872">
        <ele>15.7</ele>
        <time>2015-12-27T14:11:49Z</time>
      </trkpt>
      <trkpt lat="49.91903" lon="2.22872">
        <ele>15.7</ele>
        <time>2015-12-27T14:11:51Z</time>
      </trkpt>
      <trkpt lat="49.91899" lon="2.22871">
        <ele>15.7</ele>
        <time>2015-12-27T14:11:54Z</time>
      </trkpt>
      <trkpt lat="49.91896" lon="2.22871">
        <ele>15.8</ele>
        <time>2015-12-27T14:11:57Z</time>
      </trkpt>
      <trkpt lat="49.91893" lon="2.22868">
        <ele>15.9</ele>
        <time>2015-12-27T14:12:00Z</time>
      </trkpt>
      <trkpt lat="49.91891" lon="2.22864">
        <ele>15.9</ele>
        <time>2015-12-27T14:12:04Z</time>
      </trkpt>
      <trkpt lat="49.91889" lon="2.22862">
        <ele>16</ele>
        <time>2015-12-27T14:12:06Z</time>
      </trkpt>
      <trkpt lat="49.91885" lon="2.22862">
        <ele>16</ele>
        <time>2015-12-27T14:12:09Z</time>
      </trkpt>
      <trkpt lat="49.91883" lon="2.22859">
        <ele>16.1</ele>
        <time>2015-12-27T14:12:11Z</time>
      </trkpt>
      <trkpt lat="49.91879" lon="2.22859">
        <ele>16.1</ele>
        <time>2015-12-27T14:12:12Z</time>
      </trkpt>
      <trkpt lat="49.91876" lon="2.22856">
        <ele>16.2</ele>
        <time>2015-12-27T14:12:15Z</time>
      </trkpt>
      <trkpt lat="49.91873" lon="2.22858">
        <ele>16.2</ele>
        <time>2015-12-27T14:12:17Z</time>
      </trkpt>
      <trkpt lat="49.91871" lon="2.2286">
        <ele>16.2</ele>
        <time>2015-12-27T14:12:18Z</time>
      </trkpt>
      <trkpt lat="49.91869" lon="2.22864">
        <ele>16.1</ele>
        <time>2015-12-27T14:12:21Z</time>
      </trkpt>
      <trkpt lat="49.91868" lon="2.22869">
        <ele>16.1</ele>
        <time>2015-12-27T14:12:23Z</time>
      </trkpt>
      <trkpt lat="49.91867" lon="2.22873">
        <ele>16</ele>
        <time>2015-12-27T14:12:26Z</time>
      </trkpt>
      <trkpt lat="49.91865" lon="2.22878">
        <ele>16</ele>
        <time>2015-12-27T14:12:29Z</time>
      </trkpt>
      <trkpt lat="49.91863" lon="2.22882">
        <ele>16</ele>
        <time>2015-12-27T14:12:33Z</time>
      </trkpt>
      <trkpt lat="49.91862" lon="2.22886">
        <ele>16</ele>
        <time>2015-12-27T14:12:36Z</time>
      </trkpt>
      <trkpt lat="49.91862" lon="2.22891">
        <ele>16</ele>
        <time>2015-12-27T14:12:39Z</time>
      </trkpt>
      <trkpt lat="49.9186" lon="2.22896">
        <ele>16</ele>
        <time>2015-12-27T14:12:42Z</time>
      </trkpt>
      <trkpt lat="49.9186" lon="2.22901">
        <ele>16.1</ele>
        <time>2015-12-27T14:12:45Z</time>
      </trkpt>
      <trkpt lat="49.91862" lon="2.22907">
        <ele>16.1</ele>
        <time>2015-12-27T14:12:46Z</time>
      </trkpt>
      <trkpt lat="49.91863" lon="2.22911">
        <ele>16.1</ele>
        <time>2015-12-27T14:12:48Z</time>
      </trkpt>
      <trkpt lat="49.91863" lon="2.22916">
        <ele>16.1</ele>
        <time>2015-12-27T14:12:53Z</time>
      </trkpt>
      <trkpt lat="49.91862" lon="2.22922">
        <ele>16.1</ele>
        <time>2015-12-27T14:12:58Z</time>
      </trkpt>
      <trkpt lat="49.91862" lon="2.22927">
        <ele>16.1</ele>
        <time>2015-12-27T14:13:02Z</time>
      </trkpt>
      <trkpt lat="49.91861" lon="2.22932">
        <ele>16.1</ele>
        <time>2015-12-27T14:13:07Z</time>
      </trkpt>
      <trkpt lat="49.91859" lon="2.22934">
        <ele>16.1</ele>
        <time>2015-12-27T14:13:10Z</time>
      </trkpt>
      <trkpt lat="49.91858" lon="2.2294">
        <ele>16.2</ele>
        <time>2015-12-27T14:13:13Z</time>
      </trkpt>
      <trkpt lat="49.91857" lon="2.22944">
        <ele>16.2</ele>
        <time>2015-12-27T14:13:15Z</time>
      </trkpt>
      <trkpt lat="49.91857" lon="2.22949">
        <ele>16.2</ele>
        <time>2015-12-27T14:13:18Z</time>
      </trkpt>
      <trkpt lat="49.91856" lon="2.22954">
        <ele>16.2</ele>
        <time>2015-12-27T14:13:21Z</time>
      </trkpt>
      <trkpt lat="49.91855" lon="2.22957">
        <ele>16.2</ele>
        <time>2015-12-27T14:13:24Z</time>
      </trkpt>
      <trkpt lat="49.91854" lon="2.22962">
        <ele>16.3</ele>
        <time>2015-12-27T14:13:27Z</time>
      </trkpt>
      <trkpt lat="49.91852" lon="2.22966">
        <ele>16.3</ele>
        <time>2015-12-27T14:13:29Z</time>
      </trkpt>
      <trkpt lat="49.91851" lon="2.2297">
        <ele>16.3</ele>
        <time>2015-12-27T14:13:32Z</time>
      </trkpt>
      <trkpt lat="49.91848" lon="2.22971">
        <ele>16.3</ele>
        <time>2015-12-27T14:13:38Z</time>
      </trkpt>
      <trkpt lat="49.91848" lon="2.22978">
        <ele>16.3</ele>
        <time>2015-12-27T14:13:41Z</time>
      </trkpt>
      <trkpt lat="49.91847" lon="2.22981">
        <ele>16.3</ele>
        <time>2015-12-27T14:13:47Z</time>
      </trkpt>
      <trkpt lat="49.91845" lon="2.22985">
        <ele>16.4</ele>
        <time>2015-12-27T14:13:50Z</time>
      </trkpt>
      <trkpt lat="49.91843" lon="2.2299">
        <ele>16.4</ele>
        <time>2015-12-27T14:13:55Z</time>
      </trkpt>
      <trkpt lat="49.9184" lon="2.22994">
        <ele>16.4</ele>
        <time>2015-12-27T14:13:58Z</time>
      </trkpt>
      <trkpt lat="49.91838" lon="2.22998">
        <ele>16.4</ele>
        <time>2015-12-27T14:14:02Z</time>
      </trkpt>
      <trkpt lat="49.91839" lon="2.23003">
        <ele>16.4</ele>
        <time>2015-12-27T14:14:04Z</time>
      </trkpt>
      <trkpt lat="49.91838" lon="2.23007">
        <ele>16.4</ele>
        <time>2015-12-27T14:14:07Z</time>
      </trkpt>
      <trkpt lat="49.91837" lon="2.23011">
        <ele>16.5</ele>
        <time>2015-12-27T14:14:10Z</time>
      </trkpt>
      <trkpt lat="49.91836" lon="2.23016">
        <ele>16.5</ele>
        <time>2015-12-27T14:14:13Z</time>
      </trkpt>
      <trkpt lat="49.91835" lon="2.23021">
        <ele>16.5</ele>
        <time>2015-12-27T14:14:17Z</time>
      </trkpt>
      <trkpt lat="49.91834" lon="2.23025">
        <ele>16.5</ele>
        <time>2015-12-27T14:14:20Z</time>
      </trkpt>
      <trkpt lat="49.91834" lon="2.23031">
        <ele>16.5</ele>
        <time>2015-12-27T14:14:22Z</time>
      </trkpt>
      <trkpt lat="49.91833" lon="2.23035">
        <ele>16.5</ele>
        <time>2015-12-27T14:14:25Z</time>
      </trkpt>
      <trkpt lat="49.91833" lon="2.23039">
        <ele>16.5</ele>
        <time>2015-12-27T14:14:27Z</time>
      </trkpt>
      <trkpt lat="49.91833" lon="2.23044">
        <ele>16.5</ele>
        <time>2015-12-27T14:14:30Z</time>
      </trkpt>
      <trkpt lat="49.91832" lon="2.2305">
        <ele>16.5</ele>
        <time>2015-12-27T14:14:34Z</time>
      </trkpt>
      <trkpt lat="49.91832" lon="2.23054">
        <ele>16.4</ele>
        <time>2015-12-27T14:14:36Z</time>
      </trkpt>
      <trkpt lat="49.91831" lon="2.23059">
        <ele>16.4</ele>
        <time>2015-12-27T14:14:39Z</time>
      </trkpt>
      <trkpt lat="49.9183" lon="2.23064">
        <ele>16.4</ele>
        <time>2015-12-27T14:14:42Z</time>
      </trkpt>
      <trkpt lat="49.91829" lon="2.2307">
        <ele>16.4</ele>
        <time>2015-12-27T14:14:47Z</time>
      </trkpt>
      <trkpt lat="49.91827" lon="2.23074">
        <ele>16.4</ele>
        <time>2015-12-27T14:14:51Z</time>
      </trkpt>
      <trkpt lat="49.91826" lon="2.23079">
        <ele>16.4</ele>
        <time>2015-12-27T14:14:54Z</time>
      </trkpt>
      <trkpt lat="49.91827" lon="2.23083">
        <ele>16.4</ele>
        <time>2015-12-27T14:14:58Z</time>
      </trkpt>
      <trkpt lat="49.91825" lon="2.23087">
        <ele>16.4</ele>
        <time>2015-12-27T14:15:01Z</time>
      </trkpt>
      <trkpt lat="49.91825" lon="2.23092">
        <ele>16.4</ele>
        <time>2015-12-27T14:15:04Z</time>
      </trkpt>
      <trkpt lat="49.91823" lon="2.23095">
        <ele>16.4</ele>
        <time>2015-12-27T14:15:07Z</time>
      </trkpt>
      <trkpt lat="49.91824" lon="2.23099">
        <ele>16.4</ele>
        <time>2015-12-27T14:15:09Z</time>
      </trkpt>
      <trkpt lat="49.91822" lon="2.23104">
        <ele>16.4</ele>
        <time>2015-12-27T14:15:12Z</time>
      </trkpt>
      <trkpt lat="49.91821" lon="2.23109">
        <ele>16.4</ele>
        <time>2015-12-27T14:15:16Z</time>
      </trkpt>
      <trkpt lat="49.91821" lon="2.23113">
        <ele>16.3</ele>
        <time>2015-12-27T14:15:19Z</time>
      </trkpt>
      <trkpt lat="49.91822" lon="2.23118">
        <ele>16.3</ele>
        <time>2015-12-27T14:15:22Z</time>
      </trkpt>
      <trkpt lat="49.91823" lon="2.23124">
        <ele>16.3</ele>
        <time>2015-12-27T14:15:35Z</time>
      </trkpt>
      <trkpt lat="49.91821" lon="2.23129">
        <ele>16.3</ele>
        <time>2015-12-27T14:15:39Z</time>
      </trkpt>
      <trkpt lat="49.91819" lon="2.23132">
        <ele>16.3</ele>
        <time>2015-12-27T14:15:44Z</time>
      </trkpt>
      <trkpt lat="49.91818" lon="2.23136">
        <ele>16.4</ele>
        <time>2015-12-27T14:15:48Z</time>
      </trkpt>
      <trkpt lat="49.91816" lon="2.23139">
        <ele>16.4</ele>
        <time>2015-12-27T14:15:51Z</time>
      </trkpt>
      <trkpt lat="49.91813" lon="2.23143">
        <ele>16.5</ele>
        <time>2015-12-27T14:15:55Z</time>
      </trkpt>
      <trkpt lat="49.91812" lon="2.23149">
        <ele>16.5</ele>
        <time>2015-12-27T14:15:59Z</time>
      </trkpt>
      <trkpt lat="49.9181" lon="2.23154">
        <ele>16.6</ele>
        <time>2015-12-27T14:16:03Z</time>
      </trkpt>
      <trkpt lat="49.91809" lon="2.23159">
        <ele>16.6</ele>
        <time>2015-12-27T14:16:06Z</time>
      </trkpt>
      <trkpt lat="49.91808" lon="2.23163">
        <ele>16.6</ele>
        <time>2015-12-27T14:16:08Z</time>
      </trkpt>
      <trkpt lat="49.91806" lon="2.23168">
        <ele>16.7</ele>
        <time>2015-12-27T14:16:13Z</time>
      </trkpt>
      <trkpt lat="49.91804" lon="2.23172">
        <ele>16.7</ele>
        <time>2015-12-27T14:16:16Z</time>
      </trkpt>
      <trkpt lat="49.91802" lon="2.23177">
        <ele>16.8</ele>
        <time>2015-12-27T14:16:19Z</time>
      </trkpt>
      <trkpt lat="49.918" lon="2.23182">
        <ele>16.8</ele>
        <time>2015-12-27T14:16:23Z</time>
      </trkpt>
      <trkpt lat="49.91799" lon="2.23186">
        <ele>16.8</ele>
        <time>2015-12-27T14:16:26Z</time>
      </trkpt>
      <trkpt lat="49.91798" lon="2.23189">
        <ele>16.9</ele>
        <time>2015-12-27T14:16:28Z</time>
      </trkpt>
      <trkpt lat="49.91796" lon="2.23194">
        <ele>16.9</ele>
        <time>2015-12-27T14:16:31Z</time>
      </trkpt>
      <trkpt lat="49.91795" lon="2.23198">
        <ele>16.9</ele>
        <time>2015-12-27T14:16:34Z</time>
      </trkpt>
      <trkpt lat="49.91795" lon="2.23203">
        <ele>16.9</ele>
        <time>2015-12-27T14:16:39Z</time>
      </trkpt>
      <trkpt lat="49.91793" lon="2.23207">
        <ele>17</ele>
        <time>2015-12-27T14:16:41Z</time>
      </trkpt>
      <trkpt lat="49.91791" lon="2.23212">
        <ele>17</ele>
        <time>2015-12-27T14:16:44Z</time>
      </trkpt>
      <trkpt lat="49.91789" lon="2.23216">
        <ele>17</ele>
        <time>2015-12-27T14:16:46Z</time>
      </trkpt>
      <trkpt lat="49.91788" lon="2.2322">
        <ele>17</ele>
        <time>2015-12-27T14:16:50Z</time>
      </trkpt>
      <trkpt lat="49.91786" lon="2.23224">
        <ele>17</ele>
        <time>2015-12-27T14:16:53Z</time>
      </trkpt>
      <trkpt lat="49.91785" lon="2.23229">
        <ele>17</ele>
        <time>2015-12-27T14:16:57Z</time>
      </trkpt>
      <trkpt lat="49.91785" lon="2.23235">
        <ele>16.9</ele>
        <time>2015-12-27T14:17:01Z</time>
      </trkpt>
      <trkpt lat="49.91784" lon="2.2324">
        <ele>16.8</ele>
        <time>2015-12-27T14:17:05Z</time>
      </trkpt>
      <trkpt lat="49.91782" lon="2.23245">
        <ele>16.8</ele>
        <time>2015-12-27T14:17:09Z</time>
      </trkpt>
      <trkpt lat="49.91782" lon="2.23249">
        <ele>16.8</ele>
        <time>2015-12-27T14:17:11Z</time>
      </trkpt>
      <trkpt lat="49.91782" lon="2.23254">
        <ele>16.7</ele>
        <time>2015-12-27T14:17:14Z</time>
      </trkpt>
      <trkpt lat="49.91782" lon="2.23259">
        <ele>16.6</ele>
        <time>2015-12-27T14:17:17Z</time>
      </trkpt>
      <trkpt lat="49.91781" lon="2.23264">
        <ele>16.5</ele>
        <time>2015-12-27T14:17:21Z</time>
      </trkpt>
      <trkpt lat="49.91781" lon="2.23268">
        <ele>16.5</ele>
        <time>2015-12-27T14:17:25Z</time>
      </trkpt>
      <trkpt lat="49.9178" lon="2.23273">
        <ele>16.4</ele>
        <time>2015-12-27T14:17:28Z</time>
      </trkpt>
      <trkpt lat="49.91781" lon="2.23278">
        <ele>16.3</ele>
        <time>2015-12-27T14:17:31Z</time>
      </trkpt>
      <trkpt lat="49.91782" lon="2.23281">
        <ele>16.3</ele>
        <time>2015-12-27T14:17:33Z</time>
      </trkpt>
      <trkpt lat="49.91782" lon="2.23286">
        <ele>16.2</ele>
        <time>2015-12-27T14:17:36Z</time>
      </trkpt>
      <trkpt lat="49.91782" lon="2.23292">
        <ele>16.1</ele>
        <time>2015-12-27T14:17:38Z</time>
      </trkpt>
      <trkpt lat="49.91782" lon="2.23297">
        <ele>16.1</ele>
        <time>2015-12-27T14:17:43Z</time>
      </trkpt>
      <trkpt lat="49.91783" lon="2.23302">
        <ele>16.1</ele>
        <time>2015-12-27T14:17:46Z</time>
      </trkpt>
      <trkpt lat="49.91783" lon="2.23307">
        <ele>16.1</ele>
        <time>2015-12-27T14:17:48Z</time>
      </trkpt>
      <trkpt lat="49.91784" lon="2.23311">
        <ele>16.1</ele>
        <time>2015-12-27T14:17:51Z</time>
      </trkpt>
      <trkpt lat="49.91785" lon="2.23316">
        <ele>16.1</ele>
        <time>2015-12-27T14:17:57Z</time>
      </trkpt>
      <trkpt lat="49.91785" lon="2.2332">
        <ele>16.1</ele>
        <time>2015-12-27T14:18:01Z</time>
      </trkpt>
      <trkpt lat="49.91786" lon="2.23325">
        <ele>16</ele>
        <time>2015-12-27T14:18:07Z</time>
      </trkpt>
      <trkpt lat="49.91787" lon="2.23331">
        <ele>16</ele>
        <time>2015-12-27T14:18:13Z</time>
      </trkpt>
      <trkpt lat="49.91786" lon="2.23336">
        <ele>16</ele>
        <time>2015-12-27T14:18:16Z</time>
      </trkpt>
      <trkpt lat="49.91786" lon="2.2334">
        <ele>16</ele>
        <time>2015-12-27T14:18:18Z</time>
      </trkpt>
      <trkpt lat="49.91786" lon="2.23345">
        <ele>16</ele>
        <time>2015-12-27T14:18:23Z</time>
      </trkpt>
      <trkpt lat="49.91786" lon="2.2335">
        <ele>16</ele>
        <time>2015-12-27T14:18:26Z</time>
      </trkpt>
      <trkpt lat="49.91787" lon="2.23355">
        <ele>16</ele>
        <time>2015-12-27T14:18:28Z</time>
      </trkpt>
      <trkpt lat="49.91787" lon="2.23359">
        <ele>16</ele>
        <time>2015-12-27T14:18:31Z</time>
      </trkpt>
      <trkpt lat="49.91788" lon="2.23363">
        <ele>16</ele>
        <time>2015-12-27T14:18:36Z</time>
      </trkpt>
      <trkpt lat="49.91789" lon="2.23368">
        <ele>16</ele>
        <time>2015-12-27T14:18:39Z</time>
      </trkpt>
      <trkpt lat="49.91789" lon="2.23372">
        <ele>16</ele>
        <time>2015-12-27T14:18:41Z</time>
      </trkpt>
      <trkpt lat="49.91789" lon="2.23377">
        <ele>16</ele>
        <time>2015-12-27T14:18:45Z</time>
      </trkpt>
      <trkpt lat="49.91789" lon="2.23382">
        <ele>16</ele>
        <time>2015-12-27T14:18:50Z</time>
      </trkpt>
      <trkpt lat="49.91789" lon="2.23387">
        <ele>16</ele>
        <time>2015-12-27T14:18:53Z</time>
      </trkpt>
      <trkpt lat="49.9179" lon="2.23392">
        <ele>16</ele>
        <time>2015-12-27T14:18:57Z</time>
      </trkpt>
      <trkpt lat="49.91792" lon="2.23397">
        <ele>16</ele>
        <time>2015-12-27T14:18:59Z</time>
      </trkpt>
      <trkpt lat="49.91793" lon="2.23402">
        <ele>16</ele>
        <time>2015-12-27T14:19:02Z</time>
      </trkpt>
      <trkpt lat="49.91794" lon="2.23406">
        <ele>16</ele>
        <time>2015-12-27T14:19:03Z</time>
      </trkpt>
      <trkpt lat="49.91794" lon="2.23413">
        <ele>16.1</ele>
        <time>2015-12-27T14:19:05Z</time>
      </trkpt>
      <trkpt lat="49.91794" lon="2.23418">
        <ele>16.1</ele>
        <time>2015-12-27T14:19:07Z</time>
      </trkpt>
      <trkpt lat="49.91793" lon="2.23425">
        <ele>16</ele>
        <time>2015-12-27T14:19:12Z</time>
      </trkpt>
      <trkpt lat="49.91793" lon="2.23429">
        <ele>16</ele>
        <time>2015-12-27T14:19:16Z</time>
      </trkpt>
      <trkpt lat="49.91793" lon="2.23434">
        <ele>16</ele>
        <time>2015-12-27T14:19:19Z</time>
      </trkpt>
      <trkpt lat="49.91792" lon="2.23439">
        <ele>16</ele>
        <time>2015-12-27T14:19:21Z</time>
      </trkpt>
      <trkpt lat="49.91792" lon="2.23444">
        <ele>16</ele>
        <time>2015-12-27T14:19:24Z</time>
      </trkpt>
      <trkpt lat="49.91792" lon="2.23449">
        <ele>16</ele>
        <time>2015-12-27T14:19:27Z</time>
      </trkpt>
      <trkpt lat="49.91791" lon="2.23454">
        <ele>16</ele>
        <time>2015-12-27T14:19:31Z</time>
      </trkpt>
      <trkpt lat="49.91794" lon="2.23463">
        <ele>16.1</ele>
        <time>2015-12-27T14:19:34Z</time>
      </trkpt>
      <trkpt lat="49.91793" lon="2.23467">
        <ele>16</ele>
        <time>2015-12-27T14:19:37Z</time>
      </trkpt>
      <trkpt lat="49.91791" lon="2.23471">
        <ele>16</ele>
        <time>2015-12-27T14:19:41Z</time>
      </trkpt>
      <trkpt lat="49.9179" lon="2.23475">
        <ele>16</ele>
        <time>2015-12-27T14:19:44Z</time>
      </trkpt>
      <trkpt lat="49.91788" lon="2.23479">
        <ele>16</ele>
        <time>2015-12-27T14:19:47Z</time>
      </trkpt>
      <trkpt lat="49.91785" lon="2.23482">
        <ele>16</ele>
        <time>2015-12-27T14:19:50Z</time>
      </trkpt>
      <trkpt lat="49.91783" lon="2.23484">
        <ele>16</ele>
        <time>2015-12-27T14:19:54Z</time>
      </trkpt>
      <trkpt lat="49.91782" lon="2.23489">
        <ele>16</ele>
        <time>2015-12-27T14:19:59Z</time>
      </trkpt>
      <trkpt lat="49.9178" lon="2.23491">
        <ele>16</ele>
        <time>2015-12-27T14:20:03Z</time>
      </trkpt>
      <trkpt lat="49.91779" lon="2.23496">
        <ele>16</ele>
        <time>2015-12-27T14:20:06Z</time>
      </trkpt>
      <trkpt lat="49.91777" lon="2.235">
        <ele>16</ele>
        <time>2015-12-27T14:20:08Z</time>
      </trkpt>
      <trkpt lat="49.91775" lon="2.23505">
        <ele>16</ele>
        <time>2015-12-27T14:20:12Z</time>
      </trkpt>
      <trkpt lat="49.91773" lon="2.23509">
        <ele>16</ele>
        <time>2015-12-27T14:20:15Z</time>
      </trkpt>
      <trkpt lat="49.91773" lon="2.23516">
        <ele>16</ele>
        <time>2015-12-27T14:20:20Z</time>
      </trkpt>
      <trkpt lat="49.91775" lon="2.23523">
        <ele>16</ele>
        <time>2015-12-27T14:20:22Z</time>
      </trkpt>
      <trkpt lat="49.91772" lon="2.23524">
        <ele>16</ele>
        <time>2015-12-27T14:20:24Z</time>
      </trkpt>
      <trkpt lat="49.91774" lon="2.23528">
        <ele>16</ele>
        <time>2015-12-27T14:20:26Z</time>
      </trkpt>
      <trkpt lat="49.91773" lon="2.23533">
        <ele>16</ele>
        <time>2015-12-27T14:20:30Z</time>
      </trkpt>
      <trkpt lat="49.91773" lon="2.23537">
        <ele>16</ele>
        <time>2015-12-27T14:20:32Z</time>
      </trkpt>
      <trkpt lat="49.91774" lon="2.23542">
        <ele>16</ele>
        <time>2015-12-27T14:20:35Z</time>
      </trkpt>
      <trkpt lat="49.91773" lon="2.23546">
        <ele>15.9</ele>
        <time>2015-12-27T14:20:39Z</time>
      </trkpt>
      <trkpt lat="49.91772" lon="2.23552">
        <ele>15.9</ele>
        <time>2015-12-27T14:20:42Z</time>
      </trkpt>
      <trkpt lat="49.9177" lon="2.23555">
        <ele>15.8</ele>
        <time>2015-12-27T14:20:46Z</time>
      </trkpt>
      <trkpt lat="49.91771" lon="2.2356">
        <ele>15.8</ele>
        <time>2015-12-27T14:20:49Z</time>
      </trkpt>
      <trkpt lat="49.91772" lon="2.23567">
        <ele>15.7</ele>
        <time>2015-12-27T14:20:52Z</time>
      </trkpt>
      <trkpt lat="49.91773" lon="2.23572">
        <ele>15.6</ele>
        <time>2015-12-27T14:20:55Z</time>
      </trkpt>
      <trkpt lat="49.91774" lon="2.23577">
        <ele>15.6</ele>
        <time>2015-12-27T14:20:57Z</time>
      </trkpt>
      <trkpt lat="49.91774" lon="2.23582">
        <ele>15.5</ele>
        <time>2015-12-27T14:21:00Z</time>
      </trkpt>
      <trkpt lat="49.91775" lon="2.23588">
        <ele>15.4</ele>
        <time>2015-12-27T14:21:02Z</time>
      </trkpt>
      <trkpt lat="49.91776" lon="2.23593">
        <ele>15.4</ele>
        <time>2015-12-27T14:21:05Z</time>
      </trkpt>
      <trkpt lat="49.91775" lon="2.23598">
        <ele>15.3</ele>
        <time>2015-12-27T14:21:08Z</time>
      </trkpt>
      <trkpt lat="49.91774" lon="2.23603">
        <ele>15.3</ele>
        <time>2015-12-27T14:21:13Z</time>
      </trkpt>
      <trkpt lat="49.91773" lon="2.23608">
        <ele>15.2</ele>
        <time>2015-12-27T14:21:16Z</time>
      </trkpt>
      <trkpt lat="49.91774" lon="2.23613">
        <ele>15.1</ele>
        <time>2015-12-27T14:21:19Z</time>
      </trkpt>
      <trkpt lat="49.91774" lon="2.23618">
        <ele>15.1</ele>
        <time>2015-12-27T14:21:22Z</time>
      </trkpt>
      <trkpt lat="49.91774" lon="2.23622">
        <ele>15</ele>
        <time>2015-12-27T14:21:26Z</time>
      </trkpt>
      <trkpt lat="49.91775" lon="2.23626">
        <ele>15</ele>
        <time>2015-12-27T14:21:29Z</time>
      </trkpt>
      <trkpt lat="49.91774" lon="2.2363">
        <ele>15.1</ele>
        <time>2015-12-27T14:21:32Z</time>
      </trkpt>
      <trkpt lat="49.91774" lon="2.23635">
        <ele>15.1</ele>
        <time>2015-12-27T14:21:36Z</time>
      </trkpt>
      <trkpt lat="49.91772" lon="2.23639">
        <ele>15.2</ele>
        <time>2015-12-27T14:21:41Z</time>
      </trkpt>
      <trkpt lat="49.91773" lon="2.23645">
        <ele>15.3</ele>
        <time>2015-12-27T14:21:45Z</time>
      </trkpt>
      <trkpt lat="49.91774" lon="2.23649">
        <ele>15.4</ele>
        <time>2015-12-27T14:21:47Z</time>
      </trkpt>
      <trkpt lat="49.91773" lon="2.23655">
        <ele>15.4</ele>
        <time>2015-12-27T14:21:52Z</time>
      </trkpt>
      <trkpt lat="49.91773" lon="2.2366">
        <ele>15.5</ele>
        <time>2015-12-27T14:21:55Z</time>
      </trkpt>
      <trkpt lat="49.91773" lon="2.23665">
        <ele>15.6</ele>
        <time>2015-12-27T14:21:58Z</time>
      </trkpt>
      <trkpt lat="49.91774" lon="2.23669">
        <ele>15.6</ele>
        <time>2015-12-27T14:22:01Z</time>
      </trkpt>
      <trkpt lat="49.91773" lon="2.23675">
        <ele>15.7</ele>
        <time>2015-12-27T14:22:05Z</time>
      </trkpt>
      <trkpt lat="49.91772" lon="2.23679">
        <ele>15.8</ele>
        <time>2015-12-27T14:22:08Z</time>
      </trkpt>
      <trkpt lat="49.91772" lon="2.23686">
        <ele>15.9</ele>
        <time>2015-12-27T14:22:11Z</time>
      </trkpt>
      <trkpt lat="49.91772" lon="2.23691">
        <ele>16</ele>
        <time>2015-12-27T14:22:13Z</time>
      </trkpt>
      <trkpt lat="49.91771" lon="2.23695">
        <ele>16</ele>
        <time>2015-12-27T14:22:16Z</time>
      </trkpt>
      <trkpt lat="49.9177" lon="2.23699">
        <ele>16.1</ele>
        <time>2015-12-27T14:22:19Z</time>
      </trkpt>
      <trkpt lat="49.9177" lon="2.23706">
        <ele>16.2</ele>
        <time>2015-12-27T14:22:21Z</time>
      </trkpt>
      <trkpt lat="49.91769" lon="2.23711">
        <ele>16.4</ele>
        <time>2015-12-27T14:22:24Z</time>
      </trkpt>
      <trkpt lat="49.91768" lon="2.23715">
        <ele>16.5</ele>
        <time>2015-12-27T14:22:27Z</time>
      </trkpt>
      <trkpt lat="49.91767" lon="2.23719">
        <ele>16.6</ele>
        <time>2015-12-27T14:22:30Z</time>
      </trkpt>
      <trkpt lat="49.91765" lon="2.23724">
        <ele>16.8</ele>
        <time>2015-12-27T14:22:34Z</time>
      </trkpt>
      <trkpt lat="49.91764" lon="2.23729">
        <ele>17</ele>
        <time>2015-12-27T14:22:37Z</time>
      </trkpt>
      <trkpt lat="49.91762" lon="2.23733">
        <ele>17.1</ele>
        <time>2015-12-27T14:22:42Z</time>
      </trkpt>
      <trkpt lat="49.91761" lon="2.23737">
        <ele>17.3</ele>
        <time>2015-12-27T14:22:44Z</time>
      </trkpt>
      <trkpt lat="49.91759" lon="2.23741">
        <ele>17.4</ele>
        <time>2015-12-27T14:22:47Z</time>
      </trkpt>
      <trkpt lat="49.91758" lon="2.23745">
        <ele>17.6</ele>
        <time>2015-12-27T14:22:52Z</time>
      </trkpt>
      <trkpt lat="49.91758" lon="2.23751">
        <ele>17.7</ele>
        <time>2015-12-27T14:22:56Z</time>
      </trkpt>
      <trkpt lat="49.91755" lon="2.23755">
        <ele>17.9</ele>
        <time>2015-12-27T14:22:58Z</time>
      </trkpt>
      <trkpt lat="49.91755" lon="2.23759">
        <ele>18</ele>
        <time>2015-12-27T14:23:00Z</time>
      </trkpt>
      <trkpt lat="49.91754" lon="2.23764">
        <ele>18.1</ele>
        <time>2015-12-27T14:23:02Z</time>
      </trkpt>
      <trkpt lat="49.91752" lon="2.23768">
        <ele>18.3</ele>
        <time>2015-12-27T14:23:04Z</time>
      </trkpt>
      <trkpt lat="49.91751" lon="2.23772">
        <ele>18.4</ele>
        <time>2015-12-27T14:23:07Z</time>
      </trkpt>
      <trkpt lat="49.9175" lon="2.23777">
        <ele>18.6</ele>
        <time>2015-12-27T14:23:11Z</time>
      </trkpt>
      <trkpt lat="49.9175" lon="2.23784">
        <ele>18.8</ele>
        <time>2015-12-27T14:23:15Z</time>
      </trkpt>
      <trkpt lat="49.91751" lon="2.23789">
        <ele>18.9</ele>
        <time>2015-12-27T14:23:17Z</time>
      </trkpt>
      <trkpt lat="49.91752" lon="2.23795">
        <ele>19</ele>
        <time>2015-12-27T14:23:20Z</time>
      </trkpt>
      <trkpt lat="49.91751" lon="2.238">
        <ele>19.1</ele>
        <time>2015-12-27T14:23:23Z</time>
      </trkpt>
      <trkpt lat="49.9175" lon="2.23806">
        <ele>19.1</ele>
        <time>2015-12-27T14:23:26Z</time>
      </trkpt>
      <trkpt lat="49.9175" lon="2.23811">
        <ele>19.1</ele>
        <time>2015-12-27T14:23:29Z</time>
      </trkpt>
      <trkpt lat="49.91747" lon="2.23814">
        <ele>19.1</ele>
        <time>2015-12-27T14:23:32Z</time>
      </trkpt>
      <trkpt lat="49.91749" lon="2.2382">
        <ele>19.2</ele>
        <time>2015-12-27T14:23:35Z</time>
      </trkpt>
      <trkpt lat="49.91749" lon="2.23825">
        <ele>19.2</ele>
        <time>2015-12-27T14:23:38Z</time>
      </trkpt>
      <trkpt lat="49.91751" lon="2.23832">
        <ele>19.2</ele>
        <time>2015-12-27T14:23:40Z</time>
      </trkpt>
      <trkpt lat="49.91751" lon="2.23837">
        <ele>19.3</ele>
        <time>2015-12-27T14:23:42Z</time>
      </trkpt>
      <trkpt lat="49.91752" lon="2.23842">
        <ele>19.3</ele>
        <time>2015-12-27T14:23:44Z</time>
      </trkpt>
      <trkpt lat="49.91751" lon="2.23847">
        <ele>19.3</ele>
        <time>2015-12-27T14:23:47Z</time>
      </trkpt>
      <trkpt lat="49.91751" lon="2.23854">
        <ele>19.4</ele>
        <time>2015-12-27T14:23:49Z</time>
      </trkpt>
      <trkpt lat="49.91753" lon="2.23858">
        <ele>19.4</ele>
        <time>2015-12-27T14:23:55Z</time>
      </trkpt>
      <trkpt lat="49.91755" lon="2.23861">
        <ele>19.4</ele>
        <time>2015-12-27T14:23:59Z</time>
      </trkpt>
      <trkpt lat="49.91757" lon="2.23866">
        <ele>19.4</ele>
        <time>2015-12-27T14:24:02Z</time>
      </trkpt>
      <trkpt lat="49.91758" lon="2.2387">
        <ele>19.4</ele>
        <time>2015-12-27T14:24:05Z</time>
      </trkpt>
      <trkpt lat="49.9176" lon="2.23875">
        <ele>19.4</ele>
        <time>2015-12-27T14:24:08Z</time>
      </trkpt>
      <trkpt lat="49.9176" lon="2.2388">
        <ele>19.3</ele>
        <time>2015-12-27T14:24:10Z</time>
      </trkpt>
      <trkpt lat="49.91762" lon="2.23885">
        <ele>19.1</ele>
        <time>2015-12-27T14:24:13Z</time>
      </trkpt>
      <trkpt lat="49.91764" lon="2.2389">
        <ele>19</ele>
        <time>2015-12-27T14:24:16Z</time>
      </trkpt>
      <trkpt lat="49.91766" lon="2.23893">
        <ele>18.9</ele>
        <time>2015-12-27T14:24:20Z</time>
      </trkpt>
      <trkpt lat="49.91766" lon="2.23898">
        <ele>18.8</ele>
        <time>2015-12-27T14:24:23Z</time>
      </trkpt>
      <trkpt lat="49.91768" lon="2.23903">
        <ele>18.6</ele>
        <time>2015-12-27T14:24:27Z</time>
      </trkpt>
      <trkpt lat="49.9177" lon="2.23906">
        <ele>18.5</ele>
        <time>2015-12-27T14:24:30Z</time>
      </trkpt>
      <trkpt lat="49.91771" lon="2.2391">
        <ele>18.4</ele>
        <time>2015-12-27T14:24:32Z</time>
      </trkpt>
      <trkpt lat="49.91773" lon="2.23918">
        <ele>18.2</ele>
        <time>2015-12-27T14:24:35Z</time>
      </trkpt>
      <trkpt lat="49.91775" lon="2.23922">
        <ele>18.1</ele>
        <time>2015-12-27T14:24:37Z</time>
      </trkpt>
      <trkpt lat="49.91777" lon="2.23928">
        <ele>17.9</ele>
        <time>2015-12-27T14:24:40Z</time>
      </trkpt>
      <trkpt lat="49.91779" lon="2.23936">
        <ele>17.7</ele>
        <time>2015-12-27T14:24:43Z</time>
      </trkpt>
      <trkpt lat="49.9178" lon="2.2394">
        <ele>17.6</ele>
        <time>2015-12-27T14:24:45Z</time>
      </trkpt>
      <trkpt lat="49.91781" lon="2.23946">
        <ele>17.4</ele>
        <time>2015-12-27T14:24:48Z</time>
      </trkpt>
      <trkpt lat="49.91784" lon="2.23952">
        <ele>17.3</ele>
        <time>2015-12-27T14:24:51Z</time>
      </trkpt>
      <trkpt lat="49.91786" lon="2.23955">
        <ele>17.2</ele>
        <time>2015-12-27T14:24:54Z</time>
      </trkpt>
      <trkpt lat="49.91787" lon="2.23961">
        <ele>17.1</ele>
        <time>2015-12-27T14:24:58Z</time>
      </trkpt>
      <trkpt lat="49.9179" lon="2.23963">
        <ele>17</ele>
        <time>2015-12-27T14:25:02Z</time>
      </trkpt>
      <trkpt lat="49.91793" lon="2.23966">
        <ele>17</ele>
        <time>2015-12-27T14:25:05Z</time>
      </trkpt>
      <trkpt lat="49.91796" lon="2.23969">
        <ele>16.9</ele>
        <time>2015-12-27T14:25:07Z</time>
      </trkpt>
      <trkpt lat="49.91798" lon="2.23972">
        <ele>16.8</ele>
        <time>2015-12-27T14:25:10Z</time>
      </trkpt>
      <trkpt lat="49.91801" lon="2.23974">
        <ele>16.8</ele>
        <time>2015-12-27T14:25:12Z</time>
      </trkpt>
      <trkpt lat="49.91803" lon="2.23978">
        <ele>16.7</ele>
        <time>2015-12-27T14:25:14Z</time>
      </trkpt>
      <trkpt lat="49.91805" lon="2.2398">
        <ele>16.6</ele>
        <time>2015-12-27T14:25:18Z</time>
      </trkpt>
      <trkpt lat="49.91808" lon="2.2398">
        <ele>16.5</ele>
        <time>2015-12-27T14:25:22Z</time>
      </trkpt>
      <trkpt lat="49.91811" lon="2.2398">
        <ele>16.5</ele>
        <time>2015-12-27T14:25:24Z</time>
      </trkpt>
      <trkpt lat="49.91815" lon="2.23981">
        <ele>16.4</ele>
        <time>2015-12-27T14:25:27Z</time>
      </trkpt>
      <trkpt lat="49.91817" lon="2.23984">
        <ele>16.3</ele>
        <time>2015-12-27T14:25:30Z</time>
      </trkpt>
      <trkpt lat="49.9182" lon="2.23987">
        <ele>16.2</ele>
        <time>2015-12-27T14:25:34Z</time>
      </trkpt>
      <trkpt lat="49.91823" lon="2.2399">
        <ele>16.1</ele>
        <time>2015-12-27T14:25:38Z</time>
      </trkpt>
      <trkpt lat="49.91825" lon="2.23994">
        <ele>16</ele>
        <time>2015-12-27T14:25:40Z</time>
      </trkpt>
      <trkpt lat="49.91828" lon="2.23996">
        <ele>15.9</ele>
        <time>2015-12-27T14:25:43Z</time>
      </trkpt>
      <trkpt lat="49.91831" lon="2.23998">
        <ele>15.8</ele>
        <time>2015-12-27T14:25:46Z</time>
      </trkpt>
      <trkpt lat="49.91834" lon="2.24">
        <ele>15.7</ele>
        <time>2015-12-27T14:25:50Z</time>
      </trkpt>
      <trkpt lat="49.91837" lon="2.24003">
        <ele>15.6</ele>
        <time>2015-12-27T14:25:54Z</time>
      </trkpt>
      <trkpt lat="49.9184" lon="2.24005">
        <ele>15.5</ele>
        <time>2015-12-27T14:25:57Z</time>
      </trkpt>
      <trkpt lat="49.91843" lon="2.24009">
        <ele>15.4</ele>
        <time>2015-12-27T14:26:01Z</time>
      </trkpt>
      <trkpt lat="49.91846" lon="2.24013">
        <ele>15.3</ele>
        <time>2015-12-27T14:26:05Z</time>
      </trkpt>
      <trkpt lat="49.91848" lon="2.24015">
        <ele>15.2</ele>
        <time>2015-12-27T14:26:07Z</time>
      </trkpt>
      <trkpt lat="49.91852" lon="2.24016">
        <ele>15</ele>
        <time>2015-12-27T14:26:11Z</time>
      </trkpt>
      <trkpt lat="49.91855" lon="2.24017">
        <ele>14.9</ele>
        <time>2015-12-27T14:26:14Z</time>
      </trkpt>
      <trkpt lat="49.91858" lon="2.24018">
        <ele>14.8</ele>
        <time>2015-12-27T14:26:18Z</time>
      </trkpt>
      <trkpt lat="49.9186" lon="2.2402">
        <ele>14.7</ele>
        <time>2015-12-27T14:26:21Z</time>
      </trkpt>
      <trkpt lat="49.91862" lon="2.24025">
        <ele>14.6</ele>
        <time>2015-12-27T14:26:23Z</time>
      </trkpt>
      <trkpt lat="49.91865" lon="2.24027">
        <ele>14.5</ele>
        <time>2015-12-27T14:26:27Z</time>
      </trkpt>
      <trkpt lat="49.91868" lon="2.24028">
        <ele>14.4</ele>
        <time>2015-12-27T14:26:29Z</time>
      </trkpt>
      <trkpt lat="49.91869" lon="2.24033">
        <ele>14.3</ele>
        <time>2015-12-27T14:26:31Z</time>
      </trkpt>
      <trkpt lat="49.91872" lon="2.24037">
        <ele>14.2</ele>
        <time>2015-12-27T14:26:33Z</time>
      </trkpt>
      <trkpt lat="49.91875" lon="2.2404">
        <ele>14</ele>
        <time>2015-12-27T14:26:36Z</time>
      </trkpt>
      <trkpt lat="49.91877" lon="2.24044">
        <ele>14.1</ele>
        <time>2015-12-27T14:26:38Z</time>
      </trkpt>
      <trkpt lat="49.91878" lon="2.24049">
        <ele>14.3</ele>
        <time>2015-12-27T14:26:44Z</time>
      </trkpt>
      <trkpt lat="49.91881" lon="2.24051">
        <ele>14.4</ele>
        <time>2015-12-27T14:26:49Z</time>
      </trkpt>
      <trkpt lat="49.91882" lon="2.24056">
        <ele>14.6</ele>
        <time>2015-12-27T14:26:52Z</time>
      </trkpt>
      <trkpt lat="49.91883" lon="2.2406">
        <ele>14.7</ele>
        <time>2015-12-27T14:26:55Z</time>
      </trkpt>
      <trkpt lat="49.91884" lon="2.24065">
        <ele>14.9</ele>
        <time>2015-12-27T14:26:59Z</time>
      </trkpt>
      <trkpt lat="49.91885" lon="2.2407">
        <ele>15.1</ele>
        <time>2015-12-27T14:27:01Z</time>
      </trkpt>
      <trkpt lat="49.91886" lon="2.24076">
        <ele>15.3</ele>
        <time>2015-12-27T14:27:04Z</time>
      </trkpt>
      <trkpt lat="49.91887" lon="2.2408">
        <ele>15.5</ele>
        <time>2015-12-27T14:27:07Z</time>
      </trkpt>
      <trkpt lat="49.91888" lon="2.24085">
        <ele>15.6</ele>
        <time>2015-12-27T14:27:11Z</time>
      </trkpt>
      <trkpt lat="49.91888" lon="2.24092">
        <ele>15.9</ele>
        <time>2015-12-27T14:27:13Z</time>
      </trkpt>
      <trkpt lat="49.91889" lon="2.24098">
        <ele>16.1</ele>
        <time>2015-12-27T14:27:16Z</time>
      </trkpt>
      <trkpt lat="49.91888" lon="2.24104">
        <ele>16.3</ele>
        <time>2015-12-27T14:27:19Z</time>
      </trkpt>
      <trkpt lat="49.91889" lon="2.24108">
        <ele>16.4</ele>
        <time>2015-12-27T14:27:22Z</time>
      </trkpt>
      <trkpt lat="49.9189" lon="2.24113">
        <ele>16.6</ele>
        <time>2015-12-27T14:27:26Z</time>
      </trkpt>
      <trkpt lat="49.9189" lon="2.24119">
        <ele>16.8</ele>
        <time>2015-12-27T14:27:30Z</time>
      </trkpt>
      <trkpt lat="49.91889" lon="2.24125">
        <ele>17</ele>
        <time>2015-12-27T14:27:33Z</time>
      </trkpt>
      <trkpt lat="49.91888" lon="2.2413">
        <ele>17</ele>
        <time>2015-12-27T14:27:36Z</time>
      </trkpt>
      <trkpt lat="49.91887" lon="2.24134">
        <ele>17</ele>
        <time>2015-12-27T14:27:39Z</time>
      </trkpt>
      <trkpt lat="49.91888" lon="2.24139">
        <ele>17.1</ele>
        <time>2015-12-27T14:27:41Z</time>
      </trkpt>
      <trkpt lat="49.91886" lon="2.24143">
        <ele>17.1</ele>
        <time>2015-12-27T14:27:45Z</time>
      </trkpt>
      <trkpt lat="49.91883" lon="2.24146">
        <ele>17</ele>
        <time>2015-12-27T14:27:48Z</time>
      </trkpt>
      <trkpt lat="49.91881" lon="2.2415">
        <ele>17</ele>
        <time>2015-12-27T14:27:51Z</time>
      </trkpt>
      <trkpt lat="49.91883" lon="2.24155">
        <ele>17.1</ele>
        <time>2015-12-27T14:27:53Z</time>
      </trkpt>
      <trkpt lat="49.91883" lon="2.24159">
        <ele>17.1</ele>
        <time>2015-12-27T14:27:55Z</time>
      </trkpt>
      <trkpt lat="49.91884" lon="2.24163">
        <ele>17.1</ele>
        <time>2015-12-27T14:27:58Z</time>
      </trkpt>
      <trkpt lat="49.91883" lon="2.2417">
        <ele>17.1</ele>
        <time>2015-12-27T14:28:01Z</time>
      </trkpt>
      <trkpt lat="49.91882" lon="2.24174">
        <ele>17.1</ele>
        <time>2015-12-27T14:28:04Z</time>
      </trkpt>
      <trkpt lat="49.91882" lon="2.24178">
        <ele>17.1</ele>
        <time>2015-12-27T14:28:08Z</time>
      </trkpt>
      <trkpt lat="49.9188" lon="2.24181">
        <ele>17.1</ele>
        <time>2015-12-27T14:28:12Z</time>
      </trkpt>
      <trkpt lat="49.9188" lon="2.24189">
        <ele>17.1</ele>
        <time>2015-12-27T14:28:16Z</time>
      </trkpt>
      <trkpt lat="49.91881" lon="2.24194">
        <ele>17.1</ele>
        <time>2015-12-27T14:28:18Z</time>
      </trkpt>
      <trkpt lat="49.91881" lon="2.24198">
        <ele>17.1</ele>
        <time>2015-12-27T14:28:20Z</time>
      </trkpt>
      <trkpt lat="49.91879" lon="2.24201">
        <ele>17.1</ele>
        <time>2015-12-27T14:28:22Z</time>
      </trkpt>
      <trkpt lat="49.91878" lon="2.24206">
        <ele>17.1</ele>
        <time>2015-12-27T14:28:24Z</time>
      </trkpt>
      <trkpt lat="49.91878" lon="2.24211">
        <ele>17</ele>
        <time>2015-12-27T14:28:27Z</time>
      </trkpt>
      <trkpt lat="49.91876" lon="2.24214">
        <ele>17</ele>
        <time>2015-12-27T14:28:29Z</time>
      </trkpt>
      <trkpt lat="49.91873" lon="2.24219">
        <ele>16.9</ele>
        <time>2015-12-27T14:28:32Z</time>
      </trkpt>
      <trkpt lat="49.91872" lon="2.24223">
        <ele>16.8</ele>
        <time>2015-12-27T14:28:34Z</time>
      </trkpt>
      <trkpt lat="49.9187" lon="2.24228">
        <ele>16.7</ele>
        <time>2015-12-27T14:28:37Z</time>
      </trkpt>
      <trkpt lat="49.91869" lon="2.24233">
        <ele>16.7</ele>
        <time>2015-12-27T14:28:39Z</time>
      </trkpt>
      <trkpt lat="49.91868" lon="2.24238">
        <ele>16.6</ele>
        <time>2015-12-27T14:28:42Z</time>
      </trkpt>
      <trkpt lat="49.91865" lon="2.24241">
        <ele>16.6</ele>
        <time>2015-12-27T14:28:45Z</time>
      </trkpt>
      <trkpt lat="49.91862" lon="2.24244">
        <ele>16.5</ele>
        <time>2015-12-27T14:28:49Z</time>
      </trkpt>
      <trkpt lat="49.91861" lon="2.24248">
        <ele>16.5</ele>
        <time>2015-12-27T14:28:52Z</time>
      </trkpt>
      <trkpt lat="49.9186" lon="2.24254">
        <ele>16.5</ele>
        <time>2015-12-27T14:28:56Z</time>
      </trkpt>
      <trkpt lat="49.91859" lon="2.24259">
        <ele>16.4</ele>
        <time>2015-12-27T14:28:59Z</time>
      </trkpt>
      <trkpt lat="49.91857" lon="2.24264">
        <ele>16.4</ele>
        <time>2015-12-27T14:29:02Z</time>
      </trkpt>
      <trkpt lat="49.91856" lon="2.24269">
        <ele>16.4</ele>
        <time>2015-12-27T14:29:05Z</time>
      </trkpt>
      <trkpt lat="49.91854" lon="2.24274">
        <ele>16.4</ele>
        <time>2015-12-27T14:29:08Z</time>
      </trkpt>
      <trkpt lat="49.91851" lon="2.24279">
        <ele>16.4</ele>
        <time>2015-12-27T14:29:11Z</time>
      </trkpt>
      <trkpt lat="49.9185" lon="2.24283">
        <ele>16.3</ele>
        <time>2015-12-27T14:29:13Z</time>
      </trkpt>
      <trkpt lat="49.9185" lon="2.24288">
        <ele>16.3</ele>
        <time>2015-12-27T14:29:16Z</time>
      </trkpt>
      <trkpt lat="49.9185" lon="2.24293">
        <ele>16.3</ele>
        <time>2015-12-27T14:29:19Z</time>
      </trkpt>
      <trkpt lat="49.9185" lon="2.24299">
        <ele>16.5</ele>
        <time>2015-12-27T14:29:23Z</time>
      </trkpt>
      <trkpt lat="49.9185" lon="2.24303">
        <ele>16.6</ele>
        <time>2015-12-27T14:29:26Z</time>
      </trkpt>
      <trkpt lat="49.91848" lon="2.24308">
        <ele>16.7</ele>
        <time>2015-12-27T14:29:29Z</time>
      </trkpt>
      <trkpt lat="49.91847" lon="2.24312">
        <ele>16.8</ele>
        <time>2015-12-27T14:29:32Z</time>
      </trkpt>
      <trkpt lat="49.91845" lon="2.24317">
        <ele>17</ele>
        <time>2015-12-27T14:29:35Z</time>
      </trkpt>
      <trkpt lat="49.91844" lon="2.24321">
        <ele>17.1</ele>
        <time>2015-12-27T14:29:38Z</time>
      </trkpt>
      <trkpt lat="49.91843" lon="2.24326">
        <ele>17.2</ele>
        <time>2015-12-27T14:29:42Z</time>
      </trkpt>
      <trkpt lat="49.91842" lon="2.24332">
        <ele>17.4</ele>
        <time>2015-12-27T14:29:45Z</time>
      </trkpt>
      <trkpt lat="49.91841" lon="2.24337">
        <ele>17.5</ele>
        <time>2015-12-27T14:29:48Z</time>
      </trkpt>
      <trkpt lat="49.91839" lon="2.24342">
        <ele>17.6</ele>
        <time>2015-12-27T14:29:51Z</time>
      </trkpt>
      <trkpt lat="49.91839" lon="2.24347">
        <ele>17.8</ele>
        <time>2015-12-27T14:29:54Z</time>
      </trkpt>
      <trkpt lat="49.91836" lon="2.24351">
        <ele>17.9</ele>
        <time>2015-12-27T14:30:01Z</time>
      </trkpt>
      <trkpt lat="49.91836" lon="2.24355">
        <ele>18</ele>
        <time>2015-12-27T14:30:07Z</time>
      </trkpt>
      <trkpt lat="49.91834" lon="2.24359">
        <ele>18.1</ele>
        <time>2015-12-27T14:30:09Z</time>
      </trkpt>
      <trkpt lat="49.91833" lon="2.24364">
        <ele>18.2</ele>
        <time>2015-12-27T14:30:12Z</time>
      </trkpt>
      <trkpt lat="49.91833" lon="2.24369">
        <ele>18.4</ele>
        <time>2015-12-27T14:30:15Z</time>
      </trkpt>
      <trkpt lat="49.91831" lon="2.24375">
        <ele>18.5</ele>
        <time>2015-12-27T14:30:19Z</time>
      </trkpt>
      <trkpt lat="49.91829" lon="2.24378">
        <ele>18.6</ele>
        <time>2015-12-27T14:30:23Z</time>
      </trkpt>
      <trkpt lat="49.91827" lon="2.24384">
        <ele>18.6</ele>
        <time>2015-12-27T14:30:28Z</time>
      </trkpt>
      <trkpt lat="49.91826" lon="2.24388">
        <ele>18.7</ele>
        <time>2015-12-27T14:30:31Z</time>
      </trkpt>
      <trkpt lat="49.91826" lon="2.24393">
        <ele>18.7</ele>
        <time>2015-12-27T14:30:35Z</time>
      </trkpt>
      <trkpt lat="49.91826" lon="2.24397">
        <ele>18.7</ele>
        <time>2015-12-27T14:30:39Z</time>
      </trkpt>
      <trkpt lat="49.91826" lon="2.24391">
        <ele>18.7</ele>
        <time>2015-12-27T14:30:44Z</time>
      </trkpt>
      <trkpt lat="49.91826" lon="2.24387">
        <ele>18.6</ele>
        <time>2015-12-27T14:30:48Z</time>
      </trkpt>
      <trkpt lat="49.91825" lon="2.24392">
        <ele>18.7</ele>
        <time>2015-12-27T14:30:52Z</time>
      </trkpt>
      <trkpt lat="49.91826" lon="2.24398">
        <ele>18.7</ele>
        <time>2015-12-27T14:30:54Z</time>
      </trkpt>
      <trkpt lat="49.91826" lon="2.24402">
        <ele>18.7</ele>
        <time>2015-12-27T14:30:55Z</time>
      </trkpt>
      <trkpt lat="49.91827" lon="2.24407">
        <ele>18.7</ele>
        <time>2015-12-27T14:30:56Z</time>
      </trkpt>
      <trkpt lat="49.91829" lon="2.2442">
        <ele>18.8</ele>
        <time>2015-12-27T14:30:58Z</time>
      </trkpt>
      <trkpt lat="49.91831" lon="2.24427">
        <ele>18.8</ele>
        <time>2015-12-27T14:30:59Z</time>
      </trkpt>
      <trkpt lat="49.91833" lon="2.24432">
        <ele>18.8</ele>
        <time>2015-12-27T14:31:00Z</time>
      </trkpt>
      <trkpt lat="49.91835" lon="2.24441">
        <ele>18.9</ele>
        <time>2015-12-27T14:31:01Z</time>
      </trkpt>
      <trkpt lat="49.91832" lon="2.24445">
        <ele>18.9</ele>
        <time>2015-12-27T14:31:02Z</time>
      </trkpt>
      <trkpt lat="49.91828" lon="2.24448">
        <ele>18.9</ele>
        <time>2015-12-27T14:31:04Z</time>
      </trkpt>
      <trkpt lat="49.91825" lon="2.2445">
        <ele>19</ele>
        <time>2015-12-27T14:31:12Z</time>
      </trkpt>
      <trkpt lat="49.91824" lon="2.24456">
        <ele>19</ele>
        <time>2015-12-27T14:31:14Z</time>
      </trkpt>
      <trkpt lat="49.91822" lon="2.24461">
        <ele>18.9</ele>
        <time>2015-12-27T14:31:18Z</time>
      </trkpt>
      <trkpt lat="49.91821" lon="2.24467">
        <ele>18.6</ele>
        <time>2015-12-27T14:31:20Z</time>
      </trkpt>
      <trkpt lat="49.9182" lon="2.24473">
        <ele>18.3</ele>
        <time>2015-12-27T14:31:23Z</time>
      </trkpt>
      <trkpt lat="49.91819" lon="2.24477">
        <ele>18</ele>
        <time>2015-12-27T14:31:25Z</time>
      </trkpt>
      <trkpt lat="49.91819" lon="2.24481">
        <ele>17.8</ele>
        <time>2015-12-27T14:31:27Z</time>
      </trkpt>
      <trkpt lat="49.91818" lon="2.24486">
        <ele>17.6</ele>
        <time>2015-12-27T14:31:29Z</time>
      </trkpt>
      <trkpt lat="49.91818" lon="2.2449">
        <ele>17.3</ele>
        <time>2015-12-27T14:31:33Z</time>
      </trkpt>
      <trkpt lat="49.91817" lon="2.24495">
        <ele>17.1</ele>
        <time>2015-12-27T14:31:36Z</time>
      </trkpt>
      <trkpt lat="49.91817" lon="2.24499">
        <ele>16.8</ele>
        <time>2015-12-27T14:31:39Z</time>
      </trkpt>
      <trkpt lat="49.91816" lon="2.24504">
        <ele>16.6</ele>
        <time>2015-12-27T14:31:41Z</time>
      </trkpt>
      <trkpt lat="49.91815" lon="2.24509">
        <ele>16.3</ele>
        <time>2015-12-27T14:31:44Z</time>
      </trkpt>
      <trkpt lat="49.91814" lon="2.24513">
        <ele>16.1</ele>
        <time>2015-12-27T14:31:46Z</time>
      </trkpt>
      <trkpt lat="49.91814" lon="2.24517">
        <ele>15.8</ele>
        <time>2015-12-27T14:31:49Z</time>
      </trkpt>
      <trkpt lat="49.91814" lon="2.24522">
        <ele>15.6</ele>
        <time>2015-12-27T14:31:51Z</time>
      </trkpt>
      <trkpt lat="49.91814" lon="2.24526">
        <ele>15.4</ele>
        <time>2015-12-27T14:31:54Z</time>
      </trkpt>
      <trkpt lat="49.91816" lon="2.24532">
        <ele>15.1</ele>
        <time>2015-12-27T14:31:58Z</time>
      </trkpt>
      <trkpt lat="49.91814" lon="2.24536">
        <ele>14.8</ele>
        <time>2015-12-27T14:32:02Z</time>
      </trkpt>
      <trkpt lat="49.91814" lon="2.24542">
        <ele>14.5</ele>
        <time>2015-12-27T14:32:06Z</time>
      </trkpt>
      <trkpt lat="49.91814" lon="2.24547">
        <ele>14.6</ele>
        <time>2015-12-27T14:32:08Z</time>
      </trkpt>
      <trkpt lat="49.91815" lon="2.24551">
        <ele>14.6</ele>
        <time>2015-12-27T14:32:12Z</time>
      </trkpt>
      <trkpt lat="49.91816" lon="2.24556">
        <ele>14.7</ele>
        <time>2015-12-27T14:32:15Z</time>
      </trkpt>
      <trkpt lat="49.91816" lon="2.24562">
        <ele>14.7</ele>
        <time>2015-12-27T14:32:18Z</time>
      </trkpt>
      <trkpt lat="49.91816" lon="2.24566">
        <ele>14.7</ele>
        <time>2015-12-27T14:32:21Z</time>
      </trkpt>
      <trkpt lat="49.91816" lon="2.24572">
        <ele>14.7</ele>
        <time>2015-12-27T14:32:24Z</time>
      </trkpt>
      <trkpt lat="49.91817" lon="2.24576">
        <ele>14.8</ele>
        <time>2015-12-27T14:32:27Z</time>
      </trkpt>
      <trkpt lat="49.91819" lon="2.2458">
        <ele>14.8</ele>
        <time>2015-12-27T14:32:29Z</time>
      </trkpt>
      <trkpt lat="49.91823" lon="2.24588">
        <ele>14.9</ele>
        <time>2015-12-27T14:32:32Z</time>
      </trkpt>
      <trkpt lat="49.91823" lon="2.24593">
        <ele>14.9</ele>
        <time>2015-12-27T14:32:36Z</time>
      </trkpt>
      <trkpt lat="49.91826" lon="2.24596">
        <ele>14.9</ele>
        <time>2015-12-27T14:32:39Z</time>
      </trkpt>
      <trkpt lat="49.91827" lon="2.24601">
        <ele>15</ele>
        <time>2015-12-27T14:32:41Z</time>
      </trkpt>
      <trkpt lat="49.91827" lon="2.24606">
        <ele>15</ele>
        <time>2015-12-27T14:32:45Z</time>
      </trkpt>
      <trkpt lat="49.91828" lon="2.24611">
        <ele>15</ele>
        <time>2015-12-27T14:32:48Z</time>
      </trkpt>
      <trkpt lat="49.91828" lon="2.24616">
        <ele>15</ele>
        <time>2015-12-27T14:32:50Z</time>
      </trkpt>
      <trkpt lat="49.91828" lon="2.24622">
        <ele>15</ele>
        <time>2015-12-27T14:32:54Z</time>
      </trkpt>
      <trkpt lat="49.91829" lon="2.24628">
        <ele>15</ele>
        <time>2015-12-27T14:32:57Z</time>
      </trkpt>
      <trkpt lat="49.91831" lon="2.24632">
        <ele>15.1</ele>
        <time>2015-12-27T14:32:59Z</time>
      </trkpt>
      <trkpt lat="49.9183" lon="2.24636">
        <ele>15.1</ele>
        <time>2015-12-27T14:33:02Z</time>
      </trkpt>
      <trkpt lat="49.91831" lon="2.2464">
        <ele>15.2</ele>
        <time>2015-12-27T14:33:06Z</time>
      </trkpt>
      <trkpt lat="49.9183" lon="2.24645">
        <ele>15.2</ele>
        <time>2015-12-27T14:33:09Z</time>
      </trkpt>
      <trkpt lat="49.91828" lon="2.24649">
        <ele>15.3</ele>
        <time>2015-12-27T14:33:13Z</time>
      </trkpt>
      <trkpt lat="49.91827" lon="2.24653">
        <ele>15.3</ele>
        <time>2015-12-27T14:33:16Z</time>
      </trkpt>
      <trkpt lat="49.91827" lon="2.24657">
        <ele>15.4</ele>
        <time>2015-12-27T14:33:19Z</time>
      </trkpt>
      <trkpt lat="49.91827" lon="2.24662">
        <ele>15.4</ele>
        <time>2015-12-27T14:33:24Z</time>
      </trkpt>
      <trkpt lat="49.91828" lon="2.24667">
        <ele>15.5</ele>
        <time>2015-12-27T14:33:30Z</time>
      </trkpt>
      <trkpt lat="49.91829" lon="2.24671">
        <ele>15.6</ele>
        <time>2015-12-27T14:33:33Z</time>
      </trkpt>
      <trkpt lat="49.91829" lon="2.24677">
        <ele>15.6</ele>
        <time>2015-12-27T14:33:39Z</time>
      </trkpt>
      <trkpt lat="49.91828" lon="2.24682">
        <ele>15.7</ele>
        <time>2015-12-27T14:33:41Z</time>
      </trkpt>
      <trkpt lat="49.91828" lon="2.24688">
        <ele>15.8</ele>
        <time>2015-12-27T14:33:47Z</time>
      </trkpt>
      <trkpt lat="49.91831" lon="2.24692">
        <ele>15.8</ele>
        <time>2015-12-27T14:33:50Z</time>
      </trkpt>
      <trkpt lat="49.91833" lon="2.24696">
        <ele>15.9</ele>
        <time>2015-12-27T14:33:54Z</time>
      </trkpt>
      <trkpt lat="49.91835" lon="2.24701">
        <ele>15.9</ele>
        <time>2015-12-27T14:33:56Z</time>
      </trkpt>
      <trkpt lat="49.91837" lon="2.24705">
        <ele>16</ele>
        <time>2015-12-27T14:33:59Z</time>
      </trkpt>
      <trkpt lat="49.91839" lon="2.2471">
        <ele>16</ele>
        <time>2015-12-27T14:34:01Z</time>
      </trkpt>
      <trkpt lat="49.91841" lon="2.24714">
        <ele>16.1</ele>
        <time>2015-12-27T14:34:04Z</time>
      </trkpt>
      <trkpt lat="49.91841" lon="2.24719">
        <ele>16.2</ele>
        <time>2015-12-27T14:34:06Z</time>
      </trkpt>
      <trkpt lat="49.91841" lon="2.24724">
        <ele>16.3</ele>
        <time>2015-12-27T14:34:11Z</time>
      </trkpt>
      <trkpt lat="49.91841" lon="2.2473">
        <ele>16.4</ele>
        <time>2015-12-27T14:34:14Z</time>
      </trkpt>
      <trkpt lat="49.91841" lon="2.24735">
        <ele>16.4</ele>
        <time>2015-12-27T14:34:16Z</time>
      </trkpt>
      <trkpt lat="49.91841" lon="2.24739">
        <ele>16.5</ele>
        <time>2015-12-27T14:34:21Z</time>
      </trkpt>
      <trkpt lat="49.9184" lon="2.24744">
        <ele>16.6</ele>
        <time>2015-12-27T14:34:24Z</time>
      </trkpt>
      <trkpt lat="49.91842" lon="2.24747">
        <ele>16.6</ele>
        <time>2015-12-27T14:34:25Z</time>
      </trkpt>
      <trkpt lat="49.91843" lon="2.24751">
        <ele>16.7</ele>
        <time>2015-12-27T14:34:27Z</time>
      </trkpt>
      <trkpt lat="49.91845" lon="2.24755">
        <ele>16.8</ele>
        <time>2015-12-27T14:34:30Z</time>
      </trkpt>
      <trkpt lat="49.91847" lon="2.24758">
        <ele>16.8</ele>
        <time>2015-12-27T14:34:32Z</time>
      </trkpt>
      <trkpt lat="49.9185" lon="2.24763">
        <ele>16.9</ele>
        <time>2015-12-27T14:34:35Z</time>
      </trkpt>
      <trkpt lat="49.9185" lon="2.24768">
        <ele>16.9</ele>
        <time>2015-12-27T14:34:38Z</time>
      </trkpt>
      <trkpt lat="49.9185" lon="2.24772">
        <ele>17</ele>
        <time>2015-12-27T14:34:41Z</time>
      </trkpt>
      <trkpt lat="49.91851" lon="2.24777">
        <ele>17.1</ele>
        <time>2015-12-27T14:34:44Z</time>
      </trkpt>
      <trkpt lat="49.91851" lon="2.24781">
        <ele>17.1</ele>
        <time>2015-12-27T14:34:47Z</time>
      </trkpt>
      <trkpt lat="49.91851" lon="2.24786">
        <ele>17.2</ele>
        <time>2015-12-27T14:34:50Z</time>
      </trkpt>
      <trkpt lat="49.91852" lon="2.24791">
        <ele>17.3</ele>
        <time>2015-12-27T14:34:54Z</time>
      </trkpt>
      <trkpt lat="49.91852" lon="2.24795">
        <ele>17.4</ele>
        <time>2015-12-27T14:34:59Z</time>
      </trkpt>
      <trkpt lat="49.91851" lon="2.24801">
        <ele>17.5</ele>
        <time>2015-12-27T14:35:03Z</time>
      </trkpt>
      <trkpt lat="49.91852" lon="2.24806">
        <ele>17.6</ele>
        <time>2015-12-27T14:35:06Z</time>
      </trkpt>
      <trkpt lat="49.91852" lon="2.24813">
        <ele>17.8</ele>
        <time>2015-12-27T14:35:11Z</time>
      </trkpt>
      <trkpt lat="49.91853" lon="2.24819">
        <ele>17.9</ele>
        <time>2015-12-27T14:35:15Z</time>
      </trkpt>
      <trkpt lat="49.91854" lon="2.24823">
        <ele>18</ele>
        <time>2015-12-27T14:35:16Z</time>
      </trkpt>
      <trkpt lat="49.91855" lon="2.24828">
        <ele>18.1</ele>
        <time>2015-12-27T14:35:18Z</time>
      </trkpt>
      <trkpt lat="49.91855" lon="2.24832">
        <ele>18.2</ele>
        <time>2015-12-27T14:35:23Z</time>
      </trkpt>
      <trkpt lat="49.91855" lon="2.24837">
        <ele>18.3</ele>
        <time>2015-12-27T14:35:27Z</time>
      </trkpt>
      <trkpt lat="49.91855" lon="2.24842">
        <ele>18.5</ele>
        <time>2015-12-27T14:35:30Z</time>
      </trkpt>
      <trkpt lat="49.91856" lon="2.24848">
        <ele>18.6</ele>
        <time>2015-12-27T14:35:34Z</time>
      </trkpt>
      <trkpt lat="49.91853" lon="2.24851">
        <ele>18.6</ele>
        <time>2015-12-27T14:35:36Z</time>
      </trkpt>
      <trkpt lat="49.91854" lon="2.24856">
        <ele>18.8</ele>
        <time>2015-12-27T14:35:39Z</time>
      </trkpt>
      <trkpt lat="49.91853" lon="2.2486">
        <ele>18.9</ele>
        <time>2015-12-27T14:35:41Z</time>
      </trkpt>
      <trkpt lat="49.91855" lon="2.24867">
        <ele>19.1</ele>
        <time>2015-12-27T14:35:43Z</time>
      </trkpt>
      <trkpt lat="49.91854" lon="2.24871">
        <ele>19.1</ele>
        <time>2015-12-27T14:35:47Z</time>
      </trkpt>
      <trkpt lat="49.91854" lon="2.24877">
        <ele>19.2</ele>
        <time>2015-12-27T14:35:49Z</time>
      </trkpt>
      <trkpt lat="49.91855" lon="2.24882">
        <ele>19.2</ele>
        <time>2015-12-27T14:35:52Z</time>
      </trkpt>
      <trkpt lat="49.91854" lon="2.24887">
        <ele>19.2</ele>
        <time>2015-12-27T14:35:56Z</time>
      </trkpt>
      <trkpt lat="49.91855" lon="2.24892">
        <ele>19.2</ele>
        <time>2015-12-27T14:36:00Z</time>
      </trkpt>
      <trkpt lat="49.91854" lon="2.24897">
        <ele>19.1</ele>
        <time>2015-12-27T14:36:04Z</time>
      </trkpt>
      <trkpt lat="49.91854" lon="2.24903">
        <ele>19.1</ele>
        <time>2015-12-27T14:36:09Z</time>
      </trkpt>
      <trkpt lat="49.91855" lon="2.24908">
        <ele>19.1</ele>
        <time>2015-12-27T14:36:12Z</time>
      </trkpt>
      <trkpt lat="49.91856" lon="2.24914">
        <ele>19.1</ele>
        <time>2015-12-27T14:36:13Z</time>
      </trkpt>
      <trkpt lat="49.91856" lon="2.24918">
        <ele>19.1</ele>
        <time>2015-12-27T14:36:16Z</time>
      </trkpt>
      <trkpt lat="49.91856" lon="2.24924">
        <ele>19</ele>
        <time>2015-12-27T14:36:19Z</time>
      </trkpt>
      <trkpt lat="49.91856" lon="2.2493">
        <ele>19</ele>
        <time>2015-12-27T14:36:22Z</time>
      </trkpt>
      <trkpt lat="49.91856" lon="2.24939">
        <ele>19</ele>
        <time>2015-12-27T14:36:25Z</time>
      </trkpt>
      <trkpt lat="49.91857" lon="2.24945">
        <ele>19</ele>
        <time>2015-12-27T14:36:27Z</time>
      </trkpt>
      <trkpt lat="49.91857" lon="2.2495">
        <ele>18.9</ele>
        <time>2015-12-27T14:36:31Z</time>
      </trkpt>
      <trkpt lat="49.91857" lon="2.24954">
        <ele>19</ele>
        <time>2015-12-27T14:36:34Z</time>
      </trkpt>
      <trkpt lat="49.91856" lon="2.24958">
        <ele>18.9</ele>
        <time>2015-12-27T14:36:38Z</time>
      </trkpt>
      <trkpt lat="49.91858" lon="2.24962">
        <ele>18.8</ele>
        <time>2015-12-27T14:36:41Z</time>
      </trkpt>
      <trkpt lat="49.91858" lon="2.24967">
        <ele>18.7</ele>
        <time>2015-12-27T14:36:45Z</time>
      </trkpt>
      <trkpt lat="49.91858" lon="2.24972">
        <ele>18.5</ele>
        <time>2015-12-27T14:36:48Z</time>
      </trkpt>
      <trkpt lat="49.9186" lon="2.24977">
        <ele>18.4</ele>
        <time>2015-12-27T14:36:51Z</time>
      </trkpt>
      <trkpt lat="49.91861" lon="2.24981">
        <ele>18.3</ele>
        <time>2015-12-27T14:36:53Z</time>
      </trkpt>
      <trkpt lat="49.91862" lon="2.24986">
        <ele>18.1</ele>
        <time>2015-12-27T14:36:56Z</time>
      </trkpt>
      <trkpt lat="49.91862" lon="2.24991">
        <ele>18</ele>
        <time>2015-12-27T14:36:58Z</time>
      </trkpt>
      <trkpt lat="49.91863" lon="2.24996">
        <ele>17.8</ele>
        <time>2015-12-27T14:37:02Z</time>
      </trkpt>
      <trkpt lat="49.91863" lon="2.25001">
        <ele>17.6</ele>
        <time>2015-12-27T14:37:05Z</time>
      </trkpt>
      <trkpt lat="49.91864" lon="2.25005">
        <ele>17.4</ele>
        <time>2015-12-27T14:37:08Z</time>
      </trkpt>
      <trkpt lat="49.91865" lon="2.25011">
        <ele>17.2</ele>
        <time>2015-12-27T14:37:11Z</time>
      </trkpt>
      <trkpt lat="49.91866" lon="2.25016">
        <ele>17.1</ele>
        <time>2015-12-27T14:37:13Z</time>
      </trkpt>
      <trkpt lat="49.91867" lon="2.25021">
        <ele>16.9</ele>
        <time>2015-12-27T14:37:16Z</time>
      </trkpt>
      <trkpt lat="49.91866" lon="2.25026">
        <ele>16.7</ele>
        <time>2015-12-27T14:37:20Z</time>
      </trkpt>
      <trkpt lat="49.91866" lon="2.2503">
        <ele>16.5</ele>
        <time>2015-12-27T14:37:24Z</time>
      </trkpt>
      <trkpt lat="49.91867" lon="2.25034">
        <ele>16.3</ele>
        <time>2015-12-27T14:37:26Z</time>
      </trkpt>
      <trkpt lat="49.91869" lon="2.2504">
        <ele>16.1</ele>
        <time>2015-12-27T14:37:30Z</time>
      </trkpt>
      <trkpt lat="49.9187" lon="2.25046">
        <ele>16</ele>
        <time>2015-12-27T14:37:33Z</time>
      </trkpt>
      <trkpt lat="49.91871" lon="2.25051">
        <ele>16</ele>
        <time>2015-12-27T14:37:36Z</time>
      </trkpt>
      <trkpt lat="49.91871" lon="2.25056">
        <ele>16</ele>
        <time>2015-12-27T14:37:39Z</time>
      </trkpt>
      <trkpt lat="49.91872" lon="2.25062">
        <ele>16</ele>
        <time>2015-12-27T14:37:42Z</time>
      </trkpt>
      <trkpt lat="49.91873" lon="2.25067">
        <ele>16</ele>
        <time>2015-12-27T14:37:47Z</time>
      </trkpt>
      <trkpt lat="49.91874" lon="2.25073">
        <ele>16</ele>
        <time>2015-12-27T14:37:51Z</time>
      </trkpt>
      <trkpt lat="49.91874" lon="2.25077">
        <ele>16</ele>
        <time>2015-12-27T14:37:54Z</time>
      </trkpt>
      <trkpt lat="49.91874" lon="2.25082">
        <ele>16</ele>
        <time>2015-12-27T14:37:57Z</time>
      </trkpt>
      <trkpt lat="49.91875" lon="2.25087">
        <ele>16</ele>
        <time>2015-12-27T14:37:59Z</time>
      </trkpt>
      <trkpt lat="49.91876" lon="2.25093">
        <ele>16</ele>
        <time>2015-12-27T14:38:01Z</time>
      </trkpt>
      <trkpt lat="49.91876" lon="2.25099">
        <ele>16</ele>
        <time>2015-12-27T14:38:06Z</time>
      </trkpt>
      <trkpt lat="49.91876" lon="2.25104">
        <ele>16</ele>
        <time>2015-12-27T14:38:10Z</time>
      </trkpt>
      <trkpt lat="49.91876" lon="2.25109">
        <ele>16</ele>
        <time>2015-12-27T14:38:12Z</time>
      </trkpt>
      <trkpt lat="49.91876" lon="2.25114">
        <ele>16</ele>
        <time>2015-12-27T14:38:16Z</time>
      </trkpt>
      <trkpt lat="49.91877" lon="2.2512">
        <ele>16</ele>
        <time>2015-12-27T14:38:19Z</time>
      </trkpt>
      <trkpt lat="49.91876" lon="2.25126">
        <ele>16</ele>
        <time>2015-12-27T14:38:22Z</time>
      </trkpt>
      <trkpt lat="49.91877" lon="2.25132">
        <ele>16.1</ele>
        <time>2015-12-27T14:38:25Z</time>
      </trkpt>
      <trkpt lat="49.91876" lon="2.25136">
        <ele>16.1</ele>
        <time>2015-12-27T14:38:29Z</time>
      </trkpt>
      <trkpt lat="49.91876" lon="2.25141">
        <ele>16.2</ele>
        <time>2015-12-27T14:38:33Z</time>
      </trkpt>
      <trkpt lat="49.91877" lon="2.25146">
        <ele>16.2</ele>
        <time>2015-12-27T14:38:37Z</time>
      </trkpt>
      <trkpt lat="49.91879" lon="2.25151">
        <ele>16.3</ele>
        <time>2015-12-27T14:38:40Z</time>
      </trkpt>
      <trkpt lat="49.9188" lon="2.25156">
        <ele>16.3</ele>
        <time>2015-12-27T14:38:43Z</time>
      </trkpt>
      <trkpt lat="49.9188" lon="2.25161">
        <ele>16.4</ele>
        <time>2015-12-27T14:38:46Z</time>
      </trkpt>
      <trkpt lat="49.91882" lon="2.25165">
        <ele>16.4</ele>
        <time>2015-12-27T14:38:49Z</time>
      </trkpt>
      <trkpt lat="49.91883" lon="2.25173">
        <ele>16.5</ele>
        <time>2015-12-27T14:38:53Z</time>
      </trkpt>
      <trkpt lat="49.91883" lon="2.25178">
        <ele>16.6</ele>
        <time>2015-12-27T14:38:56Z</time>
      </trkpt>
      <trkpt lat="49.91883" lon="2.25183">
        <ele>16.6</ele>
        <time>2015-12-27T14:39:00Z</time>
      </trkpt>
      <trkpt lat="49.91884" lon="2.25189">
        <ele>16.7</ele>
        <time>2015-12-27T14:39:04Z</time>
      </trkpt>
      <trkpt lat="49.91885" lon="2.25195">
        <ele>16.7</ele>
        <time>2015-12-27T14:39:07Z</time>
      </trkpt>
      <trkpt lat="49.91886" lon="2.252">
        <ele>16.8</ele>
        <time>2015-12-27T14:39:10Z</time>
      </trkpt>
      <trkpt lat="49.91887" lon="2.25204">
        <ele>16.8</ele>
        <time>2015-12-27T14:39:13Z</time>
      </trkpt>
      <trkpt lat="49.91888" lon="2.25209">
        <ele>16.9</ele>
        <time>2015-12-27T14:39:16Z</time>
      </trkpt>
      <trkpt lat="49.91888" lon="2.25214">
        <ele>17</ele>
        <time>2015-12-27T14:39:19Z</time>
      </trkpt>
      <trkpt lat="49.91889" lon="2.25219">
        <ele>17.1</ele>
        <time>2015-12-27T14:39:21Z</time>
      </trkpt>
      <trkpt lat="49.91889" lon="2.25224">
        <ele>17.2</ele>
        <time>2015-12-27T14:39:25Z</time>
      </trkpt>
      <trkpt lat="49.91892" lon="2.25232">
        <ele>17.3</ele>
        <time>2015-12-27T14:39:29Z</time>
      </trkpt>
      <trkpt lat="49.91891" lon="2.25236">
        <ele>17.4</ele>
        <time>2015-12-27T14:39:33Z</time>
      </trkpt>
      <trkpt lat="49.9189" lon="2.25241">
        <ele>17.5</ele>
        <time>2015-12-27T14:39:37Z</time>
      </trkpt>
      <trkpt lat="49.91887" lon="2.25242">
        <ele>17.6</ele>
        <time>2015-12-27T14:39:39Z</time>
      </trkpt>
      <trkpt lat="49.91884" lon="2.25244">
        <ele>17.7</ele>
        <time>2015-12-27T14:39:41Z</time>
      </trkpt>
      <trkpt lat="49.91884" lon="2.25248">
        <ele>17.8</ele>
        <time>2015-12-27T14:39:47Z</time>
      </trkpt>
      <trkpt lat="49.91882" lon="2.25252">
        <ele>17.9</ele>
        <time>2015-12-27T14:39:50Z</time>
      </trkpt>
      <trkpt lat="49.9188" lon="2.25255">
        <ele>18</ele>
        <time>2015-12-27T14:39:53Z</time>
      </trkpt>
      <trkpt lat="49.91879" lon="2.25259">
        <ele>18.1</ele>
        <time>2015-12-27T14:39:55Z</time>
      </trkpt>
      <trkpt lat="49.91879" lon="2.25264">
        <ele>18.3</ele>
        <time>2015-12-27T14:39:57Z</time>
      </trkpt>
      <trkpt lat="49.91878" lon="2.25268">
        <ele>18.4</ele>
        <time>2015-12-27T14:39:59Z</time>
      </trkpt>
      <trkpt lat="49.91879" lon="2.25272">
        <ele>18.4</ele>
        <time>2015-12-27T14:40:01Z</time>
      </trkpt>
      <trkpt lat="49.9188" lon="2.25281">
        <ele>18.6</ele>
        <time>2015-12-27T14:40:06Z</time>
      </trkpt>
      <trkpt lat="49.9188" lon="2.25287">
        <ele>18.8</ele>
        <time>2015-12-27T14:40:09Z</time>
      </trkpt>
      <trkpt lat="49.91878" lon="2.25289">
        <ele>18.9</ele>
        <time>2015-12-27T14:40:12Z</time>
      </trkpt>
      <trkpt lat="49.91877" lon="2.25295">
        <ele>19</ele>
        <time>2015-12-27T14:40:16Z</time>
      </trkpt>
      <trkpt lat="49.91878" lon="2.25299">
        <ele>18.9</ele>
        <time>2015-12-27T14:40:18Z</time>
      </trkpt>
      <trkpt lat="49.9188" lon="2.2531">
        <ele>18.9</ele>
        <time>2015-12-27T14:40:22Z</time>
      </trkpt>
      <trkpt lat="49.91882" lon="2.25314">
        <ele>18.9</ele>
        <time>2015-12-27T14:40:26Z</time>
      </trkpt>
      <trkpt lat="49.9188" lon="2.25318">
        <ele>18.9</ele>
        <time>2015-12-27T14:40:30Z</time>
      </trkpt>
      <trkpt lat="49.91881" lon="2.25323">
        <ele>18.9</ele>
        <time>2015-12-27T14:40:32Z</time>
      </trkpt>
      <trkpt lat="49.9188" lon="2.25328">
        <ele>18.9</ele>
        <time>2015-12-27T14:40:36Z</time>
      </trkpt>
      <trkpt lat="49.91881" lon="2.25334">
        <ele>18.9</ele>
        <time>2015-12-27T14:40:39Z</time>
      </trkpt>
      <trkpt lat="49.91882" lon="2.25338">
        <ele>18.9</ele>
        <time>2015-12-27T14:40:41Z</time>
      </trkpt>
      <trkpt lat="49.91881" lon="2.25343">
        <ele>18.9</ele>
        <time>2015-12-27T14:40:44Z</time>
      </trkpt>
      <trkpt lat="49.91882" lon="2.25347">
        <ele>18.9</ele>
        <time>2015-12-27T14:40:47Z</time>
      </trkpt>
      <trkpt lat="49.91883" lon="2.25353">
        <ele>19</ele>
        <time>2015-12-27T14:40:49Z</time>
      </trkpt>
      <trkpt lat="49.91882" lon="2.25357">
        <ele>19</ele>
        <time>2015-12-27T14:40:52Z</time>
      </trkpt>
      <trkpt lat="49.91881" lon="2.25361">
        <ele>19</ele>
        <time>2015-12-27T14:40:55Z</time>
      </trkpt>
      <trkpt lat="49.91882" lon="2.25366">
        <ele>19</ele>
        <time>2015-12-27T14:40:57Z</time>
      </trkpt>
      <trkpt lat="49.91882" lon="2.25371">
        <ele>19</ele>
        <time>2015-12-27T14:41:00Z</time>
      </trkpt>
      <trkpt lat="49.91882" lon="2.25377">
        <ele>19</ele>
        <time>2015-12-27T14:41:04Z</time>
      </trkpt>
      <trkpt lat="49.91881" lon="2.25382">
        <ele>18.9</ele>
        <time>2015-12-27T14:41:07Z</time>
      </trkpt>
      <trkpt lat="49.91881" lon="2.25386">
        <ele>18.9</ele>
        <time>2015-12-27T14:41:10Z</time>
      </trkpt>
      <trkpt lat="49.91882" lon="2.25391">
        <ele>18.8</ele>
        <time>2015-12-27T14:41:12Z</time>
      </trkpt>
      <trkpt lat="49.91882" lon="2.25397">
        <ele>18.8</ele>
        <time>2015-12-27T14:41:15Z</time>
      </trkpt>
      <trkpt lat="49.91883" lon="2.25402">
        <ele>18.7</ele>
        <time>2015-12-27T14:41:18Z</time>
      </trkpt>
      <trkpt lat="49.91884" lon="2.25407">
        <ele>18.7</ele>
        <time>2015-12-27T14:41:20Z</time>
      </trkpt>
      <trkpt lat="49.91885" lon="2.25412">
        <ele>18.6</ele>
        <time>2015-12-27T14:41:22Z</time>
      </trkpt>
      <trkpt lat="49.91885" lon="2.25417">
        <ele>18.6</ele>
        <time>2015-12-27T14:41:25Z</time>
      </trkpt>
      <trkpt lat="49.91887" lon="2.25422">
        <ele>18.5</ele>
        <time>2015-12-27T14:41:28Z</time>
      </trkpt>
      <trkpt lat="49.91888" lon="2.25426">
        <ele>18.5</ele>
        <time>2015-12-27T14:41:31Z</time>
      </trkpt>
      <trkpt lat="49.91889" lon="2.2543">
        <ele>18.4</ele>
        <time>2015-12-27T14:41:33Z</time>
      </trkpt>
      <trkpt lat="49.91889" lon="2.25435">
        <ele>18.4</ele>
        <time>2015-12-27T14:41:35Z</time>
      </trkpt>
      <trkpt lat="49.91889" lon="2.2544">
        <ele>18.4</ele>
        <time>2015-12-27T14:41:38Z</time>
      </trkpt>
      <trkpt lat="49.91888" lon="2.25444">
        <ele>18.3</ele>
        <time>2015-12-27T14:41:42Z</time>
      </trkpt>
      <trkpt lat="49.91888" lon="2.25449">
        <ele>18.2</ele>
        <time>2015-12-27T14:41:45Z</time>
      </trkpt>
      <trkpt lat="49.91889" lon="2.25454">
        <ele>18.2</ele>
        <time>2015-12-27T14:41:47Z</time>
      </trkpt>
      <trkpt lat="49.91889" lon="2.25459">
        <ele>18.2</ele>
        <time>2015-12-27T14:41:49Z</time>
      </trkpt>
      <trkpt lat="49.91891" lon="2.25465">
        <ele>18.2</ele>
        <time>2015-12-27T14:41:52Z</time>
      </trkpt>
      <trkpt lat="49.91891" lon="2.2547">
        <ele>18.3</ele>
        <time>2015-12-27T14:41:54Z</time>
      </trkpt>
      <trkpt lat="49.91893" lon="2.25475">
        <ele>18.4</ele>
        <time>2015-12-27T14:41:57Z</time>
      </trkpt>
      <trkpt lat="49.91894" lon="2.2548">
        <ele>18.4</ele>
        <time>2015-12-27T14:42:00Z</time>
      </trkpt>
      <trkpt lat="49.91895" lon="2.25485">
        <ele>18.5</ele>
        <time>2015-12-27T14:42:04Z</time>
      </trkpt>
      <trkpt lat="49.91894" lon="2.25491">
        <ele>18.5</ele>
        <time>2015-12-27T14:42:07Z</time>
      </trkpt>
      <trkpt lat="49.91895" lon="2.25496">
        <ele>18.6</ele>
        <time>2015-12-27T14:42:10Z</time>
      </trkpt>
      <trkpt lat="49.91894" lon="2.25501">
        <ele>18.6</ele>
        <time>2015-12-27T14:42:14Z</time>
      </trkpt>
      <trkpt lat="49.91894" lon="2.25505">
        <ele>18.6</ele>
        <time>2015-12-27T14:42:17Z</time>
      </trkpt>
      <trkpt lat="49.91896" lon="2.25508">
        <ele>18.7</ele>
        <time>2015-12-27T14:42:19Z</time>
      </trkpt>
      <trkpt lat="49.91899" lon="2.25514">
        <ele>18.9</ele>
        <time>2015-12-27T14:42:22Z</time>
      </trkpt>
      <trkpt lat="49.91898" lon="2.2552">
        <ele>18.9</ele>
        <time>2015-12-27T14:42:26Z</time>
      </trkpt>
      <trkpt lat="49.91898" lon="2.25525">
        <ele>18.9</ele>
        <time>2015-12-27T14:42:29Z</time>
      </trkpt>
      <trkpt lat="49.91898" lon="2.2553">
        <ele>19</ele>
        <time>2015-12-27T14:42:31Z</time>
      </trkpt>
      <trkpt lat="49.91898" lon="2.25535">
        <ele>19</ele>
        <time>2015-12-27T14:42:35Z</time>
      </trkpt>
      <trkpt lat="49.91897" lon="2.25541">
        <ele>19.1</ele>
        <time>2015-12-27T14:42:39Z</time>
      </trkpt>
      <trkpt lat="49.91896" lon="2.25546">
        <ele>19.1</ele>
        <time>2015-12-27T14:42:44Z</time>
      </trkpt>
      <trkpt lat="49.91898" lon="2.25549">
        <ele>19.2</ele>
        <time>2015-12-27T14:42:46Z</time>
      </trkpt>
      <trkpt lat="49.91897" lon="2.25554">
        <ele>19.2</ele>
        <time>2015-12-27T14:42:49Z</time>
      </trkpt>
      <trkpt lat="49.91897" lon="2.25558">
        <ele>19.2</ele>
        <time>2015-12-27T14:42:51Z</time>
      </trkpt>
      <trkpt lat="49.91895" lon="2.25563">
        <ele>19.2</ele>
        <time>2015-12-27T14:42:55Z</time>
      </trkpt>
      <trkpt lat="49.91896" lon="2.25568">
        <ele>19.2</ele>
        <time>2015-12-27T14:42:59Z</time>
      </trkpt>
      <trkpt lat="49.91895" lon="2.25573">
        <ele>19.2</ele>
        <time>2015-12-27T14:43:01Z</time>
      </trkpt>
      <trkpt lat="49.91894" lon="2.25578">
        <ele>19.2</ele>
        <time>2015-12-27T14:43:05Z</time>
      </trkpt>
      <trkpt lat="49.91894" lon="2.25582">
        <ele>19.3</ele>
        <time>2015-12-27T14:43:09Z</time>
      </trkpt>
      <trkpt lat="49.91892" lon="2.25586">
        <ele>19.2</ele>
        <time>2015-12-27T14:43:14Z</time>
      </trkpt>
      <trkpt lat="49.91892" lon="2.25591">
        <ele>19.3</ele>
        <time>2015-12-27T14:43:18Z</time>
      </trkpt>
      <trkpt lat="49.91892" lon="2.25596">
        <ele>19.3</ele>
        <time>2015-12-27T14:43:21Z</time>
      </trkpt>
      <trkpt lat="49.91892" lon="2.25601">
        <ele>19.4</ele>
        <time>2015-12-27T14:43:27Z</time>
      </trkpt>
      <trkpt lat="49.91893" lon="2.25606">
        <ele>19.5</ele>
        <time>2015-12-27T14:43:30Z</time>
      </trkpt>
      <trkpt lat="49.91895" lon="2.25613">
        <ele>19.6</ele>
        <time>2015-12-27T14:43:31Z</time>
      </trkpt>
      <trkpt lat="49.91893" lon="2.25618">
        <ele>19.6</ele>
        <time>2015-12-27T14:43:35Z</time>
      </trkpt>
      <trkpt lat="49.91891" lon="2.25622">
        <ele>19.5</ele>
        <time>2015-12-27T14:43:38Z</time>
      </trkpt>
      <trkpt lat="49.9189" lon="2.25627">
        <ele>19.5</ele>
        <time>2015-12-27T14:43:40Z</time>
      </trkpt>
      <trkpt lat="49.91892" lon="2.25632">
        <ele>19.5</ele>
        <time>2015-12-27T14:43:42Z</time>
      </trkpt>
      <trkpt lat="49.9189" lon="2.25637">
        <ele>19.5</ele>
        <time>2015-12-27T14:43:45Z</time>
      </trkpt>
      <trkpt lat="49.91888" lon="2.25641">
        <ele>19.4</ele>
        <time>2015-12-27T14:43:48Z</time>
      </trkpt>
      <trkpt lat="49.91888" lon="2.25646">
        <ele>19.3</ele>
        <time>2015-12-27T14:43:51Z</time>
      </trkpt>
      <trkpt lat="49.91886" lon="2.25653">
        <ele>19.3</ele>
        <time>2015-12-27T14:43:54Z</time>
      </trkpt>
      <trkpt lat="49.91884" lon="2.25658">
        <ele>19.2</ele>
        <time>2015-12-27T14:43:57Z</time>
      </trkpt>
      <trkpt lat="49.91883" lon="2.25662">
        <ele>19.1</ele>
        <time>2015-12-27T14:44:01Z</time>
      </trkpt>
      <trkpt lat="49.9188" lon="2.25665">
        <ele>19.1</ele>
        <time>2015-12-27T14:44:04Z</time>
      </trkpt>
      <trkpt lat="49.91878" lon="2.2567">
        <ele>19.1</ele>
        <time>2015-12-27T14:44:07Z</time>
      </trkpt>
      <trkpt lat="49.91876" lon="2.25675">
        <ele>19</ele>
        <time>2015-12-27T14:44:10Z</time>
      </trkpt>
      <trkpt lat="49.91874" lon="2.25679">
        <ele>19</ele>
        <time>2015-12-27T14:44:12Z</time>
      </trkpt>
      <trkpt lat="49.91872" lon="2.25683">
        <ele>19</ele>
        <time>2015-12-27T14:44:16Z</time>
      </trkpt>
      <trkpt lat="49.91873" lon="2.2569">
        <ele>19</ele>
        <time>2015-12-27T14:44:18Z</time>
      </trkpt>
      <trkpt lat="49.9187" lon="2.25694">
        <ele>19</ele>
        <time>2015-12-27T14:44:22Z</time>
      </trkpt>
      <trkpt lat="49.91871" lon="2.25702">
        <ele>19</ele>
        <time>2015-12-27T14:44:25Z</time>
      </trkpt>
      <trkpt lat="49.91871" lon="2.25707">
        <ele>19</ele>
        <time>2015-12-27T14:44:30Z</time>
      </trkpt>
      <trkpt lat="49.91868" lon="2.25711">
        <ele>19</ele>
        <time>2015-12-27T14:44:33Z</time>
      </trkpt>
      <trkpt lat="49.91868" lon="2.25716">
        <ele>19</ele>
        <time>2015-12-27T14:44:37Z</time>
      </trkpt>
      <trkpt lat="49.91867" lon="2.25721">
        <ele>19</ele>
        <time>2015-12-27T14:44:40Z</time>
      </trkpt>
      <trkpt lat="49.91865" lon="2.25725">
        <ele>19</ele>
        <time>2015-12-27T14:44:43Z</time>
      </trkpt>
      <trkpt lat="49.91866" lon="2.25732">
        <ele>19</ele>
        <time>2015-12-27T14:44:46Z</time>
      </trkpt>
      <trkpt lat="49.91864" lon="2.25738">
        <ele>19</ele>
        <time>2015-12-27T14:44:52Z</time>
      </trkpt>
      <trkpt lat="49.91863" lon="2.25743">
        <ele>19.1</ele>
        <time>2015-12-27T14:44:56Z</time>
      </trkpt>
      <trkpt lat="49.91862" lon="2.25747">
        <ele>19.1</ele>
        <time>2015-12-27T14:44:59Z</time>
      </trkpt>
      <trkpt lat="49.91864" lon="2.25751">
        <ele>19.1</ele>
        <time>2015-12-27T14:45:03Z</time>
      </trkpt>
      <trkpt lat="49.91866" lon="2.25755">
        <ele>19.1</ele>
        <time>2015-12-27T14:45:08Z</time>
      </trkpt>
      <trkpt lat="49.91868" lon="2.25759">
        <ele>19</ele>
        <time>2015-12-27T14:45:12Z</time>
      </trkpt>
      <trkpt lat="49.91871" lon="2.25763">
        <ele>19</ele>
        <time>2015-12-27T14:45:15Z</time>
      </trkpt>
      <trkpt lat="49.91873" lon="2.25768">
        <ele>19</ele>
        <time>2015-12-27T14:45:19Z</time>
      </trkpt>
      <trkpt lat="49.91876" lon="2.2577">
        <ele>19</ele>
        <time>2015-12-27T14:45:24Z</time>
      </trkpt>
      <trkpt lat="49.91879" lon="2.25774">
        <ele>19</ele>
        <time>2015-12-27T14:45:28Z</time>
      </trkpt>
      <trkpt lat="49.91882" lon="2.2578">
        <ele>19.1</ele>
        <time>2015-12-27T14:45:37Z</time>
      </trkpt>
      <trkpt lat="49.91886" lon="2.25782">
        <ele>19.1</ele>
        <time>2015-12-27T14:45:43Z</time>
      </trkpt>
      <trkpt lat="49.91888" lon="2.25785">
        <ele>19.1</ele>
        <time>2015-12-27T14:45:45Z</time>
      </trkpt>
      <trkpt lat="49.91891" lon="2.25787">
        <ele>19.2</ele>
        <time>2015-12-27T14:45:48Z</time>
      </trkpt>
      <trkpt lat="49.91894" lon="2.2579">
        <ele>19.2</ele>
        <time>2015-12-27T14:45:52Z</time>
      </trkpt>
      <trkpt lat="49.91897" lon="2.25794">
        <ele>19.2</ele>
        <time>2015-12-27T14:45:54Z</time>
      </trkpt>
      <trkpt lat="49.91899" lon="2.25795">
        <ele>19.2</ele>
        <time>2015-12-27T14:45:58Z</time>
      </trkpt>
      <trkpt lat="49.91902" lon="2.25795">
        <ele>19.3</ele>
        <time>2015-12-27T14:46:01Z</time>
      </trkpt>
      <trkpt lat="49.91904" lon="2.25798">
        <ele>19.3</ele>
        <time>2015-12-27T14:46:03Z</time>
      </trkpt>
      <trkpt lat="49.91906" lon="2.25801">
        <ele>19.3</ele>
        <time>2015-12-27T14:46:04Z</time>
      </trkpt>
      <trkpt lat="49.91908" lon="2.25805">
        <ele>19.2</ele>
        <time>2015-12-27T14:46:07Z</time>
      </trkpt>
      <trkpt lat="49.91909" lon="2.2581">
        <ele>19.2</ele>
        <time>2015-12-27T14:46:10Z</time>
      </trkpt>
      <trkpt lat="49.91912" lon="2.25813">
        <ele>19.2</ele>
        <time>2015-12-27T14:46:13Z</time>
      </trkpt>
      <trkpt lat="49.91915" lon="2.25815">
        <ele>19.2</ele>
        <time>2015-12-27T14:46:17Z</time>
      </trkpt>
      <trkpt lat="49.91919" lon="2.25816">
        <ele>19.2</ele>
        <time>2015-12-27T14:46:20Z</time>
      </trkpt>
      <trkpt lat="49.91922" lon="2.25816">
        <ele>19.3</ele>
        <time>2015-12-27T14:46:23Z</time>
      </trkpt>
      <trkpt lat="49.91924" lon="2.2582">
        <ele>19.3</ele>
        <time>2015-12-27T14:46:24Z</time>
      </trkpt>
      <trkpt lat="49.91925" lon="2.25826">
        <ele>19.2</ele>
        <time>2015-12-27T14:46:29Z</time>
      </trkpt>
      <trkpt lat="49.91927" lon="2.25832">
        <ele>19.1</ele>
        <time>2015-12-27T14:46:31Z</time>
      </trkpt>
      <trkpt lat="49.91929" lon="2.25836">
        <ele>19.1</ele>
        <time>2015-12-27T14:46:35Z</time>
      </trkpt>
      <trkpt lat="49.9193" lon="2.25841">
        <ele>19.1</ele>
        <time>2015-12-27T14:46:37Z</time>
      </trkpt>
      <trkpt lat="49.91933" lon="2.25841">
        <ele>19.1</ele>
        <time>2015-12-27T14:46:41Z</time>
      </trkpt>
      <trkpt lat="49.91937" lon="2.25845">
        <ele>19.1</ele>
        <time>2015-12-27T14:46:45Z</time>
      </trkpt>
      <trkpt lat="49.9194" lon="2.25844">
        <ele>19.2</ele>
        <time>2015-12-27T14:46:47Z</time>
      </trkpt>
      <trkpt lat="49.91943" lon="2.25846">
        <ele>19.2</ele>
        <time>2015-12-27T14:46:49Z</time>
      </trkpt>
      <trkpt lat="49.91945" lon="2.2585">
        <ele>19.1</ele>
        <time>2015-12-27T14:46:52Z</time>
      </trkpt>
      <trkpt lat="49.91947" lon="2.25853">
        <ele>19.1</ele>
        <time>2015-12-27T14:46:54Z</time>
      </trkpt>
      <trkpt lat="49.9195" lon="2.25858">
        <ele>19.1</ele>
        <time>2015-12-27T14:46:58Z</time>
      </trkpt>
      <trkpt lat="49.91953" lon="2.2586">
        <ele>19.1</ele>
        <time>2015-12-27T14:47:00Z</time>
      </trkpt>
      <trkpt lat="49.91955" lon="2.25863">
        <ele>19.1</ele>
        <time>2015-12-27T14:47:02Z</time>
      </trkpt>
      <trkpt lat="49.91958" lon="2.25865">
        <ele>19.1</ele>
        <time>2015-12-27T14:47:07Z</time>
      </trkpt>
      <trkpt lat="49.9196" lon="2.25868">
        <ele>19.1</ele>
        <time>2015-12-27T14:47:09Z</time>
      </trkpt>
      <trkpt lat="49.91963" lon="2.25871">
        <ele>19</ele>
        <time>2015-12-27T14:47:11Z</time>
      </trkpt>
      <trkpt lat="49.91965" lon="2.25874">
        <ele>19</ele>
        <time>2015-12-27T14:47:18Z</time>
      </trkpt>
      <trkpt lat="49.91969" lon="2.25871">
        <ele>19</ele>
        <time>2015-12-27T14:47:20Z</time>
      </trkpt>
      <trkpt lat="49.91971" lon="2.25874">
        <ele>19</ele>
        <time>2015-12-27T14:47:22Z</time>
      </trkpt>
      <trkpt lat="49.91974" lon="2.25871">
        <ele>19</ele>
        <time>2015-12-27T14:47:24Z</time>
      </trkpt>
      <trkpt lat="49.91977" lon="2.2587">
        <ele>19</ele>
        <time>2015-12-27T14:47:26Z</time>
      </trkpt>
      <trkpt lat="49.9198" lon="2.25868">
        <ele>19</ele>
        <time>2015-12-27T14:47:32Z</time>
      </trkpt>
      <trkpt lat="49.91984" lon="2.25865">
        <ele>19</ele>
        <time>2015-12-27T14:47:35Z</time>
      </trkpt>
      <trkpt lat="49.91987" lon="2.25863">
        <ele>19</ele>
        <time>2015-12-27T14:47:38Z</time>
      </trkpt>
      <trkpt lat="49.91991" lon="2.2586">
        <ele>19</ele>
        <time>2015-12-27T14:47:41Z</time>
      </trkpt>
      <trkpt lat="49.91993" lon="2.25856">
        <ele>19</ele>
        <time>2015-12-27T14:47:45Z</time>
      </trkpt>
      <trkpt lat="49.91996" lon="2.25856">
        <ele>19</ele>
        <time>2015-12-27T14:47:50Z</time>
      </trkpt>
      <trkpt lat="49.91999" lon="2.25854">
        <ele>19</ele>
        <time>2015-12-27T14:47:53Z</time>
      </trkpt>
      <trkpt lat="49.92002" lon="2.25853">
        <ele>19</ele>
        <time>2015-12-27T14:47:56Z</time>
      </trkpt>
      <trkpt lat="49.92003" lon="2.25848">
        <ele>19</ele>
        <time>2015-12-27T14:48:05Z</time>
      </trkpt>
      <trkpt lat="49.92013" lon="2.25832">
        <ele>18.8</ele>
        <time>2015-12-27T14:49:34Z</time>
      </trkpt>
      <trkpt lat="49.9201" lon="2.25839">
        <ele>18.9</ele>
        <time>2015-12-27T14:50:25Z</time>
      </trkpt>
    </trkseg>
  </trk>
</gpx>